[[{"header":{"parameterUnit":"m.s-1","parameterCategory":1,"la1":30.6,"la2":28.766,"lo1":-90.7593,"lo2":-88.6598,"dy":0.0162,"dx":0.0183,"nx":116,"ny":114,"refTime":"2024-05-30T06:00:00:Z","depth":0,"parameterNumber":2,"parameterNumberName":"U-component_of_WINDS"},"data":[0.0,0.0,0.0,0.0,0.0,0.0,0.0,0.0,0.0,0.0,0.0,0.0,0.0,0.0,0.0,0.0,0.0,0.0,0.0,0.0,0.0,0.0,0.0,0.0,0.0,0.0,0.0,0.0,0.0,0.0,0.0,0.0,0.0,0.0,0.0,0.0,0.0,0.0,0.0,0.0,0.0,0.0,0.0,0.0,0.0,0.0,0.0,0.0,0.0,0.0,0.0,0.0,0.0,0.0,0.0,0.0,0.0,0.0,0.0,0.0,0.0,0.0,0.0,0.0,0.0,0.0,0.0,0.0,0.0,0.0,0.0,0.0,0.0,0.0,0.0,0.0,0.0,0.0,0.0,0.0,0.0,0.0,0.0,0.0,0.0,0.0,0.0,0.0,0.0,0.0,0.0,0.0,0.0,0.0,0.0,0.0,0.0,0.0,0.0,0.0,0.0,0.0,0.0,0.0,0.0,0.0,0.0,0.0,0.0,0.0,0.0,0.0,0.0,0.0,0.0,0.0,0.0,0.0,0.0,0.0,0.0,0.0,0.0,0.0,0.0,0.0,0.0,0.0,0.0,0.0,0.0,0.0,0.0,0.0,0.0,0.0,0.0,0.0,0.0,0.0,0.0,0.0,0.0,0.0,0.0,0.0,0.0,0.0,0.0,0.0,0.0,0.0,0.0,0.0,0.0,0.0,0.0,0.0,0.0,0.0,0.0,0.0,0.0,0.0,0.0,0.0,0.0,0.0,0.0,0.0,0.0,0.0,0.0,0.0,0.0,0.0,0.0,0.0,0.0,0.0,0.0,0.0,0.0,0.0,0.0,0.0,0.0,0.0,0.0,0.0,0.0,0.0,0.0,0.0,0.0,0.0,0.0,0.0,0.0,0.0,0.0,0.0,0.0,0.0,0.0,0.0,0.0,0.0,0.0,0.0,0.0,0.0,0.0,0.0,0.0,0.0,0.0,0.0,0.0,0.0,0.0,0.0,0.0,0.0,0.0,0.0,0.0,0.0,0.0,0.0,0.0,0.0,0.0,0.0,0.0,0.0,0.0,0.0,0.0,0.0,0.0,0.0,0.0,0.0,0.0,0.0,0.0,0.0,0.0,0.0,0.0,0.0,0.0,0.0,0.0,0.0,0.0,0.0,0.0,0.0,0.0,0.0,0.0,0.0,0.0,0.0,0.0,0.0,0.0,0.0,0.0,0.0,0.0,0.0,0.0,0.0,0.0,0.0,0.0,0.0,0.0,0.0,0.0,0.0,0.0,0.0,0.0,0.0,0.0,0.0,0.0,0.0,0.0,0.0,0.0,0.0,0.0,0.0,0.0,0.0,0.0,0.0,0.0,0.0,0.0,0.0,0.0,0.0,0.0,0.0,0.0,0.0,0.0,0.0,0.0,0.0,0.0,0.0,0.0,0.0,0.0,0.0,0.0,0.0,0.0,0.0,0.0,0.0,0.0,0.0,0.0,0.0,0.0,0.0,0.0,0.0,0.0,0.0,0.0,0.0,0.0,0.0,0.0,0.0,0.0,0.0,0.0,0.0,0.0,0.0,0.0,0.0,0.0,0.0,0.0,0.0,0.0,0.0,0.0,0.0,0.0,0.0,0.0,0.0,0.0,0.0,0.0,0.0,0.0,0.0,0.0,0.0,0.0,0.0,0.0,0.0,0.0,0.0,0.0,0.0,0.0,0.0,0.0,0.0,0.0,0.0,0.0,0.0,0.0,0.0,0.0,0.0,0.0,0.0,0.0,0.0,0.0,0.0,0.0,0.0,0.0,0.0,0.0,0.0,0.0,0.0,0.0,0.0,0.0,0.0,0.0,0.0,0.0,0.0,0.0,0.0,0.0,0.0,0.0,0.0,0.0,0.0,0.0,0.0,0.0,0.0,0.0,0.0,0.0,0.0,0.0,0.0,0.0,0.0,0.0,0.0,0.0,0.0,0.0,0.0,0.0,0.0,0.0,0.0,0.0,0.0,0.0,0.0,0.0,0.0,0.0,0.0,0.0,0.0,0.0,0.0,0.0,0.0,0.0,0.0,0.0,0.0,0.0,0.0,0.0,0.0,0.0,0.0,0.0,0.0,0.0,0.0,0.0,0.0,0.0,0.0,0.0,0.0,0.0,0.0,0.0,0.0,0.0,0.0,0.0,0.0,0.0,0.0,0.0,0.0,0.0,0.0,0.0,0.0,0.0,0.0,0.0,0.0,0.0,0.0,0.0,0.0,0.0,0.0,0.0,0.0,0.0,0.0,0.0,0.0,0.0,0.0,0.0,0.0,0.0,0.0,0.0,0.0,0.0,0.0,0.0,0.0,0.0,0.0,0.0,0.0,0.0,0.0,0.0,0.0,0.0,0.0,0.0,0.0,0.0,0.0,0.0,0.0,0.0,0.0,0.0,0.0,0.0,0.0,0.0,0.0,0.0,0.0,0.0,0.0,0.0,0.0,0.0,0.0,0.0,0.0,0.0,0.0,0.0,0.0,0.0,0.0,0.0,0.0,0.0,0.0,0.0,0.0,0.0,0.0,0.0,0.0,0.0,0.0,0.0,0.0,0.0,0.0,0.0,0.0,0.0,0.0,0.0,0.0,0.0,0.0,0.0,0.0,0.0,0.0,0.0,0.0,0.0,0.0,0.0,0.0,0.0,0.0,0.0,0.0,0.0,0.0,0.0,0.0,0.0,0.0,0.0,0.0,0.0,0.0,0.0,0.0,0.0,0.0,0.0,0.0,0.0,0.0,0.0,0.0,0.0,0.0,0.0,0.0,0.0,0.0,0.0,0.0,0.0,0.0,0.0,0.0,0.0,0.0,0.0,0.0,0.0,0.0,0.0,0.0,0.0,0.0,0.0,0.0,0.0,0.0,0.0,0.0,0.0,0.0,0.0,0.0,0.0,0.0,0.0,0.0,0.0,0.0,0.0,0.0,0.0,0.0,0.0,0.0,0.0,0.0,0.0,0.0,0.0,0.0,0.0,0.0,0.0,0.0,0.0,0.0,0.0,0.0,0.0,0.0,0.0,0.0,0.0,0.0,0.0,0.0,0.0,0.0,0.0,0.0,0.0,0.0,0.0,0.0,0.0,0.0,0.0,0.0,0.0,0.0,0.0,0.0,0.0,0.0,0.0,0.0,0.0,0.0,0.0,0.0,0.0,0.0,0.0,0.0,0.0,0.0,0.0,0.0,0.0,0.0,0.0,0.0,0.0,0.0,0.0,0.0,0.0,0.0,0.0,0.0,0.0,0.0,0.0,0.0,0.0,0.0,0.0,0.0,0.0,0.0,0.0,0.0,0.0,0.0,0.0,0.0,0.0,0.0,0.0,0.0,0.0,0.0,0.0,0.0,0.0,0.0,0.0,0.0,0.0,0.0,0.0,0.0,0.0,0.0,0.0,0.0,0.0,0.0,0.0,0.0,0.0,0.0,0.0,0.0,0.0,0.0,0.0,0.0,0.0,0.0,0.0,0.0,0.0,0.0,0.0,0.0,0.0,0.0,0.0,0.0,0.0,0.0,0.0,0.0,0.0,0.0,0.0,0.0,0.0,0.0,0.0,0.0,0.0,0.0,0.0,0.0,0.0,0.0,0.0,0.0,0.0,0.0,0.0,0.0,0.0,0.0,0.0,0.0,0.0,0.0,0.0,0.0,0.0,0.0,0.0,0.0,0.0,0.0,0.0,0.0,0.0,0.0,0.0,0.0,0.0,0.0,0.0,0.0,0.0,0.0,0.0,0.0,0.0,0.0,0.0,0.0,0.0,0.0,0.0,0.0,0.0,0.0,0.0,0.0,0.0,0.0,0.0,0.0,0.0,0.0,0.0,0.0,0.0,0.0,0.0,0.0,0.0,0.0,0.0,0.0,0.0,0.0,0.0,0.0,0.0,0.0,0.0,0.0,0.0,0.0,0.0,0.0,0.0,0.0,0.0,0.0,0.0,0.0,0.0,0.0,0.0,0.0,0.0,0.0,0.0,0.0,0.0,0.0,0.0,0.0,0.0,0.0,0.0,0.0,0.0,0.0,0.0,0.0,0.0,0.0,0.0,0.0,0.0,0.0,0.0,0.0,0.0,0.0,0.0,0.0,0.0,0.0,0.0,0.0,0.0,0.0,0.0,0.0,0.0,0.0,0.0,0.0,0.0,0.0,0.0,0.0,0.0,0.0,0.0,0.0,0.0,0.0,0.0,0.0,0.0,0.0,0.0,0.0,0.0,0.0,0.0,0.0,0.0,0.0,0.0,0.0,0.0,0.0,0.0,0.0,0.0,0.0,0.0,0.0,0.0,0.0,0.0,0.0,0.0,0.0,0.0,0.0,0.0,0.0,0.0,0.0,0.0,0.0,0.0,0.0,0.0,0.0,0.0,0.0,0.0,0.0,0.0,0.0,0.0,0.0,0.0,0.0,0.0,0.0,0.0,0.0,0.0,0.0,0.0,0.0,0.0,0.0,0.0,0.0,0.0,0.0,0.0,0.0,0.0,0.0,0.0,0.0,0.0,0.0,0.0,0.0,0.0,0.0,0.0,0.0,0.0,0.0,0.0,0.0,0.0,0.0,0.0,0.0,0.0,0.0,0.0,0.0,0.0,0.0,0.0,0.0,0.0,0.0,0.0,0.0,0.0,0.0,0.0,0.0,0.0,0.0,0.0,0.0,0.0,0.0,0.0,0.0,0.0,0.0,0.0,0.0,0.0,0.0,0.0,0.0,0.0,0.0,0.0,0.0,0.0,0.0,0.0,0.0,0.0,0.0,0.0,0.0,0.0,0.0,0.0,0.0,0.0,0.0,0.0,0.0,0.0,0.0,0.0,0.0,0.0,0.0,0.0,0.0,0.0,0.0,0.0,0.0,0.0,0.0,0.0,0.0,0.0,0.0,0.0,0.0,0.0,0.0,0.0,0.0,0.0,0.0,0.0,0.0,0.0,0.0,0.0,0.0,0.0,0.0,0.0,0.0,0.0,0.0,0.0,0.0,0.0,0.0,0.0,0.0,0.0,0.0,0.0,0.0,0.0,0.0,0.0,0.0,0.0,0.0,0.0,0.0,0.0,0.0,0.0,0.0,0.0,0.0,0.0,0.0,0.0,0.0,0.0,0.0,0.0,0.0,0.0,0.0,0.0,0.0,0.0,0.0,0.0,0.0,0.0,0.0,0.0,0.0,0.0,0.0,0.0,0.0,0.0,0.0,0.0,0.0,0.0,0.0,0.0,0.0,0.0,0.0,0.0,0.0,0.0,0.0,0.0,0.0,0.0,0.0,0.0,0.0,0.0,0.0,0.0,0.0,0.0,0.0,0.0,0.0,0.0,0.0,0.0,0.0,0.0,0.0,0.0,0.0,0.0,0.0,0.0,0.0,0.0,0.0,0.0,0.0,0.0,0.0,0.0,0.0,0.0,0.0,0.0,0.0,0.0,0.0,0.0,0.0,0.0,0.0,0.0,0.0,0.0,0.0,0.0,0.0,0.0,0.0,0.0,0.0,0.0,0.0,0.0,0.0,0.0,0.0,0.0,0.0,0.0,0.0,0.0,0.0,0.0,0.0,0.0,0.0,0.0,0.0,0.0,0.0,0.0,0.0,0.0,0.0,0.0,0.0,0.0,0.0,0.0,0.0,0.0,0.0,0.0,0.0,0.0,0.0,0.0,0.0,0.0,0.0,0.0,0.0,0.0,0.0,0.0,0.0,0.0,0.0,0.0,0.0,0.0,0.0,0.0,0.0,0.0,0.0,0.0,0.0,0.0,0.0,0.0,0.0,0.0,0.0,0.0,0.0,0.0,0.0,0.0,0.0,0.0,0.0,0.0,0.0,0.0,0.0,0.0,0.0,0.0,0.0,0.0,0.0,0.0,0.0,0.0,0.0,0.0,0.0,0.0,0.0,0.0,0.0,0.0,0.0,0.0,0.0,0.0,0.0,0.0,0.0,0.0,0.0,0.0,0.0,0.0,0.0,0.0,0.0,0.0,0.0,0.0,0.0,0.0,0.0,0.0,0.0,0.0,0.0,0.0,0.0,0.0,0.0,0.0,0.0,0.0,0.0,0.0,0.0,0.0,0.0,0.0,0.0,0.0,0.0,0.0,0.0,0.0,0.0,0.0,0.0,0.0,0.0,0.0,0.0,0.0,0.0,-1.9646,0.0,0.0,0.0,0.0,0.0,0.0,0.0,0.0,0.0,0.0,0.0,0.0,0.0,0.0,0.0,0.0,0.0,0.0,0.0,0.0,0.0,0.0,0.0,0.0,-1.0462,-1.0714,-1.0714,-1.0714,-1.0714,-1.0714,0.0,0.0,0.0,0.0,0.0,-1.0094,-1.0519,-1.1115,-1.194,-1.2808,-1.4082,-1.5721,-1.5253,-1.4404,-1.3233,0.0,0.0,0.0,0.0,0.0,0.0,0.0,0.0,0.0,0.0,0.0,0.0,0.0,0.0,0.0,0.0,0.0,0.0,0.0,0.0,0.0,0.0,0.0,0.0,0.0,0.0,0.0,0.0,0.0,0.0,0.0,0.0,0.0,0.0,0.0,0.0,0.0,0.0,0.0,0.0,0.0,0.0,0.0,0.0,0.0,0.0,0.0,0.0,0.0,0.0,0.0,0.0,0.0,0.0,0.0,0.0,0.0,0.0,0.0,0.0,0.0,0.0,0.0,0.0,0.0,0.0,0.0,0.0,0.0,0.0,0.0,-2.1867,0.0,0.0,0.0,0.0,0.0,0.0,0.0,0.0,0.0,0.0,0.0,0.0,0.0,0.0,0.0,0.0,0.0,0.0,0.0,0.0,0.0,-1.0164,-1.0308,-1.0964,-1.1524,-1.181,-1.1716,-1.1639,-1.1639,-1.081,0.0,0.0,0.0,-1.0327,-1.0327,-1.1329,-1.2596,-1.4129,-1.5439,-1.7234,-1.9434,-1.9596,-1.8538,-1.65,-1.6058,0.0,0.0,0.0,0.0,0.0,0.0,0.0,0.0,0.0,0.0,0.0,0.0,0.0,0.0,0.0,0.0,0.0,0.0,0.0,0.0,0.0,0.0,0.0,0.0,0.0,0.0,0.0,0.0,0.0,0.0,0.0,0.0,0.0,0.0,0.0,0.0,0.0,0.0,0.0,0.0,0.0,0.0,0.0,0.0,0.0,0.0,0.0,0.0,0.0,0.0,0.0,0.0,0.0,0.0,0.0,0.0,0.0,0.0,0.0,0.0,0.0,0.0,0.0,-2.9592,-3.0326,-3.0852,-3.1513,-3.1819,-3.1599,-2.775,-2.6135,-2.6109,-2.4355,0.0,0.0,0.0,0.0,0.0,0.0,0.0,0.0,0.0,0.0,0.0,0.0,0.0,0.0,0.0,0.0,0.0,0.0,0.0,-1.0455,-1.1143,-1.1331,-1.1983,-1.3437,-1.2926,-1.2529,-1.2529,-1.1716,0.0,0.0,-1.0829,-1.1233,-1.1233,-1.2767,-1.4055,-1.5038,-1.8115,-2.0154,-2.1196,-2.1947,-2.212,-2.1701,-1.9492,-1.8007,-1.7103,0.0,0.0,0.0,0.0,0.0,0.0,0.0,0.0,0.0,0.0,0.0,0.0,0.0,0.0,0.0,0.0,0.0,0.0,0.0,0.0,0.0,0.0,0.0,0.0,0.0,0.0,0.0,0.0,0.0,0.0,0.0,0.0,0.0,0.0,0.0,0.0,0.0,0.0,0.0,0.0,0.0,-1.5955,-1.8379,0.0,0.0,0.0,0.0,0.0,0.0,0.0,0.0,0.0,0.0,0.0,0.0,0.0,-2.8491,-2.9402,-3.1494,-3.2339,-3.1977,-3.35,-3.3903,-3.333,-3.344,-3.3476,-3.3495,-3.3555,0.0,-2.9384,-2.709,0.0,0.0,0.0,0.0,0.0,0.0,0.0,0.0,0.0,0.0,0.0,0.0,0.0,0.0,0.0,0.0,0.0,0.0,0.0,0.0,0.0,-1.3405,-1.4734,-1.5923,-1.616,-1.5836,-1.489,-1.4022,-1.2945,-1.162,-1.193,-1.2332,-1.2805,-1.4481,-1.6712,-1.9465,-2.2408,-2.4024,-2.4389,-2.5255,-2.5664,-2.5625,-2.449,-2.2451,-1.9735,-1.8045,0.0,0.0,0.0,0.0,0.0,0.0,0.0,0.0,0.0,0.0,0.0,0.0,0.0,0.0,0.0,0.0,0.0,0.0,0.0,0.0,0.0,0.0,0.0,0.0,0.0,0.0,0.0,0.0,0.0,0.0,0.0,0.0,0.0,0.0,0.0,0.0,0.0,0.0,0.0,-1.68,-1.9334,-1.9913,-2.0493,-2.0474,0.0,0.0,0.0,0.0,0.0,0.0,0.0,0.0,0.0,-2.9384,-3.0473,-3.1849,-3.3605,-3.4688,-3.5477,-3.6032,-3.7202,-3.7569,-3.7239,-3.7698,-3.7885,-3.7885,-3.7808,-3.6707,-3.4724,-3.1353,-2.9017,-2.7402,0.0,0.0,0.0,0.0,-2.4986,-2.5401,0.0,0.0,0.0,0.0,0.0,0.0,0.0,0.0,0.0,0.0,0.0,0.0,-1.3515,-1.5353,-1.7083,-1.8546,-1.8873,-1.8565,-1.7542,-1.6058,-1.4637,-1.339,-1.312,-1.3387,-1.4206,-1.6558,-1.9638,-2.3447,-2.5563,-2.6717,-2.6948,-2.7601,-2.7895,-2.7895,-2.7895,-2.6005,-2.2697,-2.1027,-1.9338,-1.7619,0.0,0.0,0.0,0.0,0.0,0.0,0.0,0.0,0.0,0.0,0.0,0.0,0.0,0.0,0.0,0.0,0.0,0.0,0.0,0.0,0.0,0.0,0.0,0.0,0.0,0.0,0.0,0.0,0.0,0.0,0.0,0.0,0.0,0.0,0.0,0.0,0.0,-1.9848,-2.2171,-2.152,-2.3079,-2.3575,0.0,0.0,0.0,0.0,0.0,0.0,-2.8906,-2.9977,-3.1463,-3.3482,-3.4156,-3.5349,-3.7202,-3.7422,-3.8138,-3.9331,-3.9918,-4.0212,-4.023,-4.082,-4.1095,-4.1058,-4.0469,-3.9863,-3.9019,-3.5147,-3.2596,-3.098,-2.9586,-2.8539,-2.7938,-2.8896,-2.9167,-2.9242,0.0,0.0,0.0,0.0,0.0,0.0,0.0,0.0,0.0,0.0,0.0,-1.2646,-1.5955,-1.6429,-1.7792,-2.1023,-1.9885,-1.9323,-2.0058,-1.7038,-1.5154,-1.5077,-1.4286,-1.4247,-1.5115,-1.9154,-2.2538,-2.5173,-2.6135,-2.7024,-2.7838,-2.7876,-2.7895,-2.7895,-2.7895,-2.7313,-2.6236,-2.4548,-2.2836,-2.1023,-1.8526,0.0,0.0,0.0,0.0,0.0,0.0,0.0,0.0,0.0,0.0,0.0,0.0,0.0,0.0,0.0,0.0,0.0,0.0,0.0,0.0,0.0,0.0,0.0,0.0,0.0,0.0,0.0,0.0,0.0,0.0,0.0,0.0,0.0,0.0,0.0,0.0,0.0,0.0,-2.4025,-2.6098,0.0,0.0,0.0,0.0,-2.8583,-2.9409,-3.0632,-3.2271,-3.3848,-3.5133,-3.6083,-3.834,-3.9588,-3.9732,-4.0487,-4.0893,-4.0967,-4.1022,-4.104,-4.104,-4.1077,-4.1095,-4.1095,-4.1058,-4.1022,-4.0728,-3.7459,-3.5128,-3.3532,-3.2693,-3.188,-3.1268,-3.2076,-3.2375,-3.2485,0.0,0.0,0.0,0.0,0.0,-1.0293,-1.0232,-1.0229,-1.0318,-1.0624,-1.2076,-1.3951,-1.624,-1.8425,-2.0658,-2.297,-2.3096,-2.2731,-2.1966,-1.9754,-1.8481,-1.8481,-1.7115,-1.7523,-2.0042,-2.2615,-2.4673,-2.6135,-2.7525,-2.8376,-2.8684,-2.9256,-2.95,-2.95,-2.95,-2.9025,-2.8107,-2.6409,-2.474,-2.3047,-2.1566,-1.9315,0.0,0.0,0.0,0.0,0.0,0.0,0.0,0.0,0.0,0.0,0.0,0.0,0.0,0.0,0.0,0.0,0.0,0.0,0.0,0.0,0.0,0.0,0.0,0.0,0.0,0.0,0.0,0.0,0.0,0.0,0.0,0.0,0.0,0.0,0.0,0.0,0.0,-2.717,-2.8962,0.0,-2.9322,-3.0246,-3.1005,-3.1298,-3.3054,-3.4596,-3.5711,-3.7276,-3.8542,-3.9368,-4.023,-4.0928,-4.1442,-4.1735,-4.2139,-4.2635,-4.2635,-4.2635,-4.2635,-4.2635,-4.2635,-4.2635,-4.2635,-4.2359,-4.1791,-4.0634,-3.8891,-3.6872,-3.6064,-3.5257,-3.4578,-3.4871,-3.4981,-3.5018,0.0,0.0,0.0,0.0,-1.0293,-1.0293,-1.0232,-1.0231,-1.0536,-1.1377,-1.3203,-1.5393,-1.7918,-2.0427,-2.262,-2.4356,-2.4736,-2.4428,-2.3317,-2.1658,-2.0577,-2.0308,-1.9196,-2.0046,-2.3163,-2.4596,-2.6,-2.7448,-2.8569,-2.9261,-2.9544,-3.0135,-3.0404,-3.0404,-3.0404,-3.0077,-2.9467,-2.8352,-2.6909,-2.5279,-2.4101,-2.2293,-2.0081,0.0,0.0,0.0,0.0,0.0,0.0,0.0,0.0,0.0,0.0,0.0,0.0,0.0,0.0,0.0,0.0,0.0,0.0,0.0,0.0,0.0,0.0,0.0,0.0,0.0,0.0,0.0,0.0,0.0,0.0,0.0,0.0,0.0,0.0,0.0,-2.8822,-2.9335,-3.1806,-3.3251,-3.2669,-3.3862,-3.4766,-3.5037,-3.6597,-3.7863,-3.867,-3.9974,-4.0946,-4.148,-4.1772,-4.2176,-4.269,-4.269,-4.2965,-4.3515,-4.3515,-4.3515,-4.3515,-4.3515,-4.3515,-4.3515,-4.3515,-4.3185,-4.269,-4.269,-4.1607,-3.9827,-3.9019,-3.8377,-3.7918,-3.7918,-3.7918,-3.7881,0.0,0.0,0.0,-1.0293,-1.0293,-1.0293,-1.0293,-1.0293,-1.1185,-1.3634,-1.4764,-1.6892,-2.1012,-2.2293,-2.3505,-2.5154,-2.4567,-2.411,-2.4149,-2.2466,-2.1135,-2.0365,-2.0442,-2.1658,-2.4129,-2.4986,-2.664,-2.9107,-2.9127,-2.9563,-3.0404,-3.0423,-3.0442,-3.0442,-3.0462,-3.0481,-3.0481,-3.0481,-2.9544,-2.789,-2.6135,-2.5385,-2.4981,0.0,0.0,0.0,0.0,0.0,0.0,0.0,0.0,0.0,0.0,0.0,0.0,0.0,0.0,0.0,0.0,0.0,0.0,0.0,0.0,0.0,0.0,0.0,0.0,0.0,0.0,0.0,0.0,0.0,0.0,0.0,0.0,0.0,-2.4428,-2.9145,-3.2051,-3.0595,-3.4646,-3.6909,-3.5353,-3.7353,-3.9111,-3.9882,-3.9955,-4.0322,-4.1095,-4.1901,-4.2341,-4.2341,-4.3075,-4.3515,-4.3515,-4.3515,-4.3515,-4.3515,-4.3515,-4.3515,-4.3515,-4.3515,-4.3515,-4.3515,-4.3515,-4.3515,-4.3515,-4.3515,-4.3039,-4.2268,-4.1444,-4.1113,-4.1095,-4.1095,-4.1095,-4.0985,0.0,0.0,-1.0293,-1.0293,-1.0293,-1.0293,-1.0293,-1.0293,-1.0952,-1.2829,-1.4863,-1.7318,-2.03,-2.2489,-2.4163,-2.5212,-2.4567,-2.4356,-2.4928,-2.225,-2.0788,-2.1154,-2.3543,-2.5197,-2.589,-2.7313,-2.8396,-2.9107,-2.9737,-3.0173,-3.0404,-3.1058,-3.1346,-3.1371,-3.1948,-3.2218,-3.2218,-3.2218,-3.1948,-3.1314,-2.8986,-2.7332,-2.6005,0.0,0.0,0.0,0.0,0.0,0.0,0.0,0.0,0.0,0.0,0.0,0.0,0.0,0.0,0.0,0.0,0.0,0.0,0.0,0.0,0.0,0.0,0.0,0.0,0.0,0.0,0.0,0.0,0.0,0.0,0.0,0.0,-3.0099,-2.9494,-3.1256,-3.3316,-3.5271,-3.7202,-3.8652,-3.9352,-4.0031,-4.0526,-4.0747,-4.1313,-4.1735,-4.1974,-4.2727,-4.3167,-4.3167,-4.3386,-4.3515,-4.3515,-4.3515,-4.3515,-4.3515,-4.3515,-4.3515,-4.3515,-4.3515,-4.3515,-4.3515,-4.3515,-4.3515,-4.3515,-4.3515,-4.3369,-4.3075,-4.2286,-4.1625,-4.1095,-4.1095,-4.1095,-4.1058,0.0,-1.0293,-1.0293,-1.0293,-1.0293,-1.0293,-1.0293,-1.0293,-1.1146,-1.3485,-1.5363,-1.7741,-2.0997,-2.2663,-2.3894,-2.4716,-2.4375,-2.399,-2.3731,-2.1885,-2.1654,-2.3543,-2.5192,-2.6563,-2.7621,-2.8607,-2.928,-2.964,-3.0154,-3.0596,-3.0962,-3.1468,-3.1891,-3.2218,-3.2699,-3.2891,-3.2891,-3.2891,-3.2891,-3.2737,-3.091,-2.9602,-2.8506,-2.6472,-2.5375,-2.476,-2.3428,-2.2254,-2.1273,-2.0758,0.0,0.0,0.0,0.0,0.0,0.0,0.0,0.0,0.0,0.0,0.0,0.0,0.0,0.0,0.0,0.0,0.0,0.0,0.0,0.0,0.0,0.0,0.0,0.0,-3.0666,-3.3041,-3.4284,-3.4578,-3.5495,-3.7749,-3.9019,-4.0212,-4.1479,-4.1919,-4.2121,-4.2121,-4.2543,-4.28,-4.28,-4.324,-4.3515,-4.3515,-4.3515,-4.3515,-4.3515,-4.3515,-4.3515,-4.3515,-4.3515,-4.3515,-4.3515,-4.3515,-4.3515,-4.3515,-4.3515,-4.3515,-4.3515,-4.3515,-4.3515,0.0,0.0,0.0,0.0,0.0,-4.1901,-4.159,0.0,-1.0293,-1.0293,-1.0293,-1.0293,-1.0293,-1.0293,-1.0293,-1.1476,-1.4736,-1.5941,-1.8031,-2.2075,-2.2682,-2.3144,-2.4014,-2.4014,-2.3297,-2.1754,-2.1831,-2.3269,-2.6313,-2.5904,-2.6697,-2.905,-2.9204,-2.9621,-3.0404,-3.05,-3.0942,-3.1698,-3.1891,-3.2352,-3.3045,-3.3141,-3.3199,-3.3199,-3.3199,-3.3199,-3.3122,-3.2314,-3.1872,-3.1429,-2.8967,-2.8049,-2.7915,-2.7063,-2.5293,-2.3374,-2.3374,0.0,0.0,0.0,0.0,0.0,0.0,0.0,0.0,0.0,0.0,0.0,0.0,0.0,0.0,0.0,0.0,0.0,0.0,0.0,0.0,0.0,0.0,0.0,0.0,-3.273,-3.4619,-3.8322,-3.8285,-3.8208,-3.9019,-4.0361,-4.1535,-4.2359,-4.3075,-4.3515,-4.3515,-4.3515,-4.3515,-4.3515,0.0,0.0,0.0,0.0,-4.3515,-4.3515,-4.3515,-4.3515,-4.3515,-4.3515,-4.3515,-4.3515,-4.3515,-4.3515,-4.3515,-4.3515,-4.3515,-4.3515,-4.3515,-4.3513,-4.3565,-4.3565,-4.3565,-4.3565,-4.3565,-4.309,-4.2433,0.0,-1.0293,-1.0293,-1.0293,-1.0293,-1.0293,-1.0293,-1.0293,-1.1243,-1.3905,-1.5555,-1.7586,-2.0473,-2.1985,-2.3144,-2.4014,-2.3451,-2.2913,-2.2566,-2.3808,-2.4865,-2.5519,-2.6736,-2.7928,-2.9088,-2.9794,-3.0231,-3.0404,-3.1096,-3.1525,-3.1737,-3.3083,-3.3801,-3.3975,-3.468,-3.5,-3.5,-3.5,-3.5,-3.4923,-3.4064,-3.291,-3.1487,-2.9588,-2.8876,-2.8761,-2.7934,-2.7337,-2.6914,-2.6914,-2.5755,-2.4212,-2.3567,0.0,0.0,0.0,0.0,0.0,0.0,0.0,0.0,0.0,0.0,0.0,0.0,0.0,0.0,0.0,0.0,0.0,0.0,0.0,0.0,-3.3086,-3.5906,-3.8262,-3.9488,-4.0084,-4.0708,-4.1515,-4.1882,-4.2378,-4.3185,-4.3423,-4.3515,-4.3515,-4.3515,-4.3515,-4.3515,-4.3515,-4.3515,-4.3515,-4.3515,-4.3515,-4.3515,-4.3515,-4.3515,-4.3515,0.0,0.0,-4.3515,-4.3515,-4.3515,-4.3515,-4.3515,-4.3515,-4.3515,-4.3515,-4.3662,-4.3893,-4.3893,-4.3893,-4.3893,-4.3893,-4.3631,-4.3276,-1.0293,-1.0293,-1.0293,-1.0293,-1.0293,-1.0293,-1.0293,-1.0293,-1.1207,-1.3722,-1.4781,-1.6415,-1.9375,-2.0059,-2.0642,-2.1478,-2.1547,-2.2081,-2.3374,-2.424,-2.5274,-2.6544,-2.7448,-2.8486,-2.9717,-3.0173,-3.0404,-3.0404,-3.1269,-3.191,-3.2333,-3.3603,-3.443,-3.4872,-3.5308,-3.55,-3.55,-3.55,-3.55,-3.5423,-3.4545,-3.343,-3.216,-3.0891,-3.0121,-2.9698,-2.9294,-2.8871,-2.8492,-2.8492,-2.764,-2.6447,-2.5625,-2.4447,-2.3077,0.0,0.0,0.0,0.0,0.0,0.0,0.0,0.0,0.0,0.0,0.0,0.0,0.0,0.0,-2.8115,0.0,0.0,-3.3904,-3.6094,-3.7836,-3.9468,-4.1126,-4.1551,-4.1864,-4.2249,-4.2304,-4.2616,-4.3423,-4.3515,-4.3515,-4.3515,-4.3515,-4.3515,-4.3515,-4.3515,-4.3515,-4.3515,-4.3515,-4.3515,-4.3515,-4.3515,-4.3515,-4.3515,-4.3515,-4.3515,-4.3515,-4.366,-4.3758,-4.3756,-4.3958,-4.405,-4.405,-4.405,-4.4252,-4.4561,-4.4561,-4.4455,-4.429,-4.429,-4.4061,-4.3758,-1.0293,-1.0293,-1.0293,-1.0293,-1.0293,-1.0293,-1.0293,-1.0293,-1.1092,-1.3317,-1.3898,-1.5197,-1.8047,-1.8023,-1.8136,-1.8943,-2.0092,-2.1658,-2.3706,-2.4144,-2.5394,-2.7799,-2.7895,-2.8679,-3.0365,-3.0404,-3.0404,-3.0404,-3.1269,-3.2102,-3.291,-3.3801,-3.4661,-3.55,-3.55,-3.55,-3.55,-3.55,-3.55,-3.5442,-3.4737,-3.3833,-3.2833,-3.2179,-3.1288,-3.0385,-3.0212,-2.9698,-2.9088,-2.8915,-2.8319,-2.7525,-2.6813,-2.6,-2.5,-2.3485,-2.2566,0.0,0.0,0.0,0.0,0.0,0.0,0.0,0.0,0.0,-2.6299,-2.8852,-3.0394,-3.192,-3.3931,-3.4865,-3.6166,-3.8697,-3.9383,-4.033,-4.2507,-4.2777,-4.2751,-4.2751,-4.267,-4.2879,-4.3523,-4.3597,-4.3631,-4.3712,-4.358,-4.3531,-4.3597,-4.3597,-4.3563,-4.3496,-4.3546,-4.3597,-4.3597,-4.3597,-4.3647,-4.3712,-4.3712,-4.3712,-4.3728,-4.3986,-4.4117,-4.4132,-4.446,-4.4593,-4.4593,-4.4593,-4.48,-4.5096,-4.5096,-4.4966,-4.4781,-4.472,-4.4441,-4.4117,0.0,-1.0293,-1.0293,-1.0293,-1.0293,-1.0293,-1.0293,-1.0293,-1.0663,-1.1661,-1.3138,-1.4508,-1.5615,-1.6973,-1.8159,-1.9006,-2.1197,-2.2643,-2.2932,-2.4351,-2.5981,-2.7818,-2.7895,-2.8679,-3.0365,-3.0404,-3.0404,-3.0404,-3.1269,-3.2102,-3.291,-3.3801,-3.4661,-3.55,-3.55,-3.55,-3.55,-3.55,-3.55,-3.5481,-3.5385,-3.4372,-3.2891,-3.2795,-3.1775,-3.0308,-2.9525,-2.9184,-2.8992,-2.828,-2.7467,-2.6736,-2.664,-2.6,-2.5115,-2.4221,0.0,-2.3624,-2.2759,-2.3144,-2.4163,-2.5659,-2.6024,-2.7236,0.0,0.0,-3.1564,-3.4115,-3.5163,-3.5694,-3.5971,-3.7656,-3.9036,-3.9091,-4.117,-4.2793,-4.2804,-4.369,-4.4342,-4.4342,-4.4034,-4.3847,-4.394,-4.394,-4.4091,-4.4447,-4.3868,-4.3629,-4.3924,-4.394,-4.382,-4.3496,-4.3788,-4.394,-4.394,-4.394,-4.4117,-4.4474,-4.4474,-4.4474,-4.4474,-4.4514,-4.4527,-4.4527,-4.458,-4.4593,-4.4593,-4.4593,-4.48,-4.5096,-4.5096,-4.5253,-4.5448,-4.515,-4.4837,-4.4527,0.0,-1.0273,-1.0293,-1.0293,-1.0293,-1.0293,-1.0293,-1.0293,-1.0605,-1.1442,-1.2183,-1.2957,-1.3751,-1.4882,-1.6136,-1.7478,-1.9893,-2.1533,-2.2008,-2.4096,-2.6077,-2.7818,-2.7895,-2.8679,-3.0365,-3.0404,-3.0404,-3.0404,-3.1269,-3.1872,-3.2237,-3.3564,-3.4391,-3.4776,-3.5269,-3.55,-3.55,-3.55,-3.55,-3.55,-3.55,-3.4462,-3.2891,-3.2891,-3.1545,-2.9602,-2.9223,-2.88,0.0,-2.8011,-2.7659,-2.7274,-2.6755,-2.6346,-2.5885,-2.5043,-2.5159,0.0,-2.6299,-2.6722,0.0,0.0,-2.9929,-3.0968,-3.3609,-3.4045,-3.4346,-3.5885,-3.7172,-3.8046,-3.8046,-3.9286,-4.0467,0.0,-4.2171,-4.3257,-4.4021,-4.4405,-4.4487,-4.4177,-4.4423,-4.4561,-4.4359,-4.4364,-4.4318,-4.4266,-4.418,-4.4091,-4.4016,-4.4219,-4.4294,-4.4136,-4.428,-4.4364,-4.4364,-4.4364,-4.4428,-4.4593,-4.4593,-4.4593,-4.4624,-4.4793,-4.4988,-4.5171,-4.5171,-4.5171,-4.5171,-4.5171,-4.5263,-4.54,-4.54,-4.5485,-4.5577,-4.5438,-4.5191,-4.4896,0.0,-1.0273,-1.0293,-1.0293,-1.0293,-1.0293,-1.0293,-1.0293,-1.0527,-1.1152,-1.1445,-1.1991,-1.3038,-1.3683,-1.4609,-1.6078,-1.8511,-2.0305,-2.1116,-2.3555,-2.5741,-2.7472,-2.778,-2.8563,-3.0,-3.0288,-3.0404,-3.0404,-3.1019,-3.1468,-3.1737,-3.2929,-3.3628,-3.3878,-3.4507,-3.4923,-3.5135,-3.4885,-3.4923,-3.5115,-3.4885,-3.3885,-3.2545,-3.2295,-3.0775,-2.878,-2.878,-2.8242,-2.7467,-2.701,-2.701,-2.7024,-2.6178,-2.6063,-2.6154,-2.5769,-2.6269,-2.7217,-2.8434,0.0,0.0,-3.1968,-3.3179,-3.4237,-3.536,-3.6084,-3.6776,-3.7584,-3.8738,-3.9631,-3.9631,-4.0348,-4.1283,-4.2337,-4.2817,-4.356,-4.4908,-4.4756,-4.446,-4.4303,-4.464,-4.4891,-4.4889,-4.4781,-4.4657,-4.4463,-4.4535,-4.4514,-4.4299,-4.4574,-4.4701,-4.4593,-4.4682,-4.4846,-4.5073,-4.5073,-4.5236,-4.558,-4.558,-4.5454,-4.5238,-4.5243,-4.5362,-4.5594,-4.5594,-4.5594,-4.5594,-4.5594,-4.5594,-4.5594,-4.5594,-4.5594,-4.5594,-4.5594,-4.5438,-4.5232,0.0,0.0,-1.0293,-1.0293,-1.0293,-1.0293,-1.0293,-1.0293,-1.0312,-1.0332,-1.1074,-1.2227,-1.3887,-1.4075,-1.4454,-1.5353,-1.7698,-1.9471,-2.0286,-2.2719,-2.4887,-2.6568,-2.7448,-2.8299,-2.9127,-2.9967,-3.0404,-3.0404,-3.0423,-3.0865,-3.1698,-3.1756,-3.2199,-3.2949,-3.2968,-3.3449,-3.4186,-3.3333,-3.3468,-3.4167,-3.3314,-3.2487,-3.1641,-3.0808,-2.9429,-2.7934,-2.7934,-2.7371,-2.639,-2.476,-2.4736,-2.5231,-2.4432,-2.4716,0.0,-2.6327,-2.7178,0.0,0.0,0.0,-3.2025,-3.3705,-3.5353,-3.7026,-3.8738,-3.9169,-3.9419,-4.0227,-4.0439,-4.0458,-4.0458,-4.0919,-4.1547,-4.2368,-4.3215,-4.4073,-4.4982,-4.4653,-4.4626,-4.5442,-4.4827,-4.4654,0.0,-4.5282,-4.5211,-4.5522,-4.4966,-4.4751,-4.5052,-4.5074,-4.4931,-4.4606,-4.4919,-4.5467,-4.624,-4.624,-4.684,-4.7981,-4.7981,-4.7578,-4.6789,-4.5981,-4.5586,-4.5594,-4.5594,-4.5594,-4.5594,-4.5594,-4.5594,-4.5594,-4.5594,-4.5594,-4.5594,-4.5594,-4.5586,-4.5586,0.0,0.0,0.0,-1.0293,-1.0293,-1.0293,-1.0293,-1.0293,-1.0293,-1.0293,-1.1055,0.0,0.0,0.0,0.0,0.0,0.0,-1.8645,-1.9454,-2.1894,-2.4053,-2.5732,-2.6598,-2.7428,-2.8299,-2.8582,-2.9006,-2.9544,-2.9544,-2.9987,-3.0846,-3.1429,-3.1833,-3.2122,-3.266,-3.3064,-3.3314,-3.3026,-3.3391,-3.409,-3.266,-3.1948,-3.1602,-3.0731,-2.8635,-2.625,0.0,-2.612,-2.4856,-2.4283,-2.4279,-2.4548,-2.4812,0.0,0.0,-2.7044,-2.8049,-2.9069,0.0,0.0,-3.4615,-3.6295,-3.7584,-3.8719,-3.9842,-4.0092,-4.0015,-3.9765,-3.9708,-3.9534,-3.895,-3.9724,-4.0788,-4.1855,-4.3024,-4.4177,-4.5285,-4.5272,-4.5056,-4.4759,-4.4998,0.0,0.0,0.0,0.0,-4.5282,-4.5263,-4.5222,-4.5096,-4.5312,-4.5659,-4.6105,-4.6243,-4.6676,-4.7482,-4.7482,-4.7693,-4.8105,-4.8105,-4.7971,-4.7682,-4.6836,-4.6471,-4.6432,-4.5845,-4.5594,-4.5594,-4.5594,-4.5594,-4.5594,-4.5594,-4.5594,-4.5594,-4.5594,-4.5594,-4.5594,0.0,0.0,0.0,0.0,0.0,0.0,0.0,0.0,0.0,0.0,0.0,0.0,0.0,0.0,0.0,0.0,0.0,0.0,-1.8611,-2.0784,-2.2648,-2.4022,-2.5119,-2.5976,-2.654,-2.6814,-2.7371,-2.8203,-2.8203,-2.864,-2.9519,-3.0083,-3.0333,-3.0352,-3.0871,-3.1275,-3.1525,-3.1237,-3.1602,-3.2262,-3.0891,-3.0333,-3.0217,-2.9038,-2.7212,0.0,-2.4904,-2.4082,-2.322,-2.3528,-2.3841,-2.4187,-2.4716,0.0,-2.6447,-2.7563,-2.8915,-3.0525,-3.2756,-3.4622,-3.6346,-3.8046,-3.9111,-3.9861,-4.0381,-4.0285,-3.9842,-3.9015,-3.8584,-3.8104,-3.7257,-3.7819,-3.9044,-4.1003,-4.2064,-4.3331,-4.5318,-4.5325,-4.5037,-4.4778,-4.4979,0.0,0.0,0.0,0.0,-4.5283,-4.5485,-4.5638,-4.5732,-4.5946,-4.6451,-4.7298,-4.7336,-4.774,-4.8567,-4.8567,-4.8721,-4.9029,-4.8702,-4.8567,-4.8548,-4.7721,-4.7173,-4.6865,-4.6317,-4.5893,-4.5594,-4.5594,-4.5594,-4.5594,-4.5594,-4.5594,-4.5594,-4.5594,-4.5594,-4.5594,0.0,0.0,0.0,0.0,0.0,0.0,0.0,0.0,0.0,0.0,0.0,0.0,0.0,0.0,0.0,0.0,0.0,0.0,-1.7785,-1.9423,-2.0753,-2.1597,-2.3137,-2.4006,-2.4045,-2.4786,-2.5606,-2.6472,-2.6467,-2.6948,-2.7838,-2.7838,-2.7857,-2.7895,-2.7895,-2.8319,-2.8992,-2.8222,-2.8357,-2.9011,-2.8126,-2.7799,-2.764,-2.5904,-2.5173,-2.4788,-2.2423,-2.1543,-2.1639,0.0,0.0,0.0,0.0,0.0,0.0,-2.8126,-2.9929,-3.2275,-3.3994,-3.568,-3.7373,-3.9008,-3.9996,-4.0535,-4.0458,-3.9804,-3.8957,-3.8007,-3.7103,-3.625,0.0,0.0,-3.6558,-3.9842,-4.0516,-4.1805,-4.5133,-4.4902,-4.4662,0.0,0.0,0.0,0.0,0.0,0.0,-4.5671,0.0,-4.597,-4.6846,-4.6904,-4.7298,-4.8144,-4.8163,-4.8586,-4.9452,-4.9471,-4.9875,-5.0693,-4.9856,-4.9471,-4.9433,-4.8567,-4.7759,-4.7019,-4.6942,-4.6432,-4.5671,-4.5614,-4.5594,-4.5594,-4.5594,-4.5594,-4.5594,-4.5594,-4.5594,-4.5594,0.0,0.0,0.0,0.0,0.0,0.0,0.0,0.0,0.0,0.0,0.0,0.0,0.0,0.0,0.0,0.0,0.0,0.0,0.0,-1.797,-1.9222,-2.0735,-2.1774,-2.2616,-2.3265,-2.3424,-2.3902,-2.4729,-2.4739,-2.5491,-2.6928,-2.6928,-2.7274,-2.7895,-2.7895,-2.8011,-2.8184,-2.7992,-2.8357,-2.8915,-2.6813,-2.6346,-2.6755,-2.5048,-2.3601,-2.2462,-2.2466,0.0,0.0,0.0,0.0,0.0,0.0,0.0,-3.0,0.0,0.0,-3.5038,-3.7373,-3.9219,-4.0615,-4.1046,-4.1316,-4.1143,-3.99,-3.8931,-3.7719,-3.561,-3.4487,-3.343,0.0,0.0,0.0,-3.8296,-4.0777,0.0,-4.5306,-4.5421,0.0,0.0,0.0,-4.5364,-4.5575,-4.5594,0.0,0.0,-4.597,-4.597,-4.6846,-4.6904,-4.7567,-4.9029,-4.9067,-4.949,-5.0366,-5.0366,-5.0481,-5.0712,-5.0481,-5.0366,-5.0346,-4.9471,-4.8952,-4.8682,-4.7451,-4.6778,-4.6528,-4.5883,-4.5594,-4.5594,-4.5594,-4.5594,-4.5594,-4.5594,-4.5594,-4.5594,0.0,0.0,0.0,0.0,0.0,0.0,0.0,0.0,0.0,0.0,0.0,0.0,0.0,0.0,0.0,0.0,0.0,0.0,0.0,-1.691,-1.7802,-1.8798,-1.9979,-2.0834,-2.1324,-2.2018,-2.2585,-2.3042,-2.3434,-2.4103,-2.5016,-2.5016,-2.5286,-2.575,-2.575,-2.575,-2.575,-2.575,-2.5996,0.0,0.0,-2.4527,-2.4793,-2.3471,-2.235,-2.1523,0.0,0.0,0.0,0.0,0.0,-2.8165,-2.9756,-3.0814,-3.1827,-3.3545,0.0,-3.7565,-3.9342,-4.1066,-4.2277,-4.1904,-4.1508,-4.0681,-3.8623,-3.7199,-3.5603,-3.3064,-3.1833,0.0,0.0,0.0,0.0,0.0,0.0,0.0,-4.469,-4.5364,-4.5594,0.0,-4.5594,0.0,-4.6124,-4.6163,-4.6528,0.0,-4.6644,-4.6701,-4.7932,-4.8009,-4.8606,-4.9933,-4.9971,-5.0212,-5.0712,-5.0712,-5.0712,-5.0712,-5.0712,-5.0712,-5.0673,-5.0183,-4.976,-4.9356,0.0,-4.7586,-4.6846,-4.6374,-4.5951,-4.5594,-4.5594,-4.5594,-4.5594,-4.5594,-4.5594,-4.5594,0.0,0.0,0.0,0.0,0.0,0.0,0.0,0.0,0.0,0.0,-1.2656,0.0,0.0,0.0,0.0,0.0,0.0,0.0,0.0,0.0,0.0,-1.6699,-1.8099,-1.8988,-1.9203,-2.0638,-2.1414,-2.1541,0.0,0.0,-2.2826,-2.2826,-2.2885,-2.3001,-2.3001,-2.3001,-2.3001,-2.3001,-2.2971,-2.2892,-2.2798,-2.2715,-2.2566,0.0,0.0,0.0,0.0,0.0,0.0,0.0,-2.8203,-2.8852,-3.141,-3.2756,-3.3757,-3.5481,-3.7642,-3.9669,-4.0593,-4.2027,-4.3047,-4.22,-4.1316,-3.995,-3.7173,-3.5238,-3.3276,-3.0615,0.0,-2.853,-2.7698,0.0,-3.1481,-3.4788,0.0,-4.0477,-4.3835,-4.496,-4.5479,-4.5594,-4.5594,-4.5932,-4.6817,-4.6904,-4.7278,-4.8202,-4.7625,-4.7875,-4.9317,-4.9394,-4.9798,-5.0673,-5.0712,-5.0712,-5.0712,-5.0712,-5.0712,-5.0712,-5.0712,-5.0712,-5.0712,-5.0712,-5.0289,-4.9567,-4.9452,-4.8509,-4.7038,-4.6942,-4.6394,-4.5594,-4.5594,-4.5594,-4.5594,-4.5594,-4.5594,-4.5594,0.0,0.0,0.0,0.0,0.0,0.0,0.0,0.0,0.0,0.0,-1.4258,-1.3945,0.0,0.0,0.0,0.0,0.0,0.0,0.0,0.0,0.0,-1.668,-1.6972,-1.7812,-1.9257,0.0,0.0,0.0,0.0,0.0,-2.1937,-2.1937,-2.2304,-2.3001,-2.3001,-2.3001,-2.3001,-2.3001,-2.2994,-2.2926,-2.2192,-2.1896,-2.1784,0.0,0.0,0.0,0.0,0.0,0.0,0.0,-2.9852,-3.1487,-3.4038,-3.5385,-3.6392,-3.8123,-3.9419,-4.065,-4.222,-4.3355,-4.3893,-4.3085,-4.222,-4.0546,-3.6596,-3.4372,0.0,0.0,0.0,-2.6774,-2.5904,-2.8308,0.0,-3.3987,0.0,0.0,0.0,0.0,-4.4778,0.0,0.0,0.0,0.0,0.0,0.0,0.0,0.0,-4.9086,-4.9375,-4.9394,-4.9798,-5.0673,-5.0712,-5.0712,-5.0712,-5.0712,-5.0712,-5.0712,-5.0712,-5.0712,-5.0712,-5.0712,-5.0616,-5.0442,-4.9702,0.0,-4.7836,-4.7173,-4.6394,-4.5594,-4.5594,-4.5594,-4.5594,-4.5594,-4.5594,-4.5594,0.0,0.0,0.0,0.0,0.0,0.0,0.0,-1.2596,-1.3672,-1.5801,-1.6504,-1.6465,-1.5547,-1.543,-1.5391,0.0,0.0,0.0,0.0,0.0,0.0,0.0,0.0,0.0,0.0,0.0,0.0,0.0,0.0,0.0,0.0,0.0,0.0,0.0,0.0,0.0,0.0,0.0,0.0,0.0,0.0,0.0,0.0,0.0,0.0,0.0,0.0,0.0,0.0,0.0,-2.9602,-3.1558,-3.4558,-3.6058,-3.7038,-3.8796,-4.0181,-4.145,-4.2758,-4.4008,-4.4662,-4.3412,-4.1797,-3.9373,-3.5122,0.0,0.0,0.0,0.0,-2.5808,-2.5385,0.0,0.0,0.0,0.0,0.0,0.0,0.0,0.0,0.0,0.0,0.0,0.0,0.0,0.0,0.0,0.0,-5.0067,-5.0067,-5.0067,-5.0269,-5.0693,-5.0712,-5.0712,-5.0712,-5.0712,-5.0712,-5.0712,-5.0712,-5.0712,-5.0712,-5.0712,-5.0712,-5.0654,-4.9779,-4.8913,-4.8048,-4.7231,-4.6394,-4.5594,-4.5594,-4.5594,-4.5594,-4.5594,-4.5594,-4.5594,0.0,0.0,0.0,0.0,0.0,0.0,0.0,-1.3648,-1.4921,-1.7206,-1.8398,-1.8574,-1.7383,-1.6484,-1.5801,0.0,0.0,0.0,0.0,0.0,0.0,0.0,0.0,0.0,0.0,0.0,0.0,0.0,0.0,0.0,0.0,0.0,0.0,0.0,0.0,0.0,0.0,0.0,0.0,0.0,0.0,0.0,0.0,0.0,0.0,0.0,0.0,0.0,0.0,0.0,-2.8639,-3.0381,-3.3224,-3.5192,-3.6769,-3.8507,-4.02,-4.1758,-4.2816,-4.4182,-4.496,-4.347,-4.1181,-3.8188,-3.3872,-3.0929,0.0,0.0,-2.5308,-2.5308,-2.5308,0.0,0.0,0.0,0.0,0.0,0.0,0.0,0.0,0.0,0.0,0.0,0.0,0.0,0.0,0.0,0.0,0.0,-5.0712,-5.0712,-5.0712,-5.0712,-5.0712,-5.0712,-5.0712,-5.0712,-5.0712,-5.0712,-5.0712,-5.0712,-5.0712,-5.0712,-5.0712,-5.0654,-4.9779,-4.8913,-4.8048,-4.7231,-4.6394,-4.5594,-4.5594,-4.5594,-4.5594,-4.5594,-4.5594,-4.5594,0.0,0.0,0.0,0.0,0.0,0.0,0.0,-1.4012,-1.5559,-1.9614,-1.8962,-1.8359,-1.8984,-1.8281,-1.7129,0.0,0.0,0.0,0.0,0.0,0.0,0.0,0.0,0.0,0.0,0.0,0.0,0.0,0.0,0.0,0.0,0.0,0.0,0.0,0.0,0.0,0.0,0.0,0.0,0.0,0.0,0.0,0.0,0.0,0.0,0.0,0.0,0.0,0.0,0.0,0.0,-2.8399,-2.9371,-3.241,-3.5942,-3.7623,0.0,0.0,-4.2643,-4.3739,-4.4201,-4.3316,-4.1181,-3.8188,-3.3872,0.0,0.0,-2.5827,-2.5308,-2.5308,-2.5308,-2.6077,0.0,0.0,0.0,0.0,0.0,0.0,0.0,0.0,0.0,0.0,0.0,0.0,0.0,0.0,0.0,0.0,-5.0712,-5.0712,-5.0712,-5.0712,-5.0712,-5.0712,-5.0712,-5.0712,-5.0712,-5.0712,-5.0712,-5.0712,-5.0712,-5.0712,-5.0712,-5.0654,-4.9779,0.0,0.0,-4.7231,-4.6394,-4.5594,-4.5594,-4.5594,-4.5594,-4.5594,-4.5594,-4.5594,0.0,0.0,0.0,0.0,0.0,0.0,-1.3612,-1.4052,-1.5459,-1.9215,-1.9558,-1.9389,-1.9208,-1.891,-1.7828,-1.5586,0.0,0.0,0.0,0.0,0.0,0.0,0.0,0.0,0.0,0.0,0.0,0.0,0.0,0.0,0.0,0.0,0.0,0.0,0.0,0.0,0.0,0.0,0.0,0.0,0.0,0.0,0.0,0.0,0.0,0.0,0.0,0.0,0.0,0.0,0.0,0.0,-2.7572,-2.9544,0.0,0.0,-3.6892,-3.87,-4.0931,-4.2527,-4.3374,-4.2527,-4.0008,-3.6892,-3.3641,0.0,-2.7794,-2.5731,-2.5308,-2.5308,-2.5308,-2.5577,-2.6327,0.0,-2.8679,-3.0698,0.0,0.0,0.0,0.0,0.0,0.0,0.0,0.0,0.0,0.0,0.0,0.0,-5.0712,-5.0712,-5.0712,-5.0712,-5.0712,-5.0712,-5.0712,-5.0712,-5.0712,-5.0712,-5.0712,-5.0712,-5.0712,-5.0712,-5.0712,-5.0616,-4.9221,0.0,0.0,-4.6663,-4.5913,-4.5594,-4.5594,-4.5594,-4.5594,-4.5594,-4.5594,-4.5594,0.0,0.0,0.0,0.0,0.0,-1.1026,-1.359,-1.4039,-1.531,-1.8728,-1.9464,-1.9526,-1.9161,-1.8731,-1.7721,-1.5915,-1.5547,0.0,0.0,0.0,0.0,0.0,0.0,0.0,0.0,0.0,0.0,0.0,-2.0977,0.0,0.0,0.0,0.0,0.0,0.0,0.0,0.0,0.0,0.0,0.0,0.0,0.0,0.0,0.0,0.0,0.0,0.0,0.0,0.0,0.0,0.0,0.0,0.0,0.0,0.0,0.0,-3.4668,-3.6536,-3.908,-4.0835,-4.1835,-4.1219,-3.8673,-3.5673,0.0,0.0,-2.7409,-2.5654,-2.5308,-2.5308,-2.5308,-2.5308,-2.5596,-2.6467,-2.7024,-2.8736,-3.2718,0.0,0.0,0.0,0.0,0.0,0.0,0.0,0.0,0.0,0.0,0.0,-5.0712,-5.0712,-5.0712,-5.0712,-5.0712,-5.0712,-5.0712,-5.0712,-5.0712,-5.0712,-5.0712,-5.0712,-5.0693,-5.0442,-5.0327,-5.0231,-4.849,0.0,0.0,-4.6182,-4.5594,-4.5594,-4.5594,-4.5594,-4.5594,-4.5594,-4.5594,-4.5594,0.0,0.0,0.0,0.0,0.0,0.0,-1.3517,-1.3962,-1.5233,-1.8647,-1.842,-1.8249,-1.9114,-1.7722,-1.6682,-1.6597,-1.5856,0.0,0.0,0.0,0.0,0.0,0.0,0.0,0.0,0.0,-2.1016,-2.1894,-2.1894,0.0,0.0,0.0,0.0,0.0,0.0,0.0,0.0,0.0,0.0,0.0,0.0,0.0,0.0,0.0,0.0,0.0,0.0,0.0,0.0,0.0,0.0,0.0,0.0,0.0,0.0,0.0,-3.2956,-3.4872,-3.735,-3.8661,-3.9342,-3.9342,-3.7392,-3.4846,0.0,-2.9737,-2.7409,-2.5654,-2.5308,-2.5308,-2.5308,-2.5308,-2.5596,-2.6467,-2.7986,-3.0262,-3.3705,0.0,0.0,0.0,0.0,0.0,0.0,0.0,0.0,0.0,0.0,0.0,-5.0712,-5.0712,-5.0712,-5.0712,-5.0712,-5.0712,-5.0712,-5.0712,-5.0712,-5.0712,-5.0712,-5.0712,-5.0673,-4.9798,-4.9413,-4.9317,0.0,0.0,0.0,-4.5951,-4.5594,-4.5594,-4.5594,-4.5594,-4.5594,-4.5594,-4.5594,-4.5594,0.0,0.0,0.0,0.0,0.0,0.0,0.0,-1.2723,-1.3918,-1.6135,-1.6734,-1.7269,-1.8076,-1.7217,-1.6549,-1.6524,-1.5844,0.0,0.0,0.0,0.0,0.0,0.0,0.0,0.0,-2.1035,-2.1621,-2.1894,-2.2441,-2.2852,-2.3105,0.0,0.0,0.0,0.0,0.0,0.0,0.0,0.0,0.0,0.0,0.0,0.0,0.0,0.0,0.0,0.0,0.0,0.0,0.0,0.0,0.0,0.0,0.0,0.0,-2.7815,0.0,0.0,-3.3395,-3.4797,-3.5732,-3.5091,-3.3468,-3.1654,-3.0237,-2.8409,-2.6697,-2.5538,-2.5308,-2.5308,-2.5308,-2.5308,-2.5962,-2.7986,-2.8742,0.0,0.0,0.0,0.0,0.0,0.0,0.0,0.0,0.0,0.0,0.0,0.0,0.0,-4.8913,-4.8913,-4.9471,-5.0654,-5.0712,-5.0712,-5.0712,-5.0712,-5.0712,-5.0693,-5.0087,-4.9798,-4.9779,-4.8913,-4.8509,0.0,0.0,-4.6904,-4.6827,-4.5951,-4.5594,-4.5594,-4.5594,-4.5594,-4.5594,-4.5594,-4.5594,-4.5594,0.0,0.0,0.0,0.0,0.0,0.0,0.0,-1.1853,-1.2813,-1.4497,-1.5173,-1.5965,-1.7122,-1.6532,-1.6176,-1.6502,-1.5832,0.0,0.0,0.0,0.0,0.0,0.0,0.0,-2.0586,-2.1133,-2.1719,-2.2344,-2.2871,-2.3457,-2.4062,-2.3789,-2.3184,0.0,0.0,0.0,0.0,0.0,0.0,0.0,0.0,0.0,0.0,0.0,0.0,0.0,0.0,0.0,0.0,0.0,0.0,0.0,0.0,0.0,0.0,0.0,-2.7507,0.0,0.0,-3.1861,-3.2759,-3.2183,-3.1003,-2.9762,-2.8878,-2.7615,-2.6386,-2.5471,-2.5308,-2.5308,-2.5308,-2.5308,-2.5827,-2.7409,-2.8222,0.0,0.0,0.0,0.0,0.0,0.0,0.0,0.0,0.0,0.0,0.0,0.0,0.0,-4.8105,-4.8105,-4.8606,-4.9683,-4.9721,-4.9721,-4.9721,-4.9721,-4.9721,-4.9702,-4.9163,-4.8913,-4.8875,-4.8029,-4.7663,0.0,0.0,-4.6413,0.0,-4.5825,-4.5594,-4.5594,-4.5594,-4.5594,-4.5594,-4.5594,-4.5594,-4.5594,0.0,0.0,0.0,0.0,0.0,0.0,0.0,-1.137,-1.1983,-1.3591,-1.386,-1.4536,-1.6215,-1.5743,-1.5627,-1.644,0.0,0.0,0.0,0.0,0.0,0.0,0.0,0.0,-2.0586,-2.0723,-2.1543,-2.3105,-2.3281,-2.418,-2.5684,-2.4863,-2.4023,-2.3164,-2.2344,0.0,0.0,0.0,0.0,0.0,0.0,0.0,0.0,0.0,0.0,0.0,0.0,0.0,0.0,0.0,0.0,0.0,0.0,0.0,0.0,0.0,0.0,0.0,0.0,-2.9632,0.0,0.0,-2.9638,-2.8829,-2.8016,-2.7207,0.0,-2.5481,-2.5303,-2.5337,-2.5462,-2.5385,-2.5423,-2.5788,-2.7159,0.0,0.0,0.0,0.0,0.0,0.0,0.0,0.0,0.0,0.0,0.0,0.0,0.0,-4.7913,-4.7913,-4.7913,-4.7913,-4.7913,-4.799,-4.8105,-4.8105,-4.8105,-4.8105,-4.8048,-4.8009,-4.799,-4.7182,-4.6817,0.0,-4.5951,-4.5594,-4.5594,-4.5594,-4.5594,-4.5594,-4.5594,-4.5594,-4.5594,-4.5594,-4.5594,-4.5594,0.0,0.0,0.0,0.0,0.0,0.0,0.0,0.0,0.0,0.0,-1.3519,-1.4305,-1.5385,-1.5376,-1.5382,0.0,0.0,0.0,0.0,0.0,0.0,0.0,0.0,0.0,-2.0605,-2.1914,-2.2754,-2.3105,-2.4453,-2.5312,-2.5703,-2.5488,-2.4922,-2.4062,-2.3242,-2.2031,0.0,0.0,0.0,0.0,0.0,0.0,0.0,0.0,0.0,0.0,0.0,0.0,0.0,0.0,0.0,0.0,0.0,0.0,0.0,0.0,-2.4238,-2.3984,-2.5228,0.0,-2.7603,-2.6878,-2.6534,-2.6337,0.0,-2.5929,-2.5692,-2.5426,0.0,0.0,-2.7045,-2.6192,-2.6577,0.0,0.0,0.0,0.0,0.0,0.0,0.0,0.0,0.0,0.0,0.0,0.0,0.0,0.0,-4.6191,-4.6191,-4.6191,-4.6191,-4.6191,-4.6191,-4.6797,-4.8086,-4.8105,-4.8105,-4.8086,-4.749,-4.7173,-4.7154,-4.6297,-4.5913,-4.5893,-4.5691,-4.5594,-4.5594,-4.5594,-4.5594,-4.5594,-4.5594,-4.5594,-4.5594,-4.5594,-4.5594,-4.5594,0.0,0.0,0.0,0.0,0.0,0.0,0.0,0.0,0.0,0.0,0.0,-1.3827,-1.5058,-1.526,0.0,0.0,0.0,0.0,0.0,0.0,0.0,0.0,0.0,-2.0195,-2.0586,-2.1914,-2.2773,-2.3105,-2.4453,-2.5312,-2.5703,-2.5703,-2.5234,-2.4355,-2.3144,-2.1855,0.0,0.0,0.0,0.0,0.0,0.0,0.0,0.0,0.0,0.0,0.0,-2.1836,0.0,-2.2988,-2.3984,-2.5019,0.0,0.0,0.0,0.0,-2.3223,-2.2812,-2.4062,-2.535,-2.6319,-2.6227,-2.6183,-2.6179,-2.6141,0.0,0.0,0.0,0.0,0.0,0.0,0.0,0.0,0.0,0.0,0.0,0.0,0.0,0.0,0.0,0.0,0.0,0.0,0.0,0.0,0.0,0.0,-4.5594,-4.5594,-4.5594,-4.5594,-4.5594,-4.5594,-4.6037,-4.6932,-4.6951,-4.6951,-4.6951,-4.6509,-4.6297,-4.6297,-4.5825,-4.5594,-4.5594,-4.5594,-4.5594,-4.5594,-4.5594,-4.5594,-4.5594,-4.5594,-4.5594,-4.5594,-4.5594,-4.5594,-4.5594,0.0,0.0,0.0,0.0,0.0,0.0,0.0,0.0,0.0,0.0,0.0,0.0,0.0,0.0,0.0,0.0,0.0,0.0,0.0,0.0,0.0,0.0,-1.9492,-1.9902,-2.0781,-2.1641,-2.248,-2.3301,-2.4297,-2.5176,-2.5898,-2.5898,-2.5293,-2.4141,-2.2715,-2.1523,0.0,0.0,0.0,0.0,0.0,0.0,0.0,0.0,0.0,0.0,0.0,0.0,0.0,-2.2539,-2.3477,-2.4355,-2.4102,0.0,0.0,0.0,0.0,0.0,-2.3906,-2.5039,-2.5879,-2.6621,-2.6894,-2.6952,-2.6766,0.0,0.0,0.0,0.0,0.0,0.0,0.0,0.0,0.0,0.0,0.0,0.0,0.0,0.0,0.0,0.0,0.0,0.0,0.0,0.0,0.0,0.0,-4.5594,-4.5594,-4.5594,-4.5594,-4.5594,-4.5594,-4.5594,-4.5594,-4.5594,-4.5594,-4.5594,-4.5594,-4.5594,-4.5594,-4.5594,-4.5594,-4.5594,0.0,0.0,-4.5594,-4.5594,-4.5594,-4.5594,-4.5594,-4.5594,-4.5594,-4.5594,-4.5594,-4.5594,0.0,0.0,0.0,0.0,0.0,0.0,0.0,0.0,0.0,0.0,0.0,0.0,0.0,0.0,0.0,0.0,0.0,0.0,0.0,0.0,0.0,-2.0241,-2.0369,-2.0801,-2.168,-2.2559,-2.3398,-2.4199,-2.5801,-2.668,-2.6797,-2.6797,-2.5586,-2.3379,-2.3066,-2.2051,-2.0605,-2.0605,0.0,0.0,0.0,0.0,0.0,0.0,0.0,0.0,0.0,0.0,0.0,-2.1191,-2.2519,-2.4141,-2.2734,0.0,0.0,0.0,0.0,0.0,-2.373,-2.5039,-2.5723,-2.5879,-2.6445,-2.6797,-2.6054,0.0,0.0,0.0,0.0,0.0,0.0,0.0,0.0,0.0,0.0,0.0,0.0,0.0,0.0,0.0,0.0,0.0,0.0,0.0,0.0,0.0,0.0,-4.5594,-4.5594,-4.5594,-4.5594,-4.5594,-4.5594,-4.5594,-4.5594,-4.5594,-4.5594,-4.5594,-4.5594,-4.5594,-4.5594,-4.5594,-4.5594,-4.5594,0.0,-4.5594,-4.5594,-4.5594,-4.5594,-4.5594,-4.5594,-4.5594,-4.5594,-4.5594,-4.5594,-4.5594,0.0,0.0,0.0,0.0,0.0,0.0,0.0,0.0,0.0,0.0,0.0,0.0,0.0,0.0,0.0,0.0,0.0,0.0,0.0,0.0,-1.8703,-2.043,-2.0984,-2.1442,-2.1894,-2.2754,-2.3828,-2.5098,-2.6387,-2.7246,-2.7695,-2.7226,-2.5644,-2.3203,-2.3125,-2.2168,-2.0605,-2.0605,0.0,0.0,0.0,0.0,0.0,0.0,0.0,0.0,0.0,0.0,0.0,0.0,-2.2363,-2.3574,-2.2832,0.0,0.0,0.0,0.0,0.0,-2.3184,-2.4355,-2.5215,-2.6172,-2.7773,-2.9004,-2.8594,0.0,0.0,0.0,0.0,0.0,0.0,0.0,0.0,0.0,0.0,0.0,0.0,0.0,0.0,0.0,0.0,0.0,0.0,0.0,0.0,0.0,0.0,0.0,-4.5594,-4.5594,-4.5594,-4.5594,-4.5594,-4.5594,-4.5594,-4.5594,-4.5594,-4.5594,-4.5594,-4.5594,-4.5594,-4.5594,-4.5594,-4.5594,0.0,-4.5594,-4.5594,-4.5594,-4.5594,-4.5594,-4.5594,-4.5594,-4.5594,-4.5594,-4.5594,-4.5612,0.0,0.0,0.0,0.0,0.0,0.0,0.0,0.0,0.0,0.0,0.0,0.0,0.0,0.0,0.0,0.0,0.0,0.0,0.0,-1.7514,-1.8662,-2.0387,-2.1306,-2.199,-2.2459,-2.3296,-2.4466,-2.595,-2.7048,-2.7831,-2.8281,-2.7402,-2.5644,-2.3203,-2.3125,-2.2168,-2.0605,-2.0605,-2.0605,0.0,0.0,0.0,0.0,0.0,0.0,0.0,0.0,0.0,0.0,0.0,0.0,0.0,0.0,0.0,0.0,-2.2363,-2.1562,-2.1328,-2.3262,-2.4082,-2.4863,-2.6816,0.0,-3.0156,-3.0762,-3.0742,0.0,0.0,0.0,0.0,0.0,0.0,0.0,0.0,0.0,0.0,0.0,0.0,0.0,0.0,0.0,0.0,0.0,0.0,0.0,0.0,0.0,0.0,-4.5594,-4.5594,-4.5594,-4.5594,-4.5594,-4.5594,-4.5594,-4.5594,-4.5594,-4.5594,-4.5594,-4.5594,-4.5594,-4.5594,-4.5594,-4.5594,-4.5594,-4.5594,-4.5594,-4.5594,-4.5594,-4.5594,-4.5635,-4.5665,-4.5665,-4.5665,-4.5665,-4.5669,0.0,0.0,0.0,0.0,0.0,0.0,0.0,0.0,0.0,0.0,0.0,0.0,0.0,0.0,0.0,0.0,0.0,0.0,0.0,-1.7831,-1.8619,-2.0233,-2.1218,-2.2479,-2.4099,-2.4929,-2.5795,-2.6717,-2.8471,-2.8974,-2.8281,-2.7402,-2.5644,-2.3203,-2.3125,-2.2168,-2.0605,-2.0605,-2.0605,-2.0605,0.0,0.0,0.0,0.0,0.0,0.0,0.0,0.0,0.0,0.0,0.0,0.0,0.0,0.0,-2.3164,-2.3047,-2.2441,-2.2344,-2.4844,-2.4961,-2.5019,-2.7578,-2.7734,0.0,-3.0351,-3.0273,0.0,-3.2734,0.0,0.0,0.0,0.0,0.0,0.0,0.0,0.0,0.0,0.0,0.0,0.0,0.0,0.0,0.0,0.0,0.0,0.0,0.0,0.0,-4.5594,-4.5594,-4.5594,-4.5594,-4.5594,-4.5594,-4.5594,-4.5594,-4.5594,-4.5594,-4.5594,-4.5594,-4.5594,-4.5594,-4.5594,-4.5594,-4.5594,-4.5594,-4.5594,-4.5594,-4.5594,-4.5612,-4.5733,-4.5819,-4.5876,-4.5876,-4.5876,-4.5876,0.0,0.0,0.0,0.0,0.0,0.0,0.0,0.0,0.0,0.0,0.0,0.0,0.0,0.0,0.0,0.0,0.0,0.0,0.0,-1.751,-1.8586,-2.0288,-2.1695,-2.2749,-2.3429,-2.4785,-2.619,-2.7601,-2.8841,-2.8746,-2.7413,-2.7081,-2.5875,-2.3945,-2.3926,-2.3281,-2.2187,-2.1641,-2.1406,-2.1367,-2.082,0.0,0.0,0.0,0.0,0.0,0.0,0.0,0.0,0.0,-2.1816,-2.2676,-2.2461,-2.3105,-2.3828,-2.3262,-2.2539,-2.2344,-2.4355,-2.5059,-2.5703,-2.7773,-2.8867,0.0,0.0,-3.3457,-3.4961,-3.7012,-3.7871,0.0,0.0,0.0,0.0,0.0,0.0,0.0,0.0,0.0,0.0,0.0,0.0,0.0,0.0,0.0,0.0,0.0,0.0,0.0,-4.5718,-4.5764,-4.5724,-4.5603,-4.5688,-4.5677,-4.5594,-4.5594,-4.5643,-4.5718,-4.5718,-4.5688,-4.5594,-4.5696,-4.5718,-4.5718,-4.5718,-4.5743,-4.5782,-4.5782,-4.5782,-4.5788,-4.5845,-4.5877,-4.5899,-4.5899,-4.5899,-4.5912,0.0,0.0,0.0,0.0,0.0,0.0,0.0,0.0,0.0,0.0,0.0,0.0,0.0,0.0,0.0,0.0,0.0,0.0,-1.6445,-1.7067,-1.8167,-1.9869,-2.1323,-2.2206,-2.2452,-2.4406,-2.6022,-2.7223,-2.8107,-2.7967,-2.6856,-2.6581,-2.5701,-2.4372,-2.4372,-2.3925,-2.3144,-2.2266,-2.1894,-2.1816,-2.0957,-2.0605,0.0,0.0,0.0,0.0,0.0,0.0,0.0,0.0,-2.1621,-2.2422,-2.2617,-2.3281,-2.3926,-2.3594,-2.3125,-2.2949,-2.4082,-2.4844,-2.5762,0.0,0.0,0.0,-3.4062,-3.6016,-3.7949,-4.0215,-4.0957,0.0,0.0,0.0,0.0,0.0,0.0,0.0,0.0,0.0,0.0,0.0,0.0,0.0,0.0,0.0,0.0,0.0,0.0,0.0,0.0,-4.5872,-4.5841,-4.5706,-4.5783,-4.5783,-4.5699,-4.5699,-4.5743,-4.5838,-4.5869,-4.5813,-4.5699,-4.579,-4.5838,-4.5838,-4.5838,-4.5855,-4.5899,-4.5899,-4.592,-4.5951,-4.5951,-4.5988,-4.6033,-4.6033,-4.6033,-4.6039,0.0,0.0,0.0,0.0,0.0,0.0,0.0,0.0,0.0,0.0,0.0,0.0,0.0,0.0,0.0,0.0,0.0,0.0,-1.6426,-1.6506,-1.7237,-1.8915,-1.9831,-2.0673,-2.1466,-2.3962,-2.5288,-2.5308,-2.6236,-2.6711,-2.6763,-2.5902,-2.5072,-2.431,-2.431,-2.3915,-2.3164,-2.2285,-2.1914,-2.1855,-2.0977,-2.0605,0.0,0.0,0.0,0.0,0.0,0.0,0.0,0.0,-2.1328,-2.1055,-2.3574,-2.3789,-2.3281,-2.4141,-2.4394,-2.4394,-2.4394,-2.4414,0.0,0.0,0.0,0.0,-3.6348,-3.7324,-3.8301,-4.1738,0.0,0.0,0.0,0.0,0.0,0.0,0.0,0.0,0.0,0.0,0.0,0.0,0.0,0.0,0.0,0.0,0.0,0.0,0.0,0.0,0.0,-4.5903,-4.5903,-4.5899,-4.5903,-4.5903,-4.5899,-4.5899,-4.5899,-4.5903,-4.6039,-4.6033,-4.5899,-4.5903,-4.5903,-4.5903,-4.5903,-4.5903,-4.5903,-4.5903,-4.5985,-4.6091,-4.6091,-4.6177,-4.6308,-4.6308,-4.6308,-4.6308,0.0,0.0,0.0,0.0,0.0,0.0,0.0,0.0,0.0,0.0,0.0,0.0,0.0,0.0,0.0,0.0,0.0,0.0,-1.5577,-1.6157,-1.6968,-1.8045,-1.9504,-2.0404,-2.0654,-2.1942,-2.3808,-2.6212,-2.5885,-2.5757,-2.5806,-2.4972,-2.4796,-2.5145,-2.5145,-2.5054,-2.4792,-2.3347,-2.31,-2.3535,-2.209,-2.1504,0.0,0.0,0.0,0.0,0.0,0.0,0.0,0.0,0.0,0.0,-2.2402,-2.3262,-2.3945,-2.3652,-2.3965,-2.4394,-2.4394,0.0,0.0,0.0,0.0,0.0,0.0,-3.9609,0.0,0.0,0.0,0.0,0.0,0.0,0.0,0.0,0.0,0.0,0.0,0.0,0.0,0.0,0.0,0.0,0.0,0.0,0.0,0.0,0.0,0.0,0.0,-4.612,-4.6087,-4.5907,-4.5992,-4.5992,-4.5899,-4.5899,-4.5959,-4.6042,-4.608,-4.6033,-4.5903,-4.5995,-4.6039,-4.6039,-4.6039,-4.6087,-4.6175,-4.6175,-4.6201,-4.6246,-4.6246,-4.6268,-4.6308,-4.6308,-4.6308,-4.6308,0.0,0.0,0.0,0.0,0.0,0.0,0.0,0.0,0.0,0.0,-1.5192,-1.5192,0.0,0.0,0.0,0.0,0.0,0.0,0.0,-1.6022,-1.6853,-1.7661,-1.9046,-2.01,-2.075,-2.1581,-2.3024,-2.5082,-2.4562,-2.4507,-2.4869,-2.4389,-2.4631,-2.5465,-2.5468,-2.5325,-2.5015,-2.4018,-2.3701,-2.3809,-2.2773,-2.2187,-2.1894,0.0,0.0,0.0,0.0,0.0,0.0,0.0,0.0,0.0,-2.1797,0.0,-2.3379,-2.3242,-2.3769,-2.4473,-2.4824,0.0,0.0,0.0,0.0,0.0,0.0,0.0,0.0,0.0,0.0,0.0,0.0,0.0,0.0,0.0,0.0,0.0,0.0,0.0,0.0,0.0,0.0,0.0,0.0,0.0,0.0,0.0,0.0,0.0,0.0,-4.6267,-4.6224,-4.6053,-4.6144,-4.6144,-4.605,-4.6069,-4.6108,-4.6175,-4.6175,-4.6144,-4.6053,-4.6145,-4.6175,-4.6175,-4.6175,-4.6224,-4.6308,-4.6308,-4.6308,-4.6308,-4.6308,-4.6308,-4.6308,-4.6308,-4.6308,-4.6308,0.0,0.0,0.0,0.0,0.0,0.0,0.0,0.0,0.0,0.0,-1.5192,-1.5192,0.0,0.0,0.0,0.0,0.0,0.0,0.0,-1.6022,-1.6853,-1.7661,-1.8684,-1.9988,-2.1581,-2.2312,-2.2682,-2.2682,-2.2682,-2.3163,-2.411,-2.4014,-2.4495,-2.5398,-2.5406,-2.4993,-2.4292,-2.4213,-2.3779,-2.3105,-2.3027,-2.2559,-2.1894,-2.1894,0.0,0.0,0.0,0.0,0.0,0.0,0.0,0.0,-2.1621,-2.1894,-2.2051,-2.2852,-2.3711,-2.459,0.0,0.0,0.0,0.0,0.0,0.0,0.0,0.0,0.0,0.0,0.0,0.0,0.0,0.0,0.0,0.0,0.0,0.0,0.0,0.0,0.0,0.0,0.0,0.0,0.0,0.0,0.0,0.0,0.0,0.0,0.0,-4.6308,-4.6308,-4.6308,-4.6308,-4.6308,-4.6308,-4.6308,-4.6308,-4.6308,-4.6308,-4.6308,-4.6308,-4.6308,-4.6308,-4.6308,-4.6308,-4.6308,-4.6308,-4.6308,-4.6308,-4.6308,-4.6308,-4.6308,-4.6308,-4.6308,-4.6308,-4.6308,0.0,0.0,0.0,0.0,0.0,0.0,0.0,0.0,0.0,0.0,0.0,0.0,0.0,0.0,0.0,0.0,0.0,0.0,0.0,-1.6022,-1.6853,-1.7661,-1.9792,-2.1446,-2.2509,-2.2023,-2.1773,-2.1773,-2.1773,-2.2586,-2.4091,-2.3394,-2.3916,-2.5398,-2.5406,-2.4993,-2.4252,-2.3626,-2.3291,-2.3125,-2.2422,-2.2051,-2.1894,-2.1894,-2.1367,0.0,0.0,0.0,0.0,0.0,0.0,0.0,-2.1621,-2.1894,-2.1934,-2.2129,-2.3223,-2.459,0.0,0.0,0.0,0.0,0.0,0.0,0.0,0.0,0.0,0.0,0.0,0.0,0.0,0.0,0.0,0.0,0.0,0.0,0.0,0.0,0.0,0.0,0.0,0.0,0.0,0.0,0.0,0.0,0.0,0.0,-4.6308,-4.6308,-4.6308,-4.6308,-4.6308,-4.6308,-4.6308,-4.6308,-4.6308,-4.6308,-4.6308,-4.6308,-4.6308,-4.6308,-4.6308,-4.6308,-4.6308,-4.6308,-4.6308,-4.6308,-4.6308,-4.6308,-4.6308,-4.6308,-4.6308,-4.6308,-4.6308,-4.6308,0.0,0.0,0.0,0.0,0.0,0.0,0.0,0.0,0.0,0.0,0.0,0.0,0.0,0.0,0.0,0.0,0.0,0.0,0.0,-1.6388,-1.7619,-1.8888,-2.06,-2.1523,-2.16,-2.1543,-2.1504,-2.1504,-2.1115,-2.1793,-2.3471,-2.3432,-2.4129,-2.5379,-2.4953,-2.4386,-2.3704,-2.3275,-2.29,-2.2578,-2.2539,-2.2266,-2.1894,-2.1894,-2.1367,-2.0605,-2.0605,0.0,0.0,0.0,0.0,0.0,0.0,0.0,-2.1367,-2.1777,-2.2812,-2.4199,0.0,0.0,0.0,0.0,0.0,0.0,0.0,0.0,0.0,0.0,0.0,0.0,0.0,0.0,0.0,0.0,0.0,0.0,0.0,0.0,0.0,0.0,0.0,0.0,0.0,0.0,0.0,0.0,0.0,-4.6308,-4.6308,-4.6308,-4.6308,-4.6308,-4.6308,-4.6308,-4.6308,-4.6308,-4.6308,-4.6308,-4.6308,-4.6308,-4.6308,-4.6308,-4.6308,-4.6308,-4.6308,-4.6308,-4.6308,-4.6308,-4.6308,-4.6308,-4.6308,-4.6308,-4.6308,-4.6308,-4.6308,-4.6308,0.0,0.0,0.0,0.0,0.0,0.0,0.0,0.0,0.0,0.0,0.0,0.0,0.0,0.0,0.0,0.0,0.0,0.0,0.0,-1.6772,-1.8484,-2.0212,-2.1077,-2.1254,-2.0731,-2.1235,-2.1504,-2.1504,-2.0827,-2.1446,-2.3235,-2.3663,-2.4418,-2.5379,-2.4658,-2.3888,-2.31,-2.3105,-2.2551,-2.1738,-2.2461,-2.2227,-2.1445,-2.1445,-2.0918,-2.0156,-2.0156,-2.0254,-2.0371,-2.0371,0.0,0.0,0.0,0.0,-2.0742,-2.1465,-2.2285,-2.3496,0.0,0.0,0.0,0.0,0.0,0.0,0.0,0.0,0.0,0.0,0.0,0.0,0.0,0.0,0.0,0.0,0.0,0.0,0.0,0.0,0.0,0.0,0.0,0.0,0.0,0.0,0.0,0.0,0.0,-4.6308,-4.6308,-4.6308,-4.6308,-4.6308,-4.6308,-4.6308,-4.6308,-4.6308,-4.6308,-4.6308,-4.6308,-4.6308,-4.6308,-4.6308,-4.6308,-4.6308,-4.6308,-4.6308,-4.6308,-4.6308,-4.6308,-4.6308,-4.6308,-4.6308,-4.6308,-4.6308,-4.6308,-4.6308,0.0,0.0,0.0,0.0,0.0,0.0,0.0,0.0,0.0,0.0,-1.5192,-1.5192,-1.5192,-1.5192,0.0,0.0,0.0,0.0,-1.5192,0.0,0.0,-2.0212,-2.1077,-2.1793,-2.2451,-2.1831,-2.1504,-2.1504,-2.1389,-2.2577,-2.4942,-2.3601,-2.3839,-2.5402,-2.5349,-2.4499,-2.3101,-2.3101,-2.2207,-2.0781,-2.0898,-2.043,-1.9648,-1.9648,-1.9102,-1.8359,-1.8359,-1.8828,-1.9473,-1.9473,-1.998,0.0,0.0,0.0,0.0,0.0,-2.1387,0.0,0.0,0.0,0.0,0.0,0.0,0.0,0.0,0.0,0.0,0.0,0.0,0.0,0.0,0.0,0.0,0.0,0.0,0.0,0.0,0.0,0.0,0.0,0.0,0.0,0.0,0.0,0.0,0.0,-4.6308,-4.6308,-4.6308,-4.6308,-4.6308,-4.6308,-4.6308,-4.6308,-4.6308,-4.6308,-4.6308,-4.6308,-4.6308,-4.6308,-4.6308,-4.6308,-4.6308,-4.6308,-4.6308,-4.6308,-4.6308,-4.6308,-4.6308,-4.6308,-4.6308,-4.6308,-4.6308,-4.6308,-4.6308,-4.6308,0.0,0.0,0.0,0.0,0.0,0.0,0.0,0.0,0.0,0.0,0.0,-1.5192,-1.5192,-1.5192,0.0,0.0,0.0,0.0,-1.5907,-1.7045,0.0,-1.9515,-2.0385,-2.0773,-2.0666,-2.0296,-2.0335,-2.0827,-2.0335,-2.1889,-2.5288,-2.4558,-2.5397,-2.7485,-2.6574,-2.5551,-2.4404,-2.2975,-2.1946,-2.1225,-2.0781,-2.0936,-2.1323,-2.039,-2.0371,-2.0723,-1.9742,-1.9666,-2.0019,-1.9996,-2.0252,-2.0605,0.0,0.0,0.0,0.0,0.0,0.0,0.0,0.0,0.0,0.0,0.0,0.0,0.0,0.0,0.0,0.0,0.0,0.0,0.0,0.0,0.0,0.0,0.0,0.0,0.0,0.0,0.0,0.0,0.0,0.0,0.0,0.0,0.0,0.0,-4.6308,-4.6308,-4.6308,-4.6308,-4.6308,-4.6308,-4.6308,-4.6308,-4.6308,-4.6308,-4.6308,-4.6308,-4.6308,-4.6308,-4.6308,-4.6308,-4.6308,-4.6308,-4.6308,-4.6308,-4.6308,-4.6308,-4.6308,-4.6308,-4.6308,-4.6308,-4.6308,-4.6308,-4.6308,-4.6308,0.0,0.0,0.0,0.0,0.0,0.0,0.0,0.0,0.0,0.0,0.0,0.0,-1.5192,0.0,0.0,0.0,0.0,0.0,-1.6138,0.0,0.0,0.0,-1.95,-1.9681,-1.9011,-1.8992,-1.9319,-1.9965,-1.9546,-2.1485,-2.5635,-2.5865,-2.7455,-3.0066,-2.8171,-2.6689,-2.5442,-2.3316,-2.2297,-2.208,-2.1481,-2.1852,-2.2726,-2.2128,-2.2402,-2.293,-2.14,-2.0873,0.0,0.0,0.0,0.0,0.0,0.0,0.0,0.0,0.0,0.0,0.0,0.0,0.0,0.0,0.0,0.0,0.0,0.0,0.0,0.0,0.0,0.0,0.0,0.0,0.0,0.0,0.0,0.0,0.0,0.0,0.0,0.0,0.0,0.0,0.0,0.0,0.0,0.0,-4.6308,-4.6308,-4.6308,-4.6308,-4.6308,-4.6308,-4.6308,-4.6308,-4.6308,-4.6308,-4.6308,-4.6308,-4.6308,-4.6308,-4.6308,-4.6308,-4.6308,-4.6308,-4.6308,-4.6308,-4.6308,-4.6308,-4.6308,-4.6308,-4.6308,-4.6308,-4.6308,-4.6308,-4.6308,-4.6308,0.0,0.0,0.0,0.0,0.0,0.0,0.0,0.0,0.0,0.0,0.0,0.0,-1.5192,-1.5192,-1.5192,-1.5192,0.0,0.0,0.0,0.0,0.0,0.0,0.0,0.0,-1.8992,-1.8992,-1.9011,-1.9069,-1.985,-2.2385,-2.6544,-2.7371,-2.9531,-3.2602,-3.0153,-2.7732,-2.5437,-2.4477,-2.3673,-2.3027,-2.2999,-2.2572,-2.2226,-2.4551,-2.4492,-2.3066,-2.2168,0.0,0.0,0.0,0.0,0.0,0.0,0.0,0.0,0.0,0.0,0.0,0.0,0.0,0.0,0.0,0.0,0.0,0.0,0.0,0.0,0.0,0.0,0.0,0.0,0.0,0.0,0.0,0.0,0.0,0.0,0.0,0.0,0.0,0.0,0.0,0.0,0.0,0.0,0.0,-4.6308,-4.6308,-4.6308,-4.6308,-4.6308,-4.6308,-4.6308,-4.6308,-4.6308,-4.6308,-4.6308,-4.6308,-4.6308,-4.6308,-4.6308,-4.6308,-4.6308,-4.6308,-4.6308,-4.6308,-4.6308,-4.6308,-4.6308,-4.6308,-4.6308,-4.6308,-4.6308,-4.6308,-4.6308,-4.6308,0.0,0.0,0.0,0.0,0.0,0.0,0.0,0.0,0.0,0.0,0.0,0.0,0.0,-1.6022,-1.5811,-1.525,-1.5192,0.0,0.0,0.0,0.0,0.0,0.0,0.0,-1.9,-1.8449,-1.8164,-1.8164,-1.8488,-2.0523,-2.4197,-2.5582,-2.7178,-2.8852,-2.9054,-2.868,-2.7709,-2.5205,0.0,0.0,-2.3853,-2.4681,-2.5871,-2.5759,-2.6719,-2.7871,0.0,0.0,0.0,0.0,0.0,0.0,-2.1253,-2.0294,-1.9096,-1.8538,0.0,0.0,0.0,0.0,0.0,0.0,0.0,0.0,0.0,0.0,0.0,0.0,0.0,0.0,0.0,0.0,0.0,0.0,0.0,0.0,0.0,0.0,0.0,0.0,0.0,0.0,0.0,0.0,0.0,0.0,0.0,-4.4629,-4.4629,-4.4629,-4.4629,-4.4629,-4.4629,-4.4629,-4.4629,-4.4629,-4.4629,-4.4629,-4.4629,-4.4922,-4.5469,-4.5469,-4.5762,-4.6308,-4.6308,-4.6308,-4.6308,-4.6308,-4.6308,-4.6308,-4.6308,-4.6308,-4.6308,-4.6308,-4.6308,-4.6308,0.0,0.0,0.0,0.0,0.0,0.0,0.0,0.0,-1.5849,-1.6426,0.0,0.0,0.0,0.0,-1.6676,-1.6099,-1.5792,-1.5635,-1.5635,-1.5907,0.0,0.0,0.0,0.0,0.0,-1.843,-1.7988,-1.7699,-1.7984,-1.9581,-2.2389,-2.3793,-2.539,-2.7044,-2.7318,-2.7779,0.0,0.0,0.0,-2.4696,0.0,0.0,-2.7807,-2.8786,-3.0059,0.0,0.0,0.0,0.0,0.0,0.0,0.0,-2.2311,-2.0548,-1.8537,-1.7672,-1.8205,0.0,0.0,0.0,0.0,0.0,0.0,0.0,0.0,0.0,0.0,0.0,0.0,0.0,0.0,0.0,0.0,0.0,0.0,0.0,0.0,0.0,0.0,0.0,0.0,0.0,0.0,0.0,0.0,0.0,0.0,0.0,-4.3691,-4.3691,-4.3691,-4.3691,-4.3691,-4.3691,-4.3691,-4.3691,-4.3691,-4.3691,-4.3691,-4.4004,-4.457,-4.4863,-4.5312,-4.5879,-4.6172,-4.6308,-4.6308,-4.6308,-4.6308,-4.6308,-4.6308,-4.6308,-4.6308,-4.6308,-4.6308,-4.6308,0.0,0.0,0.0,0.0,0.0,0.0,0.0,0.0,-1.6545,-1.6564,0.0,0.0,0.0,0.0,0.0,-1.7738,-1.7026,-1.6542,-1.6503,-1.5715,0.0,0.0,0.0,0.0,-1.9011,-1.9011,-1.8568,-1.7699,-1.8558,-1.9808,-2.1446,-2.2312,-2.4529,-2.7645,-2.5183,-2.5033,-2.6583,0.0,-2.6137,-2.5703,0.0,-2.7665,-2.7753,0.0,0.0,0.0,-3.3203,-3.238,0.0,-2.7994,0.0,0.0,0.0,-2.054,-1.7622,-1.6814,-1.7757,0.0,0.0,0.0,0.0,0.0,0.0,0.0,0.0,0.0,0.0,0.0,0.0,0.0,0.0,0.0,0.0,0.0,0.0,0.0,0.0,0.0,0.0,0.0,0.0,0.0,0.0,0.0,0.0,0.0,-4.3633,-4.3633,-4.3633,-4.3633,-4.3633,-4.3633,-4.3633,-4.3633,-4.3633,-4.3633,-4.3633,-4.3633,-4.3633,-4.3633,-4.3691,-4.4531,-4.4941,-4.5019,-4.5879,-4.6269,-4.6269,-4.6289,-4.6308,-4.6308,-4.6308,-4.6308,-4.6308,-4.6308,-4.6308,-4.6308,0.0,0.0,0.0,0.0,0.0,-1.7295,-1.7045,-1.7218,-1.7584,0.0,0.0,0.0,-1.8703,-1.8645,-1.8645,-1.8645,-1.8446,-1.7788,-1.658,-1.6272,-1.6599,-1.7641,-1.7699,-1.8392,-1.9908,-1.9319,-1.8568,-1.7699,-1.7946,-1.8623,-1.9704,-2.0581,-2.2139,-2.4202,-2.4125,-2.4017,-2.3874,-2.3854,0.0,0.0,-2.6496,-2.8693,0.0,0.0,0.0,0.0,0.0,-3.4961,-3.4354,0.0,-3.0664,-2.7761,0.0,0.0,-1.9404,-1.8558,-1.95,-2.0685,-2.0111,0.0,0.0,0.0,0.0,0.0,0.0,0.0,0.0,0.0,0.0,0.0,0.0,0.0,0.0,0.0,0.0,0.0,0.0,0.0,0.0,0.0,0.0,0.0,0.0,0.0,0.0,0.0,-4.1894,-4.1894,-4.1894,-4.1894,-4.1894,-4.1894,-4.1894,-4.1894,-4.1894,-4.1894,-4.1894,-4.1894,-4.1894,-4.2207,-4.2773,-4.3008,-4.3457,-4.4101,-4.498,-4.5351,-4.541,-4.6035,-4.6308,-4.6308,-4.6308,-4.6308,-4.6308,-4.6308,-4.6308,-4.6308,0.0,0.0,0.0,-1.8773,-1.8773,-1.8773,-1.8773,-1.9061,-1.9469,0.0,0.0,0.0,-2.0643,-2.0916,-2.0974,-2.0627,-1.9946,-1.9135,-1.8157,-1.7407,-1.7372,-1.8203,-1.8241,-1.8892,-2.0269,-1.9792,-1.9123,-1.8241,-1.8241,-1.8491,-1.9011,-1.9523,-2.0654,-2.2274,-2.2451,-2.2624,-2.2759,-2.2043,0.0,0.0,-2.7707,0.0,0.0,-3.4215,-3.6074,0.0,0.0,0.0,-3.6933,-3.5939,-3.3073,0.0,0.0,0.0,0.0,-2.0404,-2.1254,-2.2389,-2.1562,0.0,0.0,0.0,0.0,0.0,0.0,0.0,0.0,0.0,0.0,0.0,0.0,0.0,0.0,0.0,0.0,0.0,0.0,0.0,0.0,0.0,0.0,0.0,0.0,-4.1191,-4.1191,-4.1191,-4.1191,-4.1191,-4.1191,-4.1191,-4.1191,-4.1191,-4.1191,-4.1191,-4.1191,-4.1191,-4.1191,-4.1191,-4.1191,-4.1445,-4.1914,-4.2246,-4.2676,-4.3203,-4.4082,-4.4453,-4.4531,-4.5391,-4.5976,-4.6308,-4.6308,-4.6308,-4.6308,-4.6308,-4.6308,-4.6308,0.0,0.0,-2.0423,-2.0423,-2.05,-2.0577,-2.0577,-2.1177,-2.1639,0.0,-2.2389,-2.3047,-2.3336,-2.3894,-2.3913,-2.3144,-2.1543,-2.05,-2.0308,-1.8754,-1.818,-1.8972,-1.8992,-1.9411,-2.0288,-2.0308,-1.9869,-1.8992,-1.8992,-1.8992,-1.8992,-1.9,-1.9846,-2.135,-2.0615,-2.1139,-2.2451,0.0,0.0,-2.4752,-2.951,-3.1393,0.0,0.0,-3.873,-3.7889,-3.9213,-3.9337,-3.8665,-3.7527,-3.4361,0.0,0.0,0.0,0.0,0.0,-2.324,0.0,-2.3451,-2.3798,0.0,0.0,0.0,0.0,-2.6998,-2.7262,0.0,0.0,0.0,0.0,0.0,0.0,0.0,0.0,0.0,0.0,0.0,0.0,0.0,0.0,0.0,0.0,-4.0918,-4.0996,-4.1055,-4.1055,-4.1152,-4.1191,-4.1191,-4.1191,-4.1191,-4.1191,-4.1191,-4.1191,-4.1191,-4.1191,-4.1191,-4.1191,-4.1191,-4.1191,-4.1211,-4.1933,-4.2266,-4.2305,-4.3183,-4.3555,-4.3613,-4.4492,-4.5371,-4.6172,-4.6269,-4.6308,-4.6308,-4.6308,-4.6308,-4.6308,0.0,-2.0215,-2.1273,-2.1273,-2.185,-2.2312,-2.2312,-2.2451,-2.2547,-2.2547,-2.3317,-2.4625,-2.6683,-2.5793,-2.5,-2.4827,-2.3274,-2.1735,-2.0385,-1.9327,-1.8831,-1.8992,-1.8992,-1.9411,-2.0288,-2.0308,-1.9869,-1.8992,-1.8992,-1.8992,-1.8992,-1.8992,-1.9546,-2.0538,-2.0365,-2.0481,-2.0846,0.0,0.0,-2.533,-2.7152,0.0,-3.4969,-3.6265,-3.8218,-4.0226,-3.9847,-3.9994,-4.0124,-3.8576,-3.6054,-3.3209,0.0,0.0,0.0,-2.6101,0.0,-2.6972,-2.6101,0.0,0.0,0.0,0.0,0.0,0.0,-2.5877,0.0,0.0,0.0,0.0,0.0,0.0,0.0,0.0,0.0,0.0,0.0,0.0,0.0,0.0,0.0,0.0,-3.9101,-3.9746,-4.0156,-4.0156,-4.0801,-4.1191,-4.1191,-4.1191,-4.1191,-4.1191,-4.1191,-4.1191,-4.1191,-4.1191,-4.1191,-4.1191,-4.1191,-4.1191,-4.1211,-4.1367,-4.1426,-4.1484,-4.2305,-4.2656,-4.2715,-4.3594,-4.4473,-4.5312,-4.6035,-4.6308,-4.6308,-4.6308,-4.6308,-4.6308,-1.9735,-2.1004,-2.2158,-2.2158,-2.2874,-2.3586,-2.3985,-2.4043,-2.4351,-2.524,-2.6447,-2.7409,-2.7857,-2.7121,-2.6428,-2.5981,-2.4409,-2.2913,-2.1639,-2.0731,-2.0077,-1.9681,-1.9642,-2.0042,-2.0885,-2.05,-2.0273,-2.0258,-1.9415,-1.8992,-1.8992,-1.8992,-1.9469,-2.0327,-2.0712,-2.1139,-2.16,0.0,-2.3563,-2.5062,-2.8579,0.0,-3.5934,-3.7715,-3.9433,-4.0844,-4.0365,-4.0393,-4.0347,-3.8283,-3.6667,0.0,0.0,-3.1725,-3.066,0.0,-2.8788,-2.8871,-2.7582,0.0,0.0,-2.7198,0.0,0.0,0.0,0.0,0.0,0.0,0.0,0.0,0.0,0.0,0.0,0.0,0.0,0.0,0.0,0.0,0.0,0.0,0.0,0.0,-3.7949,-3.873,-3.9258,-3.9258,-3.9668,-4.0098,-4.0527,-4.0547,-4.0742,-4.1191,-4.1191,-4.1191,-4.1191,-4.1191,-4.1191,-4.1191,-4.1191,-4.1191,-4.1191,-4.1191,-4.1191,-4.1211,-4.1621,-4.1797,-4.1875,-4.2715,-4.3301,-4.3828,-4.5137,-4.5644,-4.5703,-4.6133,-4.6308,-4.623,-2.0462,-2.1658,-2.2759,-2.2586,-2.3548,-2.4509,-2.4981,-2.5192,-2.5981,-2.7876,-2.9313,-2.9813,-2.8967,-2.8717,-2.8409,-2.7852,-2.5837,-2.4356,-2.3817,-2.235,-2.1273,-2.0808,-2.0462,-2.0673,-2.1485,-2.0712,-2.0615,-2.1273,-1.9758,-1.8992,-1.8992,-1.8992,-1.9469,-2.0346,-2.1135,-2.2081,0.0,0.0,0.0,-2.6006,0.0,-3.3637,-3.4874,-3.8638,-4.0054,-4.0095,-4.0516,-4.0582,-4.0173,-3.8072,-3.7173,-3.6519,-3.416,-3.341,0.0,0.0,0.0,0.0,0.0,0.0,0.0,0.0,0.0,-2.6891,0.0,0.0,0.0,-2.6298,0.0,0.0,0.0,0.0,0.0,0.0,0.0,0.0,0.0,0.0,0.0,0.0,0.0,0.0,0.0,-3.7089,-3.7851,-3.8555,-3.826,-3.8533,-3.959,-3.9628,-4.0019,-4.0918,-4.0957,-4.1035,-4.1191,-4.1191,-4.1191,-4.1191,-4.1191,-4.1191,-4.1191,-4.1191,-4.1191,-4.1191,-4.1191,-4.1191,-4.125,-4.1894,-4.2168,-4.2344,-4.4062,-4.4746,-4.4824,-4.5547,-4.5801,-4.5703,-2.0462,-2.1658,-2.2566,-2.1773,-2.3596,-2.4942,-2.4336,-2.4832,-2.6173,-2.8646,-2.9127,-3.005,-3.2102,-3.1698,-3.1525,-3.2122,-2.8582,-2.6601,-2.728,-2.3678,-2.1793,-2.2489,-2.11,-2.0673,-2.1485,-2.0712,-2.0346,-2.0442,-1.9469,-1.8992,-1.8992,-1.8992,-1.9469,-2.0346,-2.1135,0.0,0.0,0.0,-2.6626,0.0,-3.2358,-3.1767,0.0,-3.5532,-3.7382,-3.7626,-3.9751,-4.0512,-4.0342,0.0,-3.8491,-3.7546,0.0,-3.5192,-3.4865,0.0,0.0,0.0,0.0,0.0,0.0,0.0,-3.0583,0.0,0.0,0.0,-2.7089,-2.575,0.0,0.0,0.0,0.0,0.0,0.0,0.0,0.0,0.0,0.0,0.0,0.0,0.0,0.0,0.0,-3.3423,-3.5208,-3.8359,-3.706,-3.6895,-3.8652,-3.8623,-3.9011,-4.0019,-4.0059,-4.043,-4.1191,-4.1191,-4.1191,-4.1191,-4.1191,-4.1191,-4.1191,-4.1191,-4.1191,-4.1191,-4.1191,-4.1191,-4.1211,-4.1308,-4.1348,-4.1504,-4.3183,-4.3848,-4.3867,-4.3965,-4.4004,-4.3984,-2.0365,-2.2062,-2.3124,-2.1735,-2.3615,-2.5019,-2.4221,-2.689,-2.9212,-2.9775,-3.1583,-3.3218,0.0,0.0,0.0,0.0,0.0,-2.9083,0.0,0.0,-2.3966,-2.2855,-2.212,-2.1908,-2.2254,-2.1427,-2.1,-2.1,-1.9661,-1.9007,-1.9004,-1.9011,-1.97,-2.1062,-2.2412,0.0,-2.6299,0.0,0.0,0.0,0.0,0.0,0.0,-3.6522,-3.9006,-3.9122,-4.0142,-4.0496,-4.0304,0.0,-3.8296,0.0,0.0,0.0,0.0,0.0,0.0,0.0,0.0,0.0,0.0,0.0,0.0,0.0,-2.7525,0.0,-2.6327,0.0,0.0,0.0,0.0,0.0,0.0,0.0,0.0,0.0,0.0,0.0,0.0,0.0,0.0,0.0,0.0,0.0,0.0,0.0,-3.4031,-3.4335,-3.6184,-3.6702,-3.7624,-3.9101,-3.9648,-4.0078,-4.0449,-4.0957,-4.1191,-4.1191,-4.1191,-4.1191,-4.1191,-4.1191,-4.1191,-4.1191,-4.1191,-4.1191,-4.1191,-4.1191,-4.1191,-4.1269,-4.1887,-4.2476,-4.3008,-4.3516,-4.3691,-4.3613,-2.0635,0.0,0.0,-2.1716,-2.3423,-2.4928,-2.4798,-2.7928,-3.041,-3.0712,-3.2923,0.0,-3.6058,-3.5064,0.0,0.0,-3.4673,-3.2295,0.0,0.0,-2.6332,-2.4947,-2.3548,0.0,0.0,-2.2293,-2.1504,-2.1504,-1.9815,-1.9123,-1.9342,-1.9104,-2.0027,-2.1927,-2.3432,-2.576,-2.8582,0.0,0.0,-3.0756,-3.1731,-3.2179,-3.2743,-3.7611,-3.99,-4.0496,-4.0496,-4.0496,-4.0285,-3.8834,-3.8354,0.0,-3.8084,0.0,0.0,0.0,0.0,0.0,-3.391,0.0,0.0,0.0,0.0,0.0,0.0,0.0,0.0,0.0,0.0,0.0,0.0,0.0,0.0,0.0,0.0,0.0,0.0,0.0,0.0,0.0,0.0,0.0,0.0,0.0,0.0,0.0,0.0,-3.1704,-3.3754,-3.4677,-3.5962,-3.7791,-3.8923,-3.9628,-3.9902,-4.0762,-4.1191,-4.1191,-4.1191,-4.1191,-4.1191,-4.1191,-4.1191,-4.1191,-4.1191,-4.1191,-4.1191,-4.1191,-4.1191,-4.1191,-4.1052,-4.1426,-4.2086,-4.2686,-4.2918,-4.2817,-2.1466,-2.1523,0.0,0.0,0.0,-2.4683,-2.6274,-2.6659,-2.7948,0.0,0.0,0.0,0.0,0.0,0.0,0.0,0.0,-3.65,-3.6423,0.0,-2.8544,-3.0096,-2.5428,-2.3947,0.0,0.0,-2.1504,-2.1504,-1.9815,-1.9431,-2.0231,-1.9392,-2.0339,-2.2797,-2.3706,-2.6414,-3.0327,-3.0327,-3.3173,-3.7603,-3.6815,-3.7969,-3.99,0.0,-3.8354,-4.0496,-4.0496,0.0,0.0,-3.9534,-3.9265,0.0,0.0,0.0,0.0,0.0,0.0,0.0,0.0,0.0,0.0,-3.1692,0.0,0.0,0.0,0.0,-2.853,0.0,0.0,0.0,0.0,0.0,-2.7544,-2.6697,-2.6582,0.0,0.0,0.0,0.0,0.0,0.0,0.0,0.0,0.0,0.0,0.0,-2.9066,0.0,-3.1832,-3.2742,-3.4045,-3.5932,-3.759,-3.8911,-3.9883,-4.0762,-4.1191,-4.1191,-4.1191,-4.1191,-4.1191,-4.1191,-4.1191,-4.1191,-4.1191,-4.1191,-4.1191,-4.1191,-4.1191,-4.1191,-4.1052,-4.1016,-4.1031,-4.0922,-4.0887,-4.0887,0.0,0.0,0.0,0.0,0.0,-2.5659,-2.7909,-2.9698,0.0,0.0,0.0,0.0,0.0,-4.0854,-4.1316,0.0,0.0,-3.9604,-3.8488,-3.4968,0.0,0.0,0.0,-2.7967,0.0,0.0,0.0,0.0,0.0,-2.1662,-2.1947,-2.1643,-2.2278,-2.3721,-2.5125,-2.7486,0.0,0.0,0.0,0.0,0.0,-3.8238,-4.0419,0.0,-3.9746,-4.0496,-4.0496,-4.0496,0.0,-4.0189,-3.9746,-3.9342,-3.9592,-3.8892,-3.8065,-3.8334,-3.8219,-3.7873,0.0,0.0,-3.7892,-3.391,0.0,0.0,0.0,0.0,0.0,0.0,0.0,0.0,0.0,0.0,-2.7601,-2.6736,-2.6601,-2.5909,0.0,0.0,0.0,0.0,0.0,0.0,0.0,0.0,0.0,0.0,-2.7627,0.0,-3.0093,-3.2034,-3.367,-3.4937,-3.6593,-3.7637,-3.7971,-3.9468,-4.0201,-4.022,-4.0877,-4.1191,-4.1191,-4.1191,-4.115,-4.1077,-4.1151,-4.115,-4.1078,-4.1151,-4.1191,-4.1171,-4.0957,-4.0867,-4.0864,-4.0813,-4.0797,-4.0789,-2.3317,0.0,0.0,0.0,0.0,0.0,0.0,0.0,0.0,0.0,-3.8219,0.0,-4.2816,0.0,-4.2951,0.0,-4.3489,-4.1854,-3.9861,-3.7911,0.0,-3.5584,-3.3103,0.0,0.0,0.0,0.0,0.0,0.0,-2.3543,-2.3259,-2.2951,-2.3413,-2.4586,0.0,-2.8192,0.0,0.0,-3.4661,0.0,0.0,-3.9027,0.0,0.0,-4.0496,-4.0496,0.0,-4.0496,-4.0496,-4.0496,-4.0169,-3.9823,-4.0342,-3.9765,-3.8931,-3.9227,-3.9104,-3.8757,-3.8161,-3.8642,0.0,-3.543,-3.4237,0.0,-2.9563,0.0,0.0,0.0,0.0,0.0,0.0,0.0,-2.8236,-2.7986,-2.7198,-2.5717,0.0,0.0,0.0,0.0,0.0,0.0,0.0,0.0,-2.5278,-2.5364,-2.5812,0.0,0.0,-3.0917,-3.2715,-3.3953,-3.5935,-3.6985,-3.6998,-3.8764,-3.9663,-3.9682,-4.0613,-4.1054,-4.1054,-4.1054,-4.1019,-4.0925,-4.1023,-4.1019,-4.0947,-4.1023,-4.1054,-4.1048,-4.0848,-4.0757,-4.0752,-4.0708,-4.0687,-4.0696,0.0,0.0,0.0,0.0,-2.6318,0.0,0.0,0.0,-3.4853,0.0,-3.8411,-4.0431,-4.2951,-4.322,-4.3874,-4.546,-4.4836,0.0,-4.092,-3.9958,0.0,0.0,-3.5872,-3.4872,-3.5673,0.0,0.0,0.0,0.0,0.0,-2.4206,-2.3336,-2.3774,-2.5346,-2.6212,0.0,-3.1795,-3.4346,-3.6949,-3.9438,-4.0189,-4.0496,-4.0496,-4.0554,-4.0554,-4.0554,-4.0516,-4.0496,-4.0496,-4.0496,-4.0496,-4.0496,-4.0496,-4.0496,-4.0342,-3.9573,-3.99,-4.015,-3.8565,-3.8719,-3.8757,-3.6288,-3.5615,0.0,0.0,0.0,-3.3859,0.0,0.0,0.0,0.0,0.0,0.0,-3.0096,-2.8115,-2.562,0.0,0.0,0.0,0.0,0.0,0.0,0.0,0.0,-2.3485,-2.5,-2.3755,0.0,0.0,-2.9429,-3.1158,-3.2962,-3.5466,-3.6823,-3.6926,-3.8622,-3.9497,-3.9536,-4.035,-4.0758,-4.0797,-4.0797,-4.0797,-4.0789,-4.0797,-4.0797,-4.0789,-4.0797,-4.0797,-4.0789,-4.074,-4.0692,-4.0667,-4.0545,-4.0496,-4.0496,-2.587,-2.7121,-2.8068,0.0,-2.7857,-2.8819,0.0,0.0,0.0,0.0,-4.1046,-4.2854,-4.4748,-4.496,-4.5133,-4.5556,-4.5402,0.0,0.0,0.0,0.0,-4.2662,-4.0246,-3.8707,-3.8334,-3.4334,0.0,-3.039,0.0,0.0,-2.5947,-2.5082,-2.4885,0.0,0.0,0.0,-3.0904,-3.3449,-3.6726,-4.0208,-4.0419,-4.0496,-4.0573,0.0,-4.147,-4.1373,-4.0727,-4.0496,-4.0496,-4.0496,-4.0496,-4.0496,-4.0496,-4.0496,-4.0458,-4.0246,-4.0342,-4.0419,-3.9977,-4.0015,-3.99,-3.8642,-3.7353,-3.6,0.0,0.0,0.0,0.0,0.0,0.0,0.0,0.0,0.0,-2.7948,-2.5986,-2.4509,0.0,0.0,0.0,0.0,0.0,0.0,0.0,0.0,-2.3413,-2.2538,-2.3827,0.0,0.0,0.0,-3.024,-3.1994,-3.3909,-3.52,-3.5873,-3.7021,-3.7929,-3.8564,-3.9485,-4.0217,-4.0797,-4.0797,-4.077,-4.0726,-4.0784,-4.077,-4.0726,-4.0784,-4.0797,-4.0789,-4.074,-4.0643,-4.0545,-4.0512,-4.0496,-4.0496,-2.7063,0.0,0.0,-3.1339,0.0,0.0,-3.3795,0.0,0.0,-4.0092,-4.2008,0.0,-4.4393,-4.5171,-4.5594,-4.5594,-4.5594,0.0,-4.4547,0.0,0.0,-4.3797,-4.2739,-4.1604,-4.0412,-3.7315,0.0,-3.1698,0.0,0.0,-2.6019,0.0,0.0,0.0,0.0,-2.8159,0.0,-3.3737,-3.7315,-4.0535,-4.0912,-4.1296,0.0,-4.2181,-4.2374,-4.2297,-4.1816,-4.1393,-4.1066,-4.1066,-4.0823,-4.0496,-4.0496,-4.0496,-4.0496,-4.0496,-4.0496,-4.0496,-4.0496,-4.0496,-4.04,-3.9938,-3.9084,-3.8046,-3.6873,-3.6949,-3.7007,0.0,-3.6411,-3.6526,0.0,0.0,0.0,0.0,0.0,0.0,0.0,0.0,0.0,0.0,0.0,0.0,0.0,0.0,0.0,0.0,0.0,0.0,0.0,0.0,-2.9896,-3.1641,-3.3333,-3.4622,-3.5481,-3.6363,-3.7243,-3.8112,-3.9032,-3.9885,-4.0674,-4.0674,-4.0647,-4.0616,-4.0653,-4.0641,-4.0623,-4.0659,-4.0674,-4.0663,-4.063,-4.0574,-4.0496,-4.0496,-4.0496,-4.0496,0.0,0.0,0.0,0.0,0.0,0.0,0.0,-3.7469,0.0,-4.0631,0.0,-4.3431,-4.3431,-4.4729,-4.5594,-4.5594,0.0,-4.4979,-4.3528,-4.4786,-4.496,-4.3489,-4.4105,-4.3739,-4.2154,-4.0277,0.0,0.0,0.0,0.0,-2.5462,0.0,0.0,0.0,0.0,0.0,0.0,-3.468,-3.8238,-4.0746,-4.1508,-4.2316,-4.3104,-4.322,-4.3258,-4.3278,-4.3393,-4.2797,-4.1962,-4.1962,-4.1393,-4.0669,-4.0669,-4.0593,-4.0496,-4.0496,-4.0496,-4.0496,-4.0496,-4.0496,-4.0496,-4.0496,-4.0496,-4.0131,-3.8661,-3.8334,-3.8334,-3.8334,-3.718,-3.6738,-3.8604,0.0,0.0,0.0,0.0,0.0,0.0,0.0,0.0,0.0,0.0,0.0,0.0,0.0,0.0,0.0,0.0,0.0,0.0,0.0,-2.9506,-3.1468,-3.316,-3.4507,-3.5481,-3.6192,-3.7026,-3.8007,-3.8757,-3.9611,-4.0496,-4.0496,-4.0496,-4.0496,-4.0496,-4.0496,-4.0496,-4.0496,-4.0496,-4.0496,-4.0496,-4.0496,-4.0496,-4.0496,-4.0496,-4.0496,0.0,0.0,0.0,0.0,0.0,-3.9258,-4.05,-4.0335,-4.0689,-4.2412,-4.4105,-4.5171,-4.5171,-4.5421,-4.5594,-4.5594,-4.5594,0.0,0.0,0.0,0.0,-4.5171,-4.5306,-4.4902,-4.3874,-4.0873,-3.7834,0.0,0.0,0.0,-2.6365,-2.5635,0.0,0.0,0.0,0.0,-3.2429,-3.543,0.0,-4.1585,-4.1731,-4.2316,-4.3162,-4.3835,-4.4085,-4.4182,-4.4902,-4.4182,-4.2874,-4.2874,-4.2297,-4.1566,-4.1566,-4.1085,-4.0496,-4.0496,-4.0496,-4.0496,-4.0496,-4.0496,-4.0496,-4.0496,-4.0496,-4.0419,-4.0131,-4.0054,-4.0054,-4.0054,-3.9823,-3.9123,-3.7469,0.0,0.0,0.0,0.0,0.0,0.0,0.0,0.0,0.0,0.0,0.0,0.0,0.0,0.0,0.0,0.0,0.0,0.0,0.0,-2.7404,0.0,-3.2256,-3.3891,0.0,0.0,-3.6481,-3.8007,-3.8142,-3.9027,-4.0496,-4.0496,-4.0496,-4.0496,-4.0496,-4.0496,-4.0496,-4.0496,-4.0496,-4.0496,-4.0496,-4.0496,-4.0496,-4.0496,-4.0496,-4.0496,0.0,0.0,0.0,0.0,0.0,0.0,0.0,-4.2854,0.0,-4.3104,-4.3797,-4.4297,-4.4297,-4.5075,-4.5594,-4.5594,-4.5594,-4.5594,-4.5594,-4.5594,-4.5594,-4.5594,-4.5594,0.0,-4.4316,-4.1873,-3.8931,-3.55,0.0,0.0,-2.6582,-2.5712,0.0,0.0,0.0,-2.9621,0.0,0.0,0.0,-4.1885,-4.2758,-4.3624,-4.4432,-4.4825,-4.4979,-4.5037,-4.546,-4.5075,-4.4335,-4.3874,-4.3162,-4.247,-4.247,-4.2181,-4.1758,-4.1316,-4.1162,-4.1085,-4.0631,-4.0496,-4.0496,-4.0496,-4.0496,-4.0496,-4.0496,-4.0496,-4.0496,-4.0496,-4.0496,-3.9592,-3.6615,-3.3673,0.0,0.0,0.0,0.0,0.0,0.0,0.0,0.0,0.0,0.0,0.0,0.0,0.0,0.0,0.0,0.0,0.0,0.0,-2.6654,0.0,0.0,0.0,-3.4814,0.0,-3.6346,-3.8007,-3.8007,-3.8873,-4.0496,-4.0496,-4.0496,-4.0496,-4.0496,-4.0496,-4.0496,-4.0496,-4.0496,-4.0496,-4.0496,-4.0496,-4.0496,-4.0496,-4.0496,-4.0496,0.0,-4.1208,0.0,0.0,-4.3085,0.0,-4.3912,-4.5163,-4.5528,-4.3855,-4.3624,-4.3624,-4.3624,-4.4806,-4.5594,-4.5594,-4.5594,-4.5594,-4.5594,-4.5594,-4.5594,-4.5594,-4.5594,-4.5287,-4.4586,-4.3104,-4.0346,0.0,0.0,0.0,-2.7101,-2.625,0.0,0.0,0.0,0.0,0.0,0.0,-3.9854,-4.245,-4.3778,-4.4816,-4.5594,-4.5594,-4.5594,-4.5594,-4.5594,-4.5594,-4.5498,-4.4797,-4.4028,-4.3355,-4.3355,-4.3239,-4.297,-4.2277,-4.2085,-4.1893,-4.1008,-4.0785,-4.0727,-4.0554,-4.0496,-4.0496,-4.0496,-4.0496,-4.0496,-4.0496,-4.0496,-3.9477,-3.6115,-3.4154,0.0,0.0,0.0,0.0,0.0,0.0,0.0,0.0,0.0,0.0,0.0,0.0,0.0,0.0,0.0,0.0,-2.274,-2.4235,-2.6217,0.0,0.0,-3.241,-3.3917,0.0,-3.6346,-3.8007,-3.8007,-3.8873,-4.0496,-4.0496,-4.0496,-4.0496,-4.0496,-4.0496,-4.0496,-4.0496,-4.0496,-4.0496,-4.0496,-4.0496,-4.0496,-4.0496,-4.0496,-4.0496,0.0,0.0,0.0,0.0,0.0,0.0,-4.6538,-4.7298,-4.7259,-4.5594,-4.5364,-4.5364,-4.5364,-4.5518,-4.5594,-4.5594,-4.5594,-4.5594,-4.5594,-4.5594,-4.5594,-4.5594,-4.5594,-4.5556,-4.5479,-4.4547,-4.2374,0.0,0.0,-3.2987,0.0,-2.8049,0.0,0.0,0.0,0.0,0.0,-3.8411,-4.1066,-4.4085,-4.4239,-4.4816,-4.5594,-4.5594,-4.5594,-4.5594,-4.5594,-4.5594,-4.5594,-4.5518,-4.4893,-4.4182,-4.4182,-4.3682,-4.3085,-4.3008,-4.2989,-4.2797,-4.1931,-4.1681,-4.1489,-4.0708,-4.0496,-4.0496,-4.0496,-4.0496,-4.0496,-4.0496,-4.0496,-3.9477,-3.6115,-3.6546,-3.5872,0.0,0.0,0.0,0.0,0.0,0.0,0.0,0.0,0.0,0.0,0.0,0.0,0.0,0.0,0.0,-2.272,-2.3701,-2.5375,-2.7934,-3.041,-3.2122,-3.3006,-3.4673,-3.6346,-3.8007,-3.8007,-3.8873,-4.0496,-4.0496,-4.0496,-4.0496,-4.0496,-4.0496,-4.0496,-4.0496,-4.0496,-4.0496,-4.0496,-4.0496,-4.0496,-4.0496,-4.0496,-4.0496,0.0,0.0,0.0,0.0,0.0,0.0,0.0,-4.7894,-4.7855,-4.7182,-4.7105,-4.7105,-4.7105,-4.6663,-4.6374,-4.6374,-4.5893,-4.5594,-4.5594,-4.5594,-4.5594,-4.5594,-4.5594,-4.5594,-4.5594,-4.4739,-4.3143,0.0,0.0,0.0,0.0,0.0,0.0,0.0,0.0,-3.6295,-3.9084,-4.0835,-4.2624,-4.4355,-4.4874,-4.5287,-4.5594,-4.5594,-4.5594,-4.5594,-4.5594,-4.5594,-4.5594,-4.5594,-4.5364,-4.5075,-4.5075,-4.4863,-4.4489,-4.397,-4.3816,-4.3643,-4.2816,-4.22,-4.1712,-4.1373,-4.0893,-4.0496,-4.0496,-4.0496,-4.0496,-4.0496,-4.0496,-3.9785,-3.743,-3.6738,-3.5827,-3.3788,0.0,0.0,0.0,0.0,0.0,0.0,0.0,0.0,0.0,0.0,0.0,0.0,0.0,0.0,0.0,-2.3124,-2.449,-2.7044,0.0,-3.1327,-3.2179,-3.4385,-3.6346,-3.8007,-3.8007,-3.8873,-4.0496,-4.0496,-4.0496,-4.0496,-4.0496,-4.0496,-4.0496,-4.0496,-4.0496,-4.0496,-4.0496,-4.0496,-4.0496,-4.0496,-4.0496,-4.0496,-4.8105,0.0,-4.7086,0.0,-4.7721,-4.7499,-4.8682,-4.8856,-4.8856,-4.8856,-4.8856,-4.8663,-4.8163,-4.7586,-4.725,-4.725,-4.6682,-4.622,-4.599,-4.597,-4.5883,-4.5614,-4.5594,0.0,-4.5594,-4.4998,-4.397,-4.2547,-3.9615,0.0,0.0,0.0,0.0,0.0,-3.7469,-3.9104,-4.1362,-4.2835,-4.3932,-4.4739,-4.5344,-4.5594,-4.5594,-4.5594,-4.5594,-4.5594,-4.5594,-4.5594,-4.5594,-4.5594,-4.5594,-4.5594,-4.5594,-4.5594,-4.5479,-4.4855,-4.4682,-4.4489,-4.3682,-4.3008,-4.2431,-4.1923,-4.1335,-4.0823,-4.0554,-4.0496,-4.0496,-4.0496,-4.0304,-3.9708,-3.8277,-3.6815,-3.5615,-3.4865,0.0,0.0,0.0,0.0,0.0,0.0,0.0,-2.5486,-2.4548,0.0,0.0,0.0,0.0,0.0,0.0,0.0,0.0,0.0,0.0,0.0,-3.2045,-3.4577,-3.6577,-3.8007,-3.8257,-3.9123,-4.0496,-4.0496,-4.0496,-4.0496,-4.0496,-4.0496,-4.0496,-4.0496,-4.0496,-4.0496,-4.0496,-4.0496,-4.0496,-4.0496,-4.0496,-4.0496,-4.8105,-4.8779,-4.9356,-4.9375,-5.0067,-5.0654,-5.0673,-5.0673,-5.0673,-5.0673,-5.0673,-5.001,-4.8298,-4.8086,-4.8086,-4.8086,-4.8086,-4.774,-4.6942,-4.6885,-4.6509,0.0,0.0,-4.5594,-4.5594,-4.5594,-4.5152,-4.4259,0.0,0.0,-3.9207,0.0,-3.7565,-3.9284,-4.0092,-4.1439,-4.3124,-4.3932,-4.4778,-4.5594,-4.5594,-4.5594,-4.5594,-4.5594,-4.5594,-4.5594,-4.5594,-4.5594,-4.5594,-4.5594,-4.5594,-4.5594,-4.5594,-4.5594,-4.5594,-4.5594,-4.5575,-4.5402,-4.4509,-4.4278,-4.3874,-4.222,-4.1788,-4.1566,-4.0708,-4.0496,-4.0496,-4.0496,-3.9881,-3.9053,-3.8161,-3.7276,-3.5865,-3.3333,0.0,0.0,0.0,0.0,0.0,0.0,-2.5664,-2.4432,-2.5212,0.0,0.0,0.0,0.0,0.0,0.0,0.0,0.0,-2.7799,-3.0352,0.0,-3.2872,-3.5411,-3.7142,-3.8007,-3.8873,-3.9708,-4.0496,-4.0496,-4.0496,-4.0496,-4.0496,-4.0496,-4.0496,-4.0496,-4.0496,-4.0496,-4.0496,-4.0496,-4.0496,-4.0496,-4.0496,-4.0496,-4.9875,-5.0087,-5.0289,-5.0289,-5.0519,-5.0712,-5.0712,-5.0712,-5.0712,-5.0712,-5.0712,-5.05,-4.9933,-4.9336,-4.899,0.0,-4.8432,-4.799,0.0,-4.7721,-4.7355,-4.6528,-4.649,-4.6201,-4.5614,-4.5594,-4.546,-4.519,0.0,0.0,0.0,-4.0442,-4.1085,-4.272,-4.297,-4.372,-4.4825,-4.5075,-4.5344,-4.5594,-4.5594,-4.5594,-4.5594,-4.5594,-4.5594,-4.5594,-4.5594,-4.5594,-4.5594,-4.5594,-4.5594,-4.5594,-4.5594,-4.5594,-4.5594,-4.5594,-4.5594,-4.5537,-4.5267,-4.4739,-4.4162,-4.3643,-4.2643,-4.1731,-4.145,-4.0931,-4.0496,-4.0496,-4.0304,-3.9688,-3.8257,-3.7777,-3.6949,-3.4981,-3.4641,0.0,-3.2333,0.0,0.0,0.0,-2.7184,-2.6313,0.0,-2.5346,0.0,0.0,0.0,0.0,0.0,0.0,0.0,0.0,-3.0891,0.0,-3.3782,-3.5718,-3.745,-3.8892,-3.9169,-3.9727,-4.0496,-4.0496,-4.0496,-4.0496,-4.0496,-4.0496,-4.0496,-4.0496,-4.0496,-4.0496,-4.0496,-4.0496,-4.0496,-4.0496,-4.0496,-4.0496,-5.0712,-5.0712,-5.0712,-5.0712,-5.0712,-5.0712,-5.0712,-5.0712,-5.0712,-5.0712,-5.0712,-5.0712,-5.0712,-5.0212,0.0,-4.9894,-4.9394,-4.8933,-4.8606,-4.8586,-4.8221,-4.7394,-4.7355,-4.7105,-4.6547,-4.624,0.0,-4.6086,-4.4701,-4.3758,-4.3239,-4.3239,-4.3797,-4.4778,-4.4778,-4.5094,-4.5594,-4.5594,-4.5594,-4.5594,-4.5594,-4.5594,-4.5594,-4.5594,-4.5594,-4.5594,-4.5594,-4.5594,-4.5594,-4.5594,-4.5594,-4.5594,-4.5594,-4.5594,-4.5594,-4.5594,-4.5594,-4.5594,-4.5594,-4.521,-4.4701,-4.4374,-4.3508,-4.2566,-4.1942,-4.1123,-4.0496,-4.0496,-4.0265,-3.9631,-3.8257,-3.7738,-3.7065,-3.5712,-3.4776,-3.3898,-3.3026,0.0,0.0,0.0,0.0,0.0,0.0,-2.7346,-2.7673,0.0,0.0,0.0,0.0,0.0,-2.8338,-2.9294,-3.2295,-3.4276,-3.5122,-3.6834,-3.8219,-3.9304,-3.9611,-4.0015,-4.0496,-4.0496,-4.0496,-4.0496,-4.0496,-4.0496,-4.0496,-4.0496,-4.0496,-4.0496,-4.0496,-4.0496,-4.0496,-4.0496,-4.0496,-4.0496,-5.0663,-5.0673,-5.0712,-5.0712,-5.0712,-5.0712,-5.0712,-5.0712,-5.0712,-5.0712,-5.0712,-5.0712,-5.0712,-5.0712,-5.0712,-5.0712,0.0,0.0,-4.9529,-4.949,-4.9106,-4.824,-4.8202,-4.8163,-4.8105,-4.7375,-4.6962,-4.6904,-4.6028,-4.5594,-4.5594,-4.5594,-4.5594,-4.5594,-4.5594,-4.5594,-4.5594,-4.5594,-4.5594,-4.5594,-4.5594,-4.5594,-4.5594,-4.5594,-4.5594,-4.5594,-4.5594,-4.5594,-4.5594,-4.5594,-4.5594,-4.5594,-4.5594,-4.5594,-4.5594,-4.5594,-4.5594,-4.5594,-4.5594,-4.5594,-4.5421,-4.4586,-4.4335,-4.3855,-4.2181,-4.1162,-4.0573,-4.0516,-3.99,-3.913,-3.8257,-3.7373,-3.65,-3.5635,-3.4718,-3.3821,-3.2949,-3.1462,0.0,0.0,0.0,0.0,-2.8165,-2.9544,-3.0135,0.0,0.0,0.0,0.0,0.0,-2.9352,-3.1795,-3.4288,-3.6,-3.6865,-3.8488,-3.9323,-3.94,-4.015,-4.0496,-4.0496,-4.0496,-4.0496,-4.0496,-4.0496,-4.0496,-4.0496,-4.0496,-4.0496,-4.0496,-4.0496,-4.0496,-4.0496,-4.0496,-4.0496,-4.0496,0.0,0.0,-5.0712,-5.0712,-5.0712,-5.0712,-5.0712,-5.0712,-5.0712,-5.0712,-5.0712,-5.0712,-5.0712,-5.0712,-5.0712,-5.0712,-5.0712,-5.0616,-5.0423,-5.0385,-4.999,-4.9125,-4.9086,-4.8779,-4.8105,-4.7913,-4.7528,-4.6904,-4.6028,-4.5594,-4.5594,-4.5594,-4.5594,-4.5594,-4.5594,-4.5594,-4.5594,-4.5594,-4.5594,-4.5594,-4.5594,-4.5594,-4.5594,-4.5594,-4.5594,-4.5594,-4.5594,-4.5594,-4.5594,-4.5594,-4.5594,-4.5594,-4.5594,-4.5594,-4.5594,-4.5594,-4.5594,-4.5594,-4.5594,-4.5594,-4.5556,-4.5344,-4.4778,-4.3855,-4.2181,-4.1643,-4.1296,-4.065,-4.0342,-3.9977,-3.915,-3.8277,-3.7219,-3.5731,-3.4218,-3.291,-3.2102,-3.1641,-3.1058,0.0,-3.1218,-3.1429,-2.9942,-3.0769,-3.1019,0.0,0.0,-3.0904,-3.1371,-3.1602,-3.2295,-3.3571,-3.543,-3.7161,-3.8661,-3.9092,-3.9611,-4.0227,-4.0419,-4.0496,-4.0496,-4.0496,-4.0496,-4.0496,-4.0496,-4.0496,-4.0496,-4.0496,-4.0496,-4.0496,-4.0496,-4.0496,-4.0496,-4.0496,-4.0496,-4.0496,-5.0919,-5.1103,-5.1329,-5.1526,-5.1568,-5.1623,-5.1817,-5.1837,-5.1702,-5.1298,-5.1241,-5.1106,-5.075,-5.0712,-5.0712,-5.0712,-5.0712,-5.0712,-5.0712,-5.0712,-5.05,-5.001,-4.999,-4.976,-4.9298,-4.8894,-4.8298,-4.7451,-4.6971,-4.6547,-4.6182,-4.6182,-4.597,-4.5594,-4.5594,-4.5594,-4.5594,-4.5594,-4.5594,-4.5594,-4.5594,-4.5594,-4.5594,-4.5594,-4.5594,-4.5594,-4.5594,-4.5594,-4.5594,-4.5594,-4.5594,-4.5594,-4.5594,-4.5594,-4.5594,-4.5594,-4.5594,-4.5594,-4.5594,-4.5594,-4.5594,-4.5594,-4.4932,-4.4066,-4.3143,-4.2354,-4.1681,-4.1181,-4.0785,-4.0215,-3.9246,-3.8386,-3.7231,-3.5433,-3.3699,-3.2325,-3.1626,-3.1403,-3.1202,-3.084,-3.2297,-3.2802,-3.1485,-3.2628,-3.2904,-3.1635,-3.2288,0.0,-3.2833,-3.3987,-3.4699,-3.4795,-3.643,-3.795,-3.9284,-3.9669,-4.0073,-4.0496,-4.0496,-4.0496,-4.0496,-4.0496,-4.0496,-4.0496,-4.0496,-4.0496,-4.0496,-4.0496,-4.0496,-4.0496,-4.0496,-4.0496,-4.0496,-4.0496,-4.0496,-4.0496,-5.1817,-5.1864,-5.2035,-5.242,-5.2492,-5.2622,-5.3048,-5.311,-5.2882,-5.2192,-5.2096,-5.1837,-5.1144,-5.1077,-5.102,-5.0894,-5.0875,-5.0827,-5.0712,-5.0712,-5.0712,-5.0712,-5.0712,-5.0712,-5.0712,-4.9856,-4.9048,-4.8298,-4.8163,-4.7759,-4.7077,-4.7077,-4.6682,-4.5979,-4.5845,-4.5806,-4.5787,-4.5671,-4.5594,-4.5594,-4.5594,-4.5594,-4.5594,-4.5594,-4.5594,-4.5594,-4.5594,-4.5594,-4.5594,-4.5594,-4.5594,-4.5594,-4.5594,-4.5594,-4.5594,-4.5594,-4.5594,-4.5594,-4.5594,-4.5594,-4.5594,-4.5594,-4.5037,-4.4451,-4.4335,-4.3201,-4.2115,-4.1846,-4.12,-4.0348,-3.9223,-3.8241,-3.6966,-3.5058,-3.3412,-3.2079,-3.123,0.0,-3.1325,-3.1418,-3.3018,-3.3826,-3.3086,-3.4561,-3.4985,-3.3635,-3.4822,-3.5343,-3.4735,-3.6101,-3.6635,-3.6096,-3.745,-3.8604,-3.9477,-4.0169,-4.0496,-4.0496,-4.0496,-4.0496,-4.0496,-4.0496,-4.0496,-4.0496,-4.0496,-4.0496,-4.0496,-4.0496,-4.0496,-4.0496,-4.0496,-4.0473,-4.0449,-4.0449,-4.0406,-4.0362,-5.1388,-5.1673,-5.1926,-5.2001,-5.2001,-5.2153,-5.2609,-5.2679,-5.2769,-5.2969,-5.301,-5.2953,-5.2837,-5.2818,-5.2529,-5.1769,-5.1712,-5.1433,-5.075,-5.0712,-5.0712,-5.0712,-5.0712,-5.0712,-5.0712,-4.9856,-4.9336,-4.9202,-4.8471,-4.8048,-4.7913,-4.7913,-4.7836,-4.7682,-4.7009,-4.6701,-4.6644,-4.5913,-4.5594,-4.5594,-4.5594,-4.5594,-4.5594,-4.5594,-4.5594,-4.5594,-4.5594,-4.5594,-4.5594,-4.5594,-4.5594,-4.5594,-4.5594,-4.5594,-4.5594,-4.5594,-4.5594,-4.5594,-4.5594,-4.5594,-4.5594,-4.5594,-4.5498,-4.521,-4.447,-4.4105,-4.3508,-4.2077,-4.1692,-4.1251,-4.011,-3.8642,-3.7011,-3.5246,-3.397,-3.2505,-3.0491,0.0,-3.2779,-3.2137,-3.414,-3.5528,-3.5395,-3.5594,-3.5945,-3.6417,-3.6283,-3.6408,-3.6951,-3.7506,-3.8084,-3.8681,-3.8957,-3.9496,-4.0304,-4.0439,-4.0496,-4.0496,-4.0496,-4.0496,-4.0496,-4.0496,-4.0496,-4.0496,-4.0496,-4.0496,-4.0496,-4.0496,-4.0496,-4.0496,-4.0496,-4.0364,-4.0158,-4.0158,-3.9983,-3.9746,-5.2318,-5.2474,-5.2678,-5.2888,-5.275,-5.2821,-5.352,-5.3627,-5.3514,-5.3242,-5.3397,-5.3353,-5.2912,-5.307,-5.3049,-5.2635,-5.2173,-5.1731,-5.1375,-5.0933,-5.0712,-5.0712,-5.0712,-5.0712,-5.0712,-5.0308,-5.0087,-5.0087,-4.9702,-4.926,-4.8798,-4.8798,-4.8548,-4.8086,-4.7721,-4.7548,-4.7528,-4.7124,-4.6951,-4.6951,-4.6951,-4.6682,-4.6297,-4.6297,-4.6009,-4.5594,-4.5594,-4.5594,-4.5577,-4.54,-4.5332,-4.5302,-4.5118,-4.5055,-4.5055,-4.5055,-4.5322,-4.5594,-4.5594,-4.5594,-4.5594,-4.5594,-4.5594,-4.5498,-4.5094,-4.4643,-4.4085,-4.3316,-4.2431,-4.1534,-4.0693,-3.9157,-3.7518,-3.5937,-3.454,-3.3153,-3.1796,-3.2772,-3.3529,-3.3301,-3.5083,-3.633,-3.633,-3.6427,-3.6666,-3.7062,-3.6871,-3.6896,-3.7256,-3.7842,-3.8356,-3.8747,-3.9523,-4.0131,-4.0496,-4.0496,-4.0496,-4.0496,-4.0356,-4.0276,-4.0286,-4.0101,-4.0024,-4.0024,-4.0024,-4.0024,-4.0024,-4.0024,-4.0024,-4.0024,-4.0024,-3.9944,-3.9819,-3.9819,-3.9742,-3.9599,-5.3185,-5.3185,-5.3295,-5.3624,-5.3402,-5.3462,-5.4223,-5.4338,-5.4129,-5.3585,-5.3779,-5.3721,-5.3112,-5.3413,-5.3558,-5.3366,-5.2834,-5.2287,-5.1783,-5.1188,-5.0765,-5.0573,-5.0472,-5.0421,-5.0421,-5.0421,-5.0421,-5.0421,-5.0421,-5.0076,-4.9433,-4.9525,-4.921,-4.8548,-4.8443,-4.8394,-4.8394,-4.8202,-4.8105,-4.8105,-4.8105,-4.774,-4.7173,-4.7173,-4.6759,-4.6172,-4.597,-4.5848,-4.5688,-4.5248,-4.5052,-4.4931,-4.467,-4.4593,-4.4593,-4.4593,-4.4966,-4.5362,-4.5362,-4.5429,-4.5476,-4.54,-4.5429,-4.5457,-4.54,-4.4844,-4.4298,-4.4106,-4.3043,-4.1857,-4.0932,-3.9561,-3.8078,-3.6607,0.0,-3.4115,-3.338,-3.393,-3.4365,-3.4395,-3.586,-3.6888,-3.6888,-3.7243,-3.7473,-3.7473,-3.7526,-3.7554,-3.7554,-3.8229,-3.8595,-3.8595,-3.97,-4.0283,-4.0283,-4.0283,-4.0283,-4.0283,-4.0091,-3.9992,-3.9982,-3.9731,-3.9599,-3.9599,-3.9599,-3.9599,-3.9599,-3.9599,-3.9599,-3.9599,-3.9599,-3.9552,-3.9474,-3.9474,-3.9445,-3.9402,-5.3185,-5.3185,-5.3206,-5.323,-5.3227,-5.3339,-5.3777,-5.3832,-5.3976,-5.4361,-5.444,-5.4437,-5.4381,-5.4719,-5.4632,-5.3836,-5.4097,-5.3462,-5.1481,-5.1285,-5.0923,-5.0186,-4.9787,-4.9594,-4.9594,-4.9594,-4.9594,-4.9594,-4.9594,-4.9556,-4.9495,-4.9867,-5.0014,-4.993,-4.9497,-4.9298,-4.924,-4.8432,-4.8105,-4.8105,-4.8105,-4.8067,-4.8009,-4.8009,-4.7971,-4.7817,-4.7067,-4.655,-4.6132,-4.5355,-4.4896,-4.4618,-4.4624,-4.4593,-4.4593,-4.4593,-4.4631,-4.467,-4.467,-4.4908,-4.5063,-4.4745,-4.4908,-4.5063,-4.4732,-4.4613,-4.4354,-4.3536,-4.329,-4.2624,-4.0704,-3.9642,-3.8516,-3.684,0.0,0.0,-3.4296,-3.5264,-3.5807,-3.5032,-3.6419,-3.7445,-3.7445,-3.8125,-3.8581,-3.8581,-3.8804,-3.8952,-3.8952,-3.9313,-3.9505,-3.9505,-3.9607,-3.9668,-3.9668,-3.9668,-3.9668,-3.9668,-3.9645,-3.9634,-3.9634,-3.9611,-3.9599,-3.9599,-3.9599,-3.9599,-3.9599,-3.9599,-3.9599,-3.9599,-3.9599,-3.9401,-3.9152,-3.9152,-3.8975,-3.878,-5.3185,-5.3185,-5.3185,-5.3185,-5.3185,-5.3251,-5.3402,-5.3442,-5.3484,-5.3681,-5.3906,-5.4066,-5.4066,-5.4449,-5.4583,-5.4261,-5.3903,-5.3361,-5.2523,-5.1959,-5.1102,-4.979,-4.9575,-4.9489,-4.9489,-4.9489,-4.9489,-4.9489,-4.9489,-4.9489,-4.9504,-4.9664,-4.9733,-4.9714,-4.9543,-4.9455,-4.9436,-4.91,-4.8967,-4.8967,-4.8967,-4.8643,-4.8168,-4.8168,-4.7851,-4.74,-4.7311,-4.7053,-4.66,-4.5811,-4.5275,-4.4849,-4.4141,-4.3915,-4.3915,-4.3915,-4.3915,-4.3915,-4.3915,-4.435,-4.4745,-4.4618,-4.4701,-4.4763,-4.4618,-4.4593,-4.4517,-4.4165,-4.368,-4.3011,-4.202,-4.1185,-4.0211,-3.8859,0.0,-3.743,-3.6399,-3.6701,-3.6923,-3.6597,-3.7551,-3.823,-3.823,-3.8524,-3.8707,-3.8707,-3.8788,-3.884,-3.884,-3.8984,-3.9036,-3.9036,-3.9036,-3.9216,-3.9599,-3.9599,-3.9599,-3.9599,-3.9377,-3.9289,-3.9276,-3.9127,-3.9036,-3.9036,-3.9036,-3.9036,-3.9036,-3.9036,-3.9036,-3.9036,-3.9036,-3.897,-3.884,-3.884,-3.8788,-3.8707,-5.3185,-5.3185,-5.3185,-5.3185,-5.3185,-5.3185,-5.3185,-5.3185,-5.3185,-5.3185,-5.3424,-5.3605,-5.3605,-5.4014,-5.4272,-5.4272,-5.386,-5.3443,-5.305,-5.2094,-5.101,-4.9746,-4.9599,-4.9388,-4.9126,-4.9108,-4.9108,-4.9108,-4.9108,-4.9108,-4.9142,-4.9249,-4.9311,-4.9311,-4.9445,-4.9489,-4.9489,-4.9489,-4.9489,-4.9489,-4.9489,-4.9131,-4.8603,-4.8603,-4.8268,-4.7787,-4.7745,-4.75,-4.7083,-4.6266,-4.5738,-4.5249,-4.4207,-4.3699,-4.3515,-4.3515,-4.3515,-4.3515,-4.3515,-4.3868,-4.4252,-4.4252,-4.4337,-4.4373,-4.428,-4.4252,-4.4252,-4.4252,-4.3774,-4.322,-4.2742,-4.2183,-4.1465,-4.0444,-3.9606,-3.8872,-3.8337,-3.8043,-3.7878,-3.7878,-3.8358,-3.8707,-3.8707,-3.8707,-3.8707,-3.8707,-3.8707,-3.8707,-3.8707,-3.8707,-3.8707,-3.8707,-3.8707,-3.8888,-3.9314,-3.9314,-3.9314,-3.9314,-3.9082,-3.8971,-3.8975,-3.8773,-3.8707,-3.8707,-3.8707,-3.8707,-3.8707,-3.8707,-3.8707,-3.8707,-3.8707,-3.8707,-3.8707,-3.8707,-3.8707,-3.8707,-5.3185,-5.3185,-5.3185,-5.3185,-5.3185,-5.3185,-5.3185,-5.3185,-5.3185,-5.3185,-5.3185,-5.3185,-5.3185,-5.3564,-5.3796,-5.3796,-5.4221,-5.3948,-5.2695,-5.1467,-5.0615,-5.0148,-4.9787,-4.9187,-4.8343,-4.8324,-4.8324,-4.8306,-4.8306,-4.8306,-4.8306,-4.871,-4.8897,-4.8913,-4.9311,-4.9489,-4.9489,-4.9489,-4.9489,-4.9489,-4.9489,-4.9489,-4.9489,-4.9489,-4.9489,-4.9376,-4.8513,-4.7995,-4.7574,-4.6703,-4.6198,-4.5773,-4.4966,-4.4158,-4.3515,-4.3515,-4.3515,-4.3515,-4.3515,-4.3515,-4.3515,-4.3515,-4.3758,-4.3912,-4.358,-4.3515,-4.3515,-4.3515,-4.3515,-4.3259,-4.2451,-4.2304,-4.2047,-4.1242,-4.0432,-3.99,-3.99,-3.9203,-3.8707,-3.8707,-3.8707,-3.8707,-3.8707,-3.8707,-3.8707,-3.8707,-3.8707,-3.8707,-3.8707,-3.8707,-3.8707,-3.8707,-3.8707,-3.8707,-3.8707,-3.8707,-3.8707,-3.8707,-3.8707,-3.8707,-3.8707,-3.8707,-3.8707,-3.8707,-3.8707,-3.8707,-3.8707,-3.8707,-3.8707,-3.8707,-3.8707,-3.8707,-3.8707,-3.8707,-3.8707,-3.8707,-5.3185,-5.3185,-5.3185,-5.3185,-5.3185,-5.3185,-5.3185,-5.3185,-5.3185,-5.3185,-5.3185,-5.3185,-5.3185,-5.3316,-5.338,-5.338,-5.3522,-5.3431,-5.305,-5.2684,-5.2167,-5.1463,-5.079,-5.005,-4.9224,-4.9225,-4.8912,-4.8306,-4.8306,-4.8306,-4.8306,-4.8421,-4.8477,-4.8477,-4.8604,-4.8658,-4.8658,-4.8658,-4.8658,-4.8658,-4.8658,-4.8658,-4.8658,-4.8658,-4.8658,-4.8655,-4.8681,-4.8441,-4.8034,-4.7495,-4.7067,-4.6599,-4.581,-4.4984,-4.4342,-4.4342,-4.3938,-4.3515,-4.3515,-4.3515,-4.3515,-4.3515,-4.358,-4.3612,-4.3513,-4.3515,-4.3515,-4.3515,-4.3515,-4.3441,-4.3185,-4.313,-4.2873,-4.2066,-4.1735,-4.1185,-4.0047,-3.968,-3.9331,-3.8781,-3.8707,-3.8707,-3.8707,-3.8707,-3.8707,-3.8707,-3.8707,-3.8707,-3.8707,-3.8707,-3.8707,-3.8707,-3.8707,-3.8707,-3.8707,-3.8707,-3.8707,-3.8707,-3.8707,-3.8707,-3.8707,-3.8707,-3.8707,-3.8707,-3.8707,-3.8707,-3.8707,-3.8707,-3.8707,-3.8707,-3.8707,-3.8707,-3.8707,-3.8707,-3.8707,-3.8707,-5.3185,-5.3185,-5.3185,-5.3185,-5.3185,-5.3185,-5.3185,-5.3185,-5.3185,-5.3185,-5.3185,-5.3185,-5.3185,-5.3185,-5.3185,-5.3185,-5.3185,-5.3185,-5.3185,-5.3185,-5.2986,-5.2509,-5.2013,-5.1224,-5.0086,-5.0068,-4.9811,-4.9297,-4.9297,-4.9132,-4.8802,-4.8783,-4.86,-4.8306,-4.8306,-4.8306,-4.8306,-4.8306,-4.8306,-4.8306,-4.8306,-4.8306,-4.8306,-4.8306,-4.8306,-4.8326,-4.8568,-4.8513,-4.8252,-4.8031,-4.7554,-4.7021,-4.6544,-4.5828,-4.5112,-4.4783,-4.436,-4.3901,-4.3589,-4.3515,-4.3515,-4.3515,-4.3515,-4.3515,-4.3515,-4.3515,-4.3515,-4.3515,-4.3515,-4.3515,-4.3515,-4.3515,-4.3332,-4.2837,-4.2506,-4.1956,-4.0983,-4.0579,-4.0084,-3.9276,-3.9166,-3.9056,-3.8726,-3.8707,-3.8707,-3.8707,-3.8707,-3.8707,-3.8707,-3.8707,-3.8707,-3.8707,-3.8707,-3.8707,-3.8707,-3.8707,-3.8707,-3.8707,-3.8707,-3.8707,-3.8707,-3.8707,-3.8707,-3.8707,-3.8707,-3.8707,-3.8707,-3.8707,-3.8707,-3.8707,-3.8707,-3.8707,-3.8707,-3.8707,-3.8707,-3.8707,-5.3185,-5.3185,-5.3185,-5.3185,-5.3185,-5.3185,-5.3185,-5.3185,-5.3185,-5.3185,-5.3185,-5.3185,-5.3185,-5.3185,-5.3185,-5.3185,-5.3185,-5.3185,-5.3185,-5.3185,-5.3185,-5.3185,-5.3185,-5.2527,-5.1059,-5.0949,-5.0875,-5.0802,-5.0802,-5.0417,-4.9721,-4.9627,-4.9224,-4.8526,-4.8453,-4.8416,-4.8416,-4.8343,-4.8306,-4.8306,-4.8306,-4.8306,-4.8306,-4.8306,-4.8306,-4.8306,-4.8306,-4.8306,-4.8306,-4.8306,-4.781,-4.7204,-4.7204,-4.6673,-4.5865,-4.5131,-4.4801,-4.4544,-4.3809,-4.3551,-4.3515,-4.3515,-4.3515,-4.3515,-4.3515,-4.3515,-4.3515,-4.3515,-4.3515,-4.3515,-4.3515,-4.3515,-4.3515,-4.3515,-4.2892,-4.2378,-4.2304,-4.168,-4.091,-4.0102,-4.001,-3.968,-3.8891,-3.8744,-3.8707,-3.8707,-3.8707,-3.8726,-3.8799,-3.8817,-3.8836,-3.8909,-3.8836,-3.8817,-3.8817,-3.8744,-3.8707,-3.8707,-3.8707,-3.8707,-3.8707,-3.8707,-3.8707,-3.8707,-3.8707,-3.8707,-3.8707,-3.8707,-3.8707,-3.8707,-3.8707,-3.8707,-3.8707,-3.8707,-3.8707,-3.8707,-5.3185,-5.3185,-5.3185,-5.3185,-5.3185,-5.3185,-5.3185,-5.3185,-5.3185,-5.3185,-5.3185,-5.3185,-5.3185,-5.3185,-5.3185,-5.3185,-5.3185,-5.3185,-5.3185,-5.3185,-5.3185,-5.3185,-5.3185,-5.3038,-5.2692,-5.2068,-5.1426,-5.0802,-5.0802,-5.071,-5.0545,-5.0527,-5.0435,-5.0233,-4.9591,-4.9335,-4.928,-4.86,-4.8306,-4.8306,-4.8306,-4.8306,-4.8306,-4.8306,-4.8306,-4.8306,-4.8306,-4.8306,-4.8306,-4.8306,-4.8196,-4.8049,-4.8049,-4.748,-4.6801,-4.6636,-4.5682,-4.4672,-4.4488,-4.3975,-4.3515,-4.3515,-4.3515,-4.3515,-4.3515,-4.3515,-4.3515,-4.3515,-4.3515,-4.3515,-4.3515,-4.3515,-4.3515,-4.3515,-4.3349,-4.302,-4.2396,-4.2158,-4.1754,-4.093,-4.0838,-4.0524,-3.9717,-3.9074,-3.8707,-3.8707,-3.8707,-3.8982,-3.9606,-3.9643,-3.9937,-4.0563,-3.9974,-3.9643,-3.9643,-3.9019,-3.8707,-3.8707,-3.8707,-3.8707,-3.8707,-3.8707,-3.8707,-3.8707,-3.8707,-3.8707,-3.8707,-3.8707,-3.8707,-3.8707,-3.8707,-3.8707,-3.8707,-3.8707,-3.8707,-3.8707,-5.3185,-5.3185,-5.3185,-5.3185,-5.3185,-5.3185,-5.3185,-5.3185,-5.3185,-5.3185,-5.3185,-5.3185,-5.3185,-5.3185,-5.3185,-5.3185,-5.3185,-5.3185,-5.3185,-5.3185,-5.3185,-5.3185,-5.3185,-5.3185,-5.3185,-5.2803,-5.238,-5.194,-5.194,-5.1756,-5.1371,-5.1371,-5.1169,-5.0784,-5.0362,-5.016,-5.0141,-4.9682,-4.9499,-4.9462,-4.9077,-4.8912,-4.8875,-4.8471,-4.8306,-4.8306,-4.8306,-4.8306,-4.8306,-4.8306,-4.8306,-4.8306,-4.8306,-4.8012,-4.759,-4.7204,-4.6507,-4.5682,-4.4911,-4.4397,-4.3975,-4.3606,-4.3515,-4.3515,-4.3515,-4.3515,-4.3515,-4.3515,-4.3515,-4.3515,-4.3515,-4.3515,-4.3515,-4.3515,-4.3515,-4.3349,-4.2928,-4.2873,-4.2561,-4.1772,-4.168,-4.1368,-4.0561,-4.0102,-3.9829,-3.9829,-3.9829,-4.0029,-4.0451,-4.0469,-4.0671,-4.1077,-4.0689,-4.0469,-4.0469,-4.0065,-3.9829,-3.9829,-3.9074,-3.8707,-3.8707,-3.8707,-3.8707,-3.8707,-3.8707,-3.8707,-3.8707,-3.8707,-3.8707,-3.8707,-3.8707,-3.8707,-3.8707,-3.8707,-3.8707,-3.8707,-5.3185,-5.3185,-5.3185,-5.3185,-5.3185,-5.3185,-5.3185,-5.3185,-5.3185,-5.3185,-5.3185,-5.3185,-5.3185,-5.3185,-5.3185,-5.3185,-5.3185,-5.3185,-5.3185,-5.3185,-5.3185,-5.3185,-5.3185,-5.3185,-5.3185,-5.3185,-5.3185,-5.3185,-5.3185,-5.2858,-5.2197,-5.2197,-5.1848,-5.1206,-5.1077,-5.1004,-5.1004,-5.0857,-5.0802,-5.0747,-5.0068,-4.9721,-4.9519,-4.8802,-4.8434,-4.8306,-4.8306,-4.8306,-4.8306,-4.8306,-4.8306,-4.8306,-4.8306,-4.8306,-4.8177,-4.7498,-4.7204,-4.6801,-4.5461,-4.4911,-4.4544,-4.3864,-4.3606,-4.3515,-4.3515,-4.3515,-4.3515,-4.3515,-4.3515,-4.3515,-4.3515,-4.3515,-4.3515,-4.3515,-4.3515,-4.3515,-4.3515,-4.3515,-4.324,-4.258,-4.2378,-4.2047,-4.137,-4.1168,-4.1095,-4.1095,-4.1095,-4.115,-4.1297,-4.1297,-4.137,-4.1499,-4.137,-4.1297,-4.1297,-4.1168,-4.1095,-4.1077,-3.9753,-3.9038,-3.8909,-3.8909,-3.8836,-3.8707,-3.8707,-3.8707,-3.8707,-3.8707,-3.8707,-3.8707,-3.8707,-3.8707,-3.8707,-3.8707,-3.8707,-3.8707,-5.3185,-5.3185,-5.3185,-5.3185,-5.3185,-5.3185,-5.3185,-5.3185,-5.3185,-5.3185,-5.3185,-5.3185,-5.3185,-5.3185,-5.3185,-5.3185,-5.3185,-5.3185,-5.3185,-5.3185,-5.3185,-5.3185,-5.3185,-5.3185,-5.3185,-5.3185,-5.3185,-5.3185,-5.3185,-5.313,-5.3041,-5.3041,-5.2986,-5.2837,-5.2142,-5.183,-5.1775,-5.1096,-5.0802,-5.0802,-5.0674,-5.0215,-4.9592,-4.9482,-4.8948,-4.8306,-4.8306,-4.8306,-4.8306,-4.8306,-4.8306,-4.8306,-4.8306,-4.8306,-4.8288,-4.8177,-4.7645,-4.7058,-4.6837,-4.5755,-4.4654,-4.4562,-4.4011,-4.3515,-4.3515,-4.3515,-4.3515,-4.3515,-4.3515,-4.3515,-4.3515,-4.3515,-4.3515,-4.3515,-4.3515,-4.3515,-4.3515,-4.3515,-4.346,-4.3349,-4.2708,-4.2268,-4.2158,-4.1499,-4.1095,-4.1095,-4.1095,-4.1389,-4.2103,-4.2139,-4.2451,-4.3149,-4.2506,-4.2139,-4.2139,-4.1444,-4.1095,-4.1095,-4.0875,-4.0414,-3.9735,-3.9735,-3.935,-3.8707,-3.8707,-3.8707,-3.8707,-3.8707,-3.8707,-3.8707,-3.8707,-3.8707,-3.8707,-3.8707,-3.8707,-3.8707,-5.3185,-5.3185,-5.3185,-5.3185,-5.3185,-5.3185,-5.3185,-5.3185,-5.3185,-5.3185,-5.3185,-5.3185,-5.3185,-5.3185,-5.3185,-5.3185,-5.3185,-5.3185,-5.3185,-5.3185,-5.3185,-5.3185,-5.3185,-5.3185,-5.3185,-5.3185,-5.3185,-5.3185,-5.3185,-5.3185,-5.3185,-5.3185,-5.3185,-5.3167,-5.2839,-5.2674,-5.2656,-5.2289,-5.2142,-5.2105,-5.1646,-5.1242,-5.0896,-5.0435,-5.0031,-4.9646,-4.9187,-4.871,-4.8306,-4.8306,-4.8306,-4.8306,-4.8306,-4.8306,-4.8306,-4.8306,-4.8048,-4.7663,-4.7223,-4.625,-4.5259,-4.4801,-4.4103,-4.3515,-4.3515,-4.3515,-4.3515,-4.3515,-4.3515,-4.3515,-4.3515,-4.3515,-4.3515,-4.3515,-4.3515,-4.3515,-4.3515,-4.3515,-4.3515,-4.3515,-4.3185,-4.2965,-4.2965,-4.2653,-4.2433,-4.2433,-4.2433,-4.2598,-4.2947,-4.2965,-4.313,-4.3496,-4.3149,-4.2965,-4.2965,-4.2616,-4.2433,-4.2433,-4.2433,-4.1772,-4.0561,-4.0102,-3.9698,-3.935,-3.8909,-3.8707,-3.8707,-3.8707,-3.8707,-3.8707,-3.8707,-3.8707,-3.8707,-3.8707,-3.8707,-3.8707]},{"header":{"parameterUnit":"m.s-1","parameterCategory":1,"la1":30.6,"la2":28.766,"lo1":-90.7593,"lo2":-88.6598,"dy":0.0162,"dx":0.0183,"nx":116,"ny":114,"refTime":"2024-05-30T06:00:00:Z","depth":0,"parameterNumber":3,"parameterNumberName":"V-component_of_WINDS"},"data":[0.0,0.0,0.0,0.0,0.0,0.0,0.0,0.0,0.0,0.0,0.0,0.0,0.0,0.0,0.0,0.0,0.0,0.0,0.0,0.0,0.0,0.0,0.0,0.0,0.0,0.0,0.0,0.0,0.0,0.0,0.0,0.0,0.0,0.0,0.0,0.0,0.0,0.0,0.0,0.0,0.0,0.0,0.0,0.0,0.0,0.0,0.0,0.0,0.0,0.0,0.0,0.0,0.0,0.0,0.0,0.0,0.0,0.0,0.0,0.0,0.0,0.0,0.0,0.0,0.0,0.0,0.0,0.0,0.0,0.0,0.0,0.0,0.0,0.0,0.0,0.0,0.0,0.0,0.0,0.0,0.0,0.0,0.0,0.0,0.0,0.0,0.0,0.0,0.0,0.0,0.0,0.0,0.0,0.0,0.0,0.0,0.0,0.0,0.0,0.0,0.0,0.0,0.0,0.0,0.0,0.0,0.0,0.0,0.0,0.0,0.0,0.0,0.0,0.0,0.0,0.0,0.0,0.0,0.0,0.0,0.0,0.0,0.0,0.0,0.0,0.0,0.0,0.0,0.0,0.0,0.0,0.0,0.0,0.0,0.0,0.0,0.0,0.0,0.0,0.0,0.0,0.0,0.0,0.0,0.0,0.0,0.0,0.0,0.0,0.0,0.0,0.0,0.0,0.0,0.0,0.0,0.0,0.0,0.0,0.0,0.0,0.0,0.0,0.0,0.0,0.0,0.0,0.0,0.0,0.0,0.0,0.0,0.0,0.0,0.0,0.0,0.0,0.0,0.0,0.0,0.0,0.0,0.0,0.0,0.0,0.0,0.0,0.0,0.0,0.0,0.0,0.0,0.0,0.0,0.0,0.0,0.0,0.0,0.0,0.0,0.0,0.0,0.0,0.0,0.0,0.0,0.0,0.0,0.0,0.0,0.0,0.0,0.0,0.0,0.0,0.0,0.0,0.0,0.0,0.0,0.0,0.0,0.0,0.0,0.0,0.0,0.0,0.0,0.0,0.0,0.0,0.0,0.0,0.0,0.0,0.0,0.0,0.0,0.0,0.0,0.0,0.0,0.0,0.0,0.0,0.0,0.0,0.0,0.0,0.0,0.0,0.0,0.0,0.0,0.0,0.0,0.0,0.0,0.0,0.0,0.0,0.0,0.0,0.0,0.0,0.0,0.0,0.0,0.0,0.0,0.0,0.0,0.0,0.0,0.0,0.0,0.0,0.0,0.0,0.0,0.0,0.0,0.0,0.0,0.0,0.0,0.0,0.0,0.0,0.0,0.0,0.0,0.0,0.0,0.0,0.0,0.0,0.0,0.0,0.0,0.0,0.0,0.0,0.0,0.0,0.0,0.0,0.0,0.0,0.0,0.0,0.0,0.0,0.0,0.0,0.0,0.0,0.0,0.0,0.0,0.0,0.0,0.0,0.0,0.0,0.0,0.0,0.0,0.0,0.0,0.0,0.0,0.0,0.0,0.0,0.0,0.0,0.0,0.0,0.0,0.0,0.0,0.0,0.0,0.0,0.0,0.0,0.0,0.0,0.0,0.0,0.0,0.0,0.0,0.0,0.0,0.0,0.0,0.0,0.0,0.0,0.0,0.0,0.0,0.0,0.0,0.0,0.0,0.0,0.0,0.0,0.0,0.0,0.0,0.0,0.0,0.0,0.0,0.0,0.0,0.0,0.0,0.0,0.0,0.0,0.0,0.0,0.0,0.0,0.0,0.0,0.0,0.0,0.0,0.0,0.0,0.0,0.0,0.0,0.0,0.0,0.0,0.0,0.0,0.0,0.0,0.0,0.0,0.0,0.0,0.0,0.0,0.0,0.0,0.0,0.0,0.0,0.0,0.0,0.0,0.0,0.0,0.0,0.0,0.0,0.0,0.0,0.0,0.0,0.0,0.0,0.0,0.0,0.0,0.0,0.0,0.0,0.0,0.0,0.0,0.0,0.0,0.0,0.0,0.0,0.0,0.0,0.0,0.0,0.0,0.0,0.0,0.0,0.0,0.0,0.0,0.0,0.0,0.0,0.0,0.0,0.0,0.0,0.0,0.0,0.0,0.0,0.0,0.0,0.0,0.0,0.0,0.0,0.0,0.0,0.0,0.0,0.0,0.0,0.0,0.0,0.0,0.0,0.0,0.0,0.0,0.0,0.0,0.0,0.0,0.0,0.0,0.0,0.0,0.0,0.0,0.0,0.0,0.0,0.0,0.0,0.0,0.0,0.0,0.0,0.0,0.0,0.0,0.0,0.0,0.0,0.0,0.0,0.0,0.0,0.0,0.0,0.0,0.0,0.0,0.0,0.0,0.0,0.0,0.0,0.0,0.0,0.0,0.0,0.0,0.0,0.0,0.0,0.0,0.0,0.0,0.0,0.0,0.0,0.0,0.0,0.0,0.0,0.0,0.0,0.0,0.0,0.0,0.0,0.0,0.0,0.0,0.0,0.0,0.0,0.0,0.0,0.0,0.0,0.0,0.0,0.0,0.0,0.0,0.0,0.0,0.0,0.0,0.0,0.0,0.0,0.0,0.0,0.0,0.0,0.0,0.0,0.0,0.0,0.0,0.0,0.0,0.0,0.0,0.0,0.0,0.0,0.0,0.0,0.0,0.0,0.0,0.0,0.0,0.0,0.0,0.0,0.0,0.0,0.0,0.0,0.0,0.0,0.0,0.0,0.0,0.0,0.0,0.0,0.0,0.0,0.0,0.0,0.0,0.0,0.0,0.0,0.0,0.0,0.0,0.0,0.0,0.0,0.0,0.0,0.0,0.0,0.0,0.0,0.0,0.0,0.0,0.0,0.0,0.0,0.0,0.0,0.0,0.0,0.0,0.0,0.0,0.0,0.0,0.0,0.0,0.0,0.0,0.0,0.0,0.0,0.0,0.0,0.0,0.0,0.0,0.0,0.0,0.0,0.0,0.0,0.0,0.0,0.0,0.0,0.0,0.0,0.0,0.0,0.0,0.0,0.0,0.0,0.0,0.0,0.0,0.0,0.0,0.0,0.0,0.0,0.0,0.0,0.0,0.0,0.0,0.0,0.0,0.0,0.0,0.0,0.0,0.0,0.0,0.0,0.0,0.0,0.0,0.0,0.0,0.0,0.0,0.0,0.0,0.0,0.0,0.0,0.0,0.0,0.0,0.0,0.0,0.0,0.0,0.0,0.0,0.0,0.0,0.0,0.0,0.0,0.0,0.0,0.0,0.0,0.0,0.0,0.0,0.0,0.0,0.0,0.0,0.0,0.0,0.0,0.0,0.0,0.0,0.0,0.0,0.0,0.0,0.0,0.0,0.0,0.0,0.0,0.0,0.0,0.0,0.0,0.0,0.0,0.0,0.0,0.0,0.0,0.0,0.0,0.0,0.0,0.0,0.0,0.0,0.0,0.0,0.0,0.0,0.0,0.0,0.0,0.0,0.0,0.0,0.0,0.0,0.0,0.0,0.0,0.0,0.0,0.0,0.0,0.0,0.0,0.0,0.0,0.0,0.0,0.0,0.0,0.0,0.0,0.0,0.0,0.0,0.0,0.0,0.0,0.0,0.0,0.0,0.0,0.0,0.0,0.0,0.0,0.0,0.0,0.0,0.0,0.0,0.0,0.0,0.0,0.0,0.0,0.0,0.0,0.0,0.0,0.0,0.0,0.0,0.0,0.0,0.0,0.0,0.0,0.0,0.0,0.0,0.0,0.0,0.0,0.0,0.0,0.0,0.0,0.0,0.0,0.0,0.0,0.0,0.0,0.0,0.0,0.0,0.0,0.0,0.0,0.0,0.0,0.0,0.0,0.0,0.0,0.0,0.0,0.0,0.0,0.0,0.0,0.0,0.0,0.0,0.0,0.0,0.0,0.0,0.0,0.0,0.0,0.0,0.0,0.0,0.0,0.0,0.0,0.0,0.0,0.0,0.0,0.0,0.0,0.0,0.0,0.0,0.0,0.0,0.0,0.0,0.0,0.0,0.0,0.0,0.0,0.0,0.0,0.0,0.0,0.0,0.0,0.0,0.0,0.0,0.0,0.0,0.0,0.0,0.0,0.0,0.0,0.0,0.0,0.0,0.0,0.0,0.0,0.0,0.0,0.0,0.0,0.0,0.0,0.0,0.0,0.0,0.0,0.0,0.0,0.0,0.0,0.0,0.0,0.0,0.0,0.0,0.0,0.0,0.0,0.0,0.0,0.0,0.0,0.0,0.0,0.0,0.0,0.0,0.0,0.0,0.0,0.0,0.0,0.0,0.0,0.0,0.0,0.0,0.0,0.0,0.0,0.0,0.0,0.0,0.0,0.0,0.0,0.0,0.0,0.0,0.0,0.0,0.0,0.0,0.0,0.0,0.0,0.0,0.0,0.0,0.0,0.0,0.0,0.0,0.0,0.0,0.0,0.0,0.0,0.0,0.0,0.0,0.0,0.0,0.0,0.0,0.0,0.0,0.0,0.0,0.0,0.0,0.0,0.0,0.0,0.0,0.0,0.0,0.0,0.0,0.0,0.0,0.0,0.0,0.0,0.0,0.0,0.0,0.0,0.0,0.0,0.0,0.0,0.0,0.0,0.0,0.0,0.0,0.0,0.0,0.0,0.0,0.0,0.0,0.0,0.0,0.0,0.0,0.0,0.0,0.0,0.0,0.0,0.0,0.0,0.0,0.0,0.0,0.0,0.0,0.0,0.0,0.0,0.0,0.0,0.0,0.0,0.0,0.0,0.0,0.0,0.0,0.0,0.0,0.0,0.0,0.0,0.0,0.0,0.0,0.0,0.0,0.0,0.0,0.0,0.0,0.0,0.0,0.0,0.0,0.0,0.0,0.0,0.0,0.0,0.0,0.0,0.0,0.0,0.0,0.0,0.0,0.0,0.0,0.0,0.0,0.0,0.0,0.0,0.0,0.0,0.0,0.0,0.0,0.0,0.0,0.0,0.0,0.0,0.0,0.0,0.0,0.0,0.0,0.0,0.0,0.0,0.0,0.0,0.0,0.0,0.0,0.0,0.0,0.0,0.0,0.0,0.0,0.0,0.0,0.0,0.0,0.0,0.0,0.0,0.0,0.0,0.0,0.0,0.0,0.0,0.0,0.0,0.0,0.0,0.0,0.0,0.0,0.0,0.0,0.0,0.0,0.0,0.0,0.0,0.0,0.0,0.0,0.0,0.0,0.0,0.0,0.0,0.0,0.0,0.0,0.0,0.0,0.0,0.0,0.0,0.0,0.0,0.0,0.0,0.0,0.0,0.0,0.0,0.0,0.0,0.0,0.0,0.0,0.0,0.0,0.0,0.0,0.0,0.0,0.0,0.0,0.0,0.0,0.0,0.0,0.0,0.0,0.0,0.0,0.0,0.0,0.0,0.0,0.0,0.0,0.0,0.0,0.0,0.0,0.0,0.0,0.0,0.0,0.0,0.0,0.0,0.0,0.0,0.0,0.0,0.0,0.0,0.0,0.0,0.0,0.0,0.0,0.0,0.0,0.0,0.0,0.0,0.0,0.0,0.0,0.0,0.0,0.0,0.0,0.0,0.0,0.0,0.0,0.0,0.0,0.0,0.0,0.0,0.0,0.0,0.0,0.0,0.0,0.0,0.0,0.0,0.0,0.0,0.0,0.0,0.0,0.0,0.0,0.0,0.0,0.0,0.0,0.0,0.0,0.0,0.0,0.0,0.0,0.0,0.0,0.0,0.0,0.0,0.0,0.0,0.0,0.0,0.0,0.0,0.0,0.0,0.0,0.0,0.0,0.0,0.0,0.0,0.0,0.0,0.0,0.0,0.0,0.0,0.0,0.0,0.0,0.0,0.0,0.0,0.0,0.0,0.0,0.0,0.0,0.0,0.0,0.0,0.0,0.0,0.0,0.0,0.0,0.0,0.0,0.0,0.0,0.0,0.0,0.0,0.0,0.0,0.0,0.0,0.0,0.0,0.0,0.0,0.0,0.0,0.0,0.0,0.0,0.0,0.0,0.0,0.0,0.0,0.0,0.0,0.0,0.0,0.0,0.0,0.0,0.0,0.0,0.0,0.0,0.0,0.0,0.0,0.0,0.0,0.0,0.0,0.0,0.0,0.0,0.0,0.0,0.0,0.0,0.0,0.0,0.0,0.0,0.0,0.0,0.0,0.0,0.0,0.0,-0.7126,0.0,0.0,0.0,0.0,0.0,0.0,0.0,0.0,0.0,0.0,0.0,0.0,0.0,0.0,0.0,0.0,0.0,0.0,0.0,0.0,0.0,0.0,0.0,0.0,-0.1856,-0.1889,-0.1889,-0.1889,-0.1889,-0.1889,0.0,0.0,0.0,0.0,0.0,-0.1803,-0.1867,-0.1972,-0.2132,-0.2273,-0.2467,-0.2737,-0.269,-0.2556,-0.2333,0.0,0.0,0.0,0.0,0.0,0.0,0.0,0.0,0.0,0.0,0.0,0.0,0.0,0.0,0.0,0.0,0.0,0.0,0.0,0.0,0.0,0.0,0.0,0.0,0.0,0.0,0.0,0.0,0.0,0.0,0.0,0.0,0.0,0.0,0.0,0.0,0.0,0.0,0.0,0.0,0.0,0.0,0.0,0.0,0.0,0.0,0.0,0.0,0.0,0.0,0.0,0.0,0.0,0.0,0.0,0.0,0.0,0.0,0.0,0.0,0.0,0.0,0.0,0.0,0.0,0.0,0.0,0.0,0.0,0.0,0.0,-0.7932,0.0,0.0,0.0,0.0,0.0,0.0,0.0,0.0,0.0,0.0,0.0,0.0,0.0,0.0,0.0,0.0,0.0,0.0,0.0,0.0,0.0,-0.1746,-0.1829,-0.1933,-0.2019,-0.2082,-0.2053,-0.2039,-0.2039,-0.1906,0.0,0.0,0.0,-0.1833,-0.1833,-0.1998,-0.2235,-0.2539,-0.2757,-0.3039,-0.3383,-0.3477,-0.329,-0.2928,-0.2849,0.0,0.0,0.0,0.0,0.0,0.0,0.0,0.0,0.0,0.0,0.0,0.0,0.0,0.0,0.0,0.0,0.0,0.0,0.0,0.0,0.0,0.0,0.0,0.0,0.0,0.0,0.0,0.0,0.0,0.0,0.0,0.0,0.0,0.0,0.0,0.0,0.0,0.0,0.0,0.0,0.0,0.0,0.0,0.0,0.0,0.0,0.0,0.0,0.0,0.0,0.0,0.0,0.0,0.0,0.0,0.0,0.0,0.0,0.0,0.0,0.0,0.0,0.0,-1.0807,-1.1075,-1.1229,-1.147,-1.1542,-1.1462,-1.01,-0.9512,-0.9471,-0.8864,0.0,0.0,0.0,0.0,0.0,0.0,0.0,0.0,0.0,0.0,0.0,0.0,0.0,0.0,0.0,0.0,0.0,0.0,0.0,-0.1528,-0.1927,-0.1985,-0.2113,-0.2415,-0.2279,-0.2167,-0.2167,-0.2053,0.0,0.0,-0.1909,-0.1981,-0.1981,-0.228,-0.251,-0.2669,-0.3215,-0.3576,-0.3737,-0.387,-0.39,-0.3802,-0.3393,-0.3155,-0.2996,0.0,0.0,0.0,0.0,0.0,0.0,0.0,0.0,0.0,0.0,0.0,0.0,0.0,0.0,0.0,0.0,0.0,0.0,0.0,0.0,0.0,0.0,0.0,0.0,0.0,0.0,0.0,0.0,0.0,0.0,0.0,0.0,0.0,0.0,0.0,0.0,0.0,0.0,0.0,0.0,0.0,-0.5788,-0.6667,0.0,0.0,0.0,0.0,0.0,0.0,0.0,0.0,0.0,0.0,0.0,0.0,0.0,-1.0405,-1.0701,-1.1463,-1.177,-1.1678,-1.2234,-1.2382,-1.2131,-1.2171,-1.2184,-1.2191,-1.2254,0.0,-1.0695,-0.986,0.0,0.0,0.0,0.0,0.0,0.0,0.0,0.0,0.0,0.0,0.0,0.0,0.0,0.0,0.0,0.0,0.0,0.0,0.0,0.0,0.0,-0.2258,-0.2598,-0.2826,-0.2831,-0.2757,-0.2609,-0.2472,-0.2283,-0.2036,-0.2077,-0.2161,-0.2287,-0.257,-0.2965,-0.3432,-0.3951,-0.4236,-0.43,-0.4453,-0.4496,-0.449,-0.4291,-0.3933,-0.348,-0.3162,0.0,0.0,0.0,0.0,0.0,0.0,0.0,0.0,0.0,0.0,0.0,0.0,0.0,0.0,0.0,0.0,0.0,0.0,0.0,0.0,0.0,0.0,0.0,0.0,0.0,0.0,0.0,0.0,0.0,0.0,0.0,0.0,0.0,0.0,0.0,0.0,0.0,0.0,0.0,-0.6094,-0.7013,-0.7248,-0.7484,-0.7477,0.0,0.0,0.0,0.0,0.0,0.0,0.0,0.0,0.0,-1.0695,-1.1129,-1.1631,-1.2231,-1.2625,-1.2913,-1.3159,-1.354,-1.3674,-1.3554,-1.3721,-1.3836,-1.3836,-1.3761,-1.336,-1.2639,-1.145,-1.0561,-0.9973,0.0,0.0,0.0,0.0,-0.8543,-0.8777,0.0,0.0,0.0,0.0,0.0,0.0,0.0,0.0,0.0,0.0,0.0,0.0,-0.2065,-0.2569,-0.2993,-0.3249,-0.3307,-0.3253,-0.3093,-0.2849,-0.2581,-0.2346,-0.2299,-0.2361,-0.2553,-0.2938,-0.3463,-0.4134,-0.4507,-0.4711,-0.4752,-0.4867,-0.4887,-0.4887,-0.4887,-0.4585,-0.4002,-0.3684,-0.3366,-0.3107,0.0,0.0,0.0,0.0,0.0,0.0,0.0,0.0,0.0,0.0,0.0,0.0,0.0,0.0,0.0,0.0,0.0,0.0,0.0,0.0,0.0,0.0,0.0,0.0,0.0,0.0,0.0,0.0,0.0,0.0,0.0,0.0,0.0,0.0,0.0,0.0,0.0,-0.72,-0.807,-0.7859,-0.8429,-0.861,0.0,0.0,0.0,0.0,0.0,0.0,-1.0521,-1.0948,-1.1491,-1.2228,-1.2432,-1.2866,-1.354,-1.3621,-1.3881,-1.4315,-1.4529,-1.4636,-1.4643,-1.4908,-1.5008,-1.4995,-1.473,-1.4509,-1.4202,-1.2792,-1.1864,-1.1276,-1.0768,-1.0388,-1.0099,-0.9844,-1.0079,-1.0571,0.0,0.0,0.0,0.0,0.0,0.0,0.0,0.0,0.0,0.0,0.0,-0.1932,-0.2759,-0.2878,-0.3137,-0.3707,-0.3529,-0.3451,-0.3559,-0.3024,-0.2689,-0.2675,-0.2551,-0.2544,-0.2682,-0.3399,-0.3999,-0.4467,-0.4638,-0.4765,-0.4877,-0.4884,-0.4887,-0.4887,-0.4887,-0.4816,-0.4626,-0.4301,-0.4001,-0.3707,-0.3246,0.0,0.0,0.0,0.0,0.0,0.0,0.0,0.0,0.0,0.0,0.0,0.0,0.0,0.0,0.0,0.0,0.0,0.0,0.0,0.0,0.0,0.0,0.0,0.0,0.0,0.0,0.0,0.0,0.0,0.0,0.0,0.0,0.0,0.0,0.0,0.0,0.0,0.0,-0.8744,-0.9499,0.0,0.0,0.0,0.0,-1.0439,-1.074,-1.1149,-1.1785,-1.2362,-1.2831,-1.3133,-1.3955,-1.4409,-1.4412,-1.4736,-1.4934,-1.4961,-1.4981,-1.4988,-1.4988,-1.5001,-1.5008,-1.5008,-1.4995,-1.4981,-1.4874,-1.3634,-1.2786,-1.2204,-1.194,-1.1603,-1.1342,-1.1635,-1.1784,-1.1824,0.0,0.0,0.0,0.0,0.0,-0.0056,-0.0234,-0.0335,-0.0541,-0.0918,-0.1496,-0.2054,-0.259,-0.3145,-0.3643,-0.4024,-0.4098,-0.4034,-0.3873,-0.3483,-0.3279,-0.3279,-0.3037,-0.309,-0.3534,-0.4013,-0.4378,-0.4638,-0.4853,-0.4972,-0.5026,-0.5159,-0.5235,-0.5235,-0.5235,-0.5118,-0.4924,-0.4657,-0.4335,-0.4038,-0.3778,-0.3384,0.0,0.0,0.0,0.0,0.0,0.0,0.0,0.0,0.0,0.0,0.0,0.0,0.0,0.0,0.0,0.0,0.0,0.0,0.0,0.0,0.0,0.0,0.0,0.0,0.0,0.0,0.0,0.0,0.0,0.0,0.0,0.0,0.0,0.0,0.0,0.0,0.0,-0.9923,-1.0541,0.0,-1.0636,-1.1009,-1.1323,-1.143,-1.2031,-1.2592,-1.2954,-1.3567,-1.4028,-1.4329,-1.4643,-1.4897,-1.5084,-1.519,-1.5337,-1.5518,-1.5518,-1.5518,-1.5518,-1.5518,-1.5518,-1.5518,-1.5518,-1.5418,-1.5211,-1.479,-1.4155,-1.342,-1.3126,-1.2832,-1.2585,-1.2692,-1.2732,-1.2746,0.0,0.0,0.0,0.0,0.0,-0.0056,-0.0234,-0.0268,-0.0472,-0.1058,-0.1607,-0.218,-0.2858,-0.3487,-0.3988,-0.4267,-0.4362,-0.4307,-0.4085,-0.3819,-0.3651,-0.3604,-0.3385,-0.3512,-0.4058,-0.4365,-0.4614,-0.484,-0.5005,-0.5127,-0.5209,-0.5347,-0.5395,-0.5395,-0.5395,-0.5337,-0.5196,-0.4999,-0.4745,-0.4429,-0.425,-0.3931,-0.3541,0.0,0.0,0.0,0.0,0.0,0.0,0.0,0.0,0.0,0.0,0.0,0.0,0.0,0.0,0.0,0.0,0.0,0.0,0.0,0.0,0.0,0.0,0.0,0.0,0.0,0.0,0.0,0.0,0.0,0.0,0.0,0.0,0.0,0.0,0.0,-1.0526,-1.0713,-1.1577,-1.2061,-1.1891,-1.2325,-1.2697,-1.2752,-1.332,-1.3781,-1.4075,-1.4549,-1.4903,-1.5149,-1.5204,-1.5351,-1.5538,-1.5538,-1.5638,-1.5784,-1.5784,-1.5784,-1.5784,-1.5784,-1.5784,-1.5784,-1.5784,-1.5718,-1.5538,-1.5538,-1.5144,-1.4496,-1.4202,-1.3968,-1.3801,-1.3801,-1.3801,-1.3788,0.0,0.0,0.0,0.0,0.0,0.0,0.0,0.0,-0.0378,-0.1448,-0.1715,-0.2318,-0.3658,-0.3931,-0.4144,-0.4464,-0.4304,-0.4197,-0.4204,-0.3961,-0.375,-0.3614,-0.3628,-0.3819,-0.42,-0.4406,-0.4697,-0.51,-0.5103,-0.5213,-0.5395,-0.5399,-0.5402,-0.5402,-0.5405,-0.5409,-0.5409,-0.5409,-0.5209,-0.4918,-0.4638,-0.4505,-0.4433,0.0,0.0,0.0,0.0,0.0,0.0,0.0,0.0,0.0,0.0,0.0,0.0,0.0,0.0,0.0,0.0,0.0,0.0,0.0,0.0,0.0,0.0,0.0,0.0,0.0,0.0,0.0,0.0,0.0,0.0,0.0,0.0,0.0,-0.8891,-1.0608,-1.1705,-1.1136,-1.2567,-1.3434,-1.2911,-1.3641,-1.4235,-1.4516,-1.4543,-1.4676,-1.5008,-1.5251,-1.5411,-1.5411,-1.5678,-1.5784,-1.5784,-1.5784,-1.5784,-1.5784,-1.5784,-1.5784,-1.5784,-1.5784,-1.5784,-1.5784,-1.5784,-1.5784,-1.5784,-1.5784,-1.5665,-1.5384,-1.5135,-1.5015,-1.5008,-1.5008,-1.5008,-1.4968,0.0,0.0,0.0,0.0,0.0,0.0,0.0,0.0,-0.0335,-0.1263,-0.171,-0.2376,-0.3534,-0.394,-0.4233,-0.4474,-0.4304,-0.4267,-0.4395,-0.3948,-0.3689,-0.3754,-0.4151,-0.4443,-0.4565,-0.4816,-0.4975,-0.51,-0.5243,-0.5354,-0.5395,-0.5511,-0.5562,-0.5532,-0.5633,-0.5681,-0.5681,-0.5681,-0.5633,-0.5521,-0.5111,-0.4819,-0.4585,0.0,0.0,0.0,0.0,0.0,0.0,0.0,0.0,0.0,0.0,0.0,0.0,0.0,0.0,0.0,0.0,0.0,0.0,0.0,0.0,0.0,0.0,0.0,0.0,0.0,0.0,0.0,0.0,0.0,0.0,0.0,0.0,-1.0955,-1.0735,-1.1376,-1.2167,-1.2794,-1.354,-1.4068,-1.4372,-1.462,-1.48,-1.4881,-1.5037,-1.519,-1.5277,-1.5551,-1.5712,-1.5712,-1.5738,-1.5784,-1.5784,-1.5784,-1.5784,-1.5784,-1.5784,-1.5784,-1.5784,-1.5784,-1.5784,-1.5784,-1.5784,-1.5784,-1.5784,-1.5784,-1.5785,-1.5678,-1.5391,-1.515,-1.5008,-1.5008,-1.5008,-1.4995,0.0,0.0,0.0,0.0,0.0,0.0,0.0,0.0,-0.0365,-0.1373,-0.1801,-0.2454,-0.3631,-0.3971,-0.4186,-0.4358,-0.4271,-0.4203,-0.4211,-0.3883,-0.3843,-0.4151,-0.447,-0.4684,-0.487,-0.5012,-0.513,-0.5226,-0.5351,-0.5429,-0.5494,-0.5549,-0.5623,-0.5681,-0.5766,-0.58,-0.58,-0.58,-0.58,-0.5772,-0.545,-0.522,-0.5026,-0.4638,-0.4446,-0.4338,-0.4131,-0.3924,-0.3751,-0.3637,0.0,0.0,0.0,0.0,0.0,0.0,0.0,0.0,0.0,0.0,0.0,0.0,0.0,0.0,0.0,0.0,0.0,0.0,0.0,0.0,0.0,0.0,0.0,0.0,-1.0822,-1.2067,-1.2478,-1.2585,-1.2919,-1.3693,-1.4202,-1.4636,-1.5097,-1.5257,-1.5331,-1.5331,-1.5484,-1.5578,-1.5578,-1.5738,-1.5784,-1.5784,-1.5784,-1.5784,-1.5784,-1.5784,-1.5784,-1.5784,-1.5784,-1.5784,-1.5784,-1.5784,-1.5784,-1.5784,-1.5784,-1.5784,-1.5784,-1.5784,-1.5784,0.0,0.0,0.0,0.0,0.0,-1.5251,-1.5189,0.0,0.0,0.0,0.0,0.0,0.0,0.0,0.0,-0.0426,-0.1614,-0.1904,-0.2494,-0.3818,-0.3974,-0.4055,-0.418,-0.418,-0.4082,-0.3836,-0.3849,-0.4129,-0.464,-0.4597,-0.4707,-0.509,-0.5117,-0.5223,-0.5395,-0.5412,-0.5491,-0.5589,-0.5623,-0.5705,-0.5827,-0.5844,-0.5854,-0.5854,-0.5854,-0.5854,-0.584,-0.5698,-0.562,-0.5542,-0.5108,-0.4914,-0.4891,-0.4772,-0.446,-0.4095,-0.4095,0.0,0.0,0.0,0.0,0.0,0.0,0.0,0.0,0.0,0.0,0.0,0.0,0.0,0.0,0.0,0.0,0.0,0.0,0.0,0.0,0.0,0.0,0.0,0.0,-1.143,-1.2472,-1.3948,-1.3935,-1.386,-1.4202,-1.474,-1.5169,-1.5418,-1.5678,-1.5784,-1.5784,-1.5784,-1.5784,-1.5784,0.0,0.0,0.0,0.0,-1.5784,-1.5784,-1.5784,-1.5784,-1.5784,-1.5784,-1.5784,-1.5784,-1.5784,-1.5784,-1.5784,-1.5784,-1.5784,-1.5784,-1.5784,-1.573,-1.5588,-1.5588,-1.5588,-1.5588,-1.5588,-1.5524,-1.5444,0.0,0.0,0.0,0.0,0.0,0.0,0.0,0.0,-0.0393,-0.1492,-0.1841,-0.2432,-0.3564,-0.3877,-0.4055,-0.418,-0.4109,-0.4014,-0.3954,-0.4225,-0.4412,-0.4528,-0.4714,-0.4925,-0.5096,-0.5254,-0.5365,-0.5395,-0.5518,-0.5559,-0.5596,-0.5833,-0.5922,-0.5952,-0.6115,-0.6211,-0.6211,-0.6211,-0.6211,-0.6197,-0.6006,-0.5803,-0.5552,-0.5184,-0.5059,-0.5039,-0.4894,-0.479,-0.4715,-0.4715,-0.4541,-0.4296,-0.4129,0.0,0.0,0.0,0.0,0.0,0.0,0.0,0.0,0.0,0.0,0.0,0.0,0.0,0.0,0.0,0.0,0.0,0.0,0.0,0.0,-1.1595,-1.2101,-1.2756,-1.4226,-1.4589,-1.4816,-1.511,-1.5244,-1.5424,-1.5718,-1.5751,-1.5784,-1.5784,-1.5784,-1.5784,-1.5784,-1.5784,-1.5784,-1.5784,-1.5784,-1.5784,-1.5784,-1.5784,-1.5784,-1.5784,0.0,0.0,-1.5784,-1.5784,-1.5784,-1.5784,-1.5784,-1.5784,-1.5784,-1.5784,-1.5194,-1.4262,-1.4262,-1.4262,-1.4262,-1.4262,-1.4864,-1.5698,0.0,0.0,0.0,0.0,0.0,0.0,0.0,0.0,-0.0306,-0.114,-0.1358,-0.1888,-0.3025,-0.3199,-0.3385,-0.3715,-0.3775,-0.3894,-0.4095,-0.4247,-0.4457,-0.468,-0.484,-0.5023,-0.524,-0.5354,-0.5395,-0.5395,-0.5549,-0.5627,-0.5701,-0.5925,-0.6071,-0.6149,-0.6265,-0.63,-0.63,-0.63,-0.63,-0.6286,-0.6091,-0.5895,-0.5671,-0.5447,-0.5311,-0.5237,-0.5165,-0.5091,-0.4992,-0.4992,-0.4874,-0.4663,-0.449,-0.4311,-0.4095,0.0,0.0,0.0,0.0,0.0,0.0,0.0,0.0,0.0,0.0,0.0,0.0,0.0,0.0,-0.6459,0.0,0.0,-1.0285,-1.2033,-1.2797,-1.3397,-1.386,-1.4663,-1.5237,-1.5378,-1.5398,-1.5511,-1.5751,-1.5784,-1.5784,-1.5784,-1.5784,-1.5784,-1.5784,-1.5784,-1.5784,-1.5784,-1.5784,-1.5784,-1.5784,-1.5784,-1.5784,-1.5784,-1.5784,-1.5784,-1.5784,-1.514,-1.4854,-1.48,-1.4124,-1.3836,-1.3836,-1.3836,-1.3108,-1.194,-1.194,-1.2328,-1.2909,-1.2909,-1.3734,-1.4854,0.0,0.0,0.0,0.0,0.0,0.0,0.0,0.0,-0.0206,-0.0785,-0.088,-0.1313,-0.2376,-0.2413,-0.2589,-0.3127,-0.3475,-0.3819,-0.4127,-0.423,-0.4449,-0.487,-0.4887,-0.5057,-0.5388,-0.5395,-0.5395,-0.5395,-0.5549,-0.5661,-0.5803,-0.5922,-0.6112,-0.63,-0.63,-0.63,-0.63,-0.63,-0.63,-0.6289,-0.6125,-0.5966,-0.5789,-0.5674,-0.5552,-0.5392,-0.5361,-0.5237,-0.5096,-0.5066,-0.4961,-0.4853,-0.4728,-0.4614,-0.4436,-0.4141,-0.3954,0.0,0.0,0.0,0.0,0.0,0.0,0.0,0.0,0.0,-0.4608,-0.5087,-0.5977,-0.6894,-0.7483,-0.9261,-1.0971,-1.2108,-1.3034,-1.3592,-1.3403,-1.4157,-1.472,-1.472,-1.4953,-1.5184,-1.5412,-1.5439,-1.5343,-1.5051,-1.5486,-1.5683,-1.5439,-1.5439,-1.5534,-1.5778,-1.5581,-1.5439,-1.5439,-1.5439,-1.5296,-1.5051,-1.5051,-1.5051,-1.5003,-1.3974,-1.3488,-1.344,-1.2382,-1.1896,-1.1896,-1.1896,-1.117,-0.9998,-0.9998,-1.0485,-1.1165,-1.1409,-1.2377,-1.3488,0.0,0.0,0.0,0.0,0.0,0.0,0.0,0.0,-0.0174,-0.0662,-0.0832,-0.111,-0.1658,-0.1821,-0.2109,-0.2713,-0.35,-0.3967,-0.4018,-0.4294,-0.461,-0.4874,-0.4887,-0.5057,-0.5388,-0.5395,-0.5395,-0.5395,-0.5549,-0.5661,-0.5803,-0.5922,-0.6112,-0.63,-0.63,-0.63,-0.63,-0.63,-0.63,-0.6296,-0.6279,-0.6061,-0.58,-0.5783,-0.5603,-0.5378,-0.5206,-0.5113,-0.5079,-0.4955,-0.4843,-0.4714,-0.4697,-0.4614,-0.4457,-0.4244,0.0,-0.4139,-0.3987,-0.4055,-0.4233,-0.4524,-0.4589,-0.4802,0.0,0.0,-0.5566,-0.6054,-0.7034,-0.7831,-0.7934,-0.9389,-1.0963,-1.2091,-1.2097,-1.2321,-1.324,-1.2734,-1.2297,-1.2297,-1.3358,-1.4088,-1.4118,-1.4118,-1.3638,-1.2431,-1.4465,-1.5289,-1.4166,-1.4118,-1.4609,-1.5778,-1.4704,-1.4118,-1.4118,-1.4118,-1.3488,-1.2334,-1.2334,-1.2334,-1.2334,-1.2188,-1.2139,-1.2139,-1.1945,-1.1896,-1.1896,-1.1896,-1.117,-0.9998,-0.9998,-0.9361,-0.8577,-0.9752,-1.1023,-1.2139,0.0,0.0112,0.0,0.0,0.0,0.0,0.0,0.0,-0.0069,-0.0262,-0.0346,-0.0552,-0.1022,-0.1335,-0.1749,-0.2359,-0.2995,-0.3507,-0.3856,-0.4276,-0.4627,-0.4874,-0.4887,-0.5057,-0.5388,-0.5395,-0.5395,-0.5395,-0.5549,-0.562,-0.5684,-0.5918,-0.6064,-0.6132,-0.6259,-0.63,-0.63,-0.63,-0.63,-0.63,-0.63,-0.6115,-0.58,-0.58,-0.5562,-0.522,-0.512,-0.5046,0.0,-0.4908,-0.4877,-0.4809,-0.4718,-0.4675,-0.4593,-0.4416,-0.4436,0.0,-0.4608,-0.4682,0.0,0.0,-0.5277,-0.546,-0.5888,-0.6003,-0.6095,-0.6368,-0.6931,-0.7352,-0.7352,-0.9296,-1.0843,0.0,-1.1794,-1.2404,-1.1538,-1.1691,-1.1609,-1.0759,-1.123,-1.194,-1.2668,-1.2721,-1.2813,-1.306,-1.3349,-1.3638,-1.3878,-1.3151,-1.2963,-1.3494,-1.3011,-1.2721,-1.2721,-1.2721,-1.2425,-1.1896,-1.1896,-1.1896,-1.1853,-1.1116,-1.0386,-0.9653,-0.9653,-0.9653,-0.9653,-0.9653,-0.9312,-0.8825,-0.8825,-0.8482,-0.8088,-0.8627,-0.9657,-1.0779,0.0,0.0134,0.0,0.0,0.0,0.0,0.0,0.0,0.0,0.0,0.0,-0.0131,-0.047,-0.0882,-0.131,-0.1743,-0.2293,-0.2876,-0.351,-0.3968,-0.4394,-0.4813,-0.4867,-0.5036,-0.5324,-0.5375,-0.5395,-0.5395,-0.5504,-0.5549,-0.5596,-0.5806,-0.5892,-0.5936,-0.6084,-0.6197,-0.6235,-0.619,-0.6197,-0.6231,-0.619,-0.6013,-0.5739,-0.5694,-0.5426,-0.5042,-0.5042,-0.4948,-0.4843,-0.4732,-0.4732,-0.4765,-0.4616,-0.4596,-0.4641,-0.4573,-0.4662,-0.4799,-0.4982,0.0,0.0,-0.5637,-0.585,-0.6037,-0.6195,-0.6363,-0.6485,-0.6627,-0.6831,-0.6943,-0.6943,-0.8945,-1.0341,-0.9628,-1.1123,-1.1825,-1.0213,-1.0436,-1.0418,-0.9417,-0.9336,-0.9747,-1.0725,-1.1165,-1.1653,-1.2226,-1.2037,-1.2188,-1.2807,-1.1891,-1.156,-1.1896,-1.1556,-1.1389,-1.1447,-1.1447,-1.1279,-1.0943,-1.0943,-1.0965,-1.0861,-0.9875,-0.892,-0.7988,-0.7988,-0.7988,-0.7988,-0.7988,-0.7988,-0.7988,-0.7988,-0.7988,-0.7988,-0.7988,-0.8627,-0.946,0.0,0.0,0.0,0.0,0.0,0.0,0.0,0.0,0.0,0.0,0.0,0.0,-0.0015,-0.0445,-0.0726,-0.0737,-0.1412,-0.2154,-0.2874,-0.3243,-0.3803,-0.4655,-0.484,-0.4958,-0.5103,-0.5284,-0.5395,-0.5395,-0.5399,-0.5477,-0.5589,-0.5599,-0.5677,-0.581,-0.5813,-0.5898,-0.599,-0.5878,-0.5901,-0.5986,-0.5874,-0.5728,-0.5579,-0.5467,-0.5189,-0.4894,-0.4894,-0.4826,-0.4653,-0.4338,-0.4362,-0.4477,-0.4281,-0.4358,0.0,-0.4672,-0.4792,0.0,0.0,0.0,-0.5647,-0.5905,-0.6234,-0.6529,-0.6831,-0.6862,-0.6906,-0.7048,-0.7085,-0.7088,-0.7088,-0.8325,-0.9401,-0.949,-0.9729,-0.9922,-0.9972,-0.8781,-0.7969,-0.8064,-0.7955,-0.7924,0.0,-0.9316,-0.9558,-0.8283,-1.0485,-1.1365,-1.0194,-1.0096,-1.0632,-1.1848,-1.0681,-1.0132,-1.0251,-1.0251,-0.9689,-0.8622,-0.8622,-0.855,-0.8408,-0.8159,-0.8038,-0.7988,-0.7988,-0.7988,-0.7988,-0.7988,-0.7988,-0.7988,-0.7988,-0.7988,-0.7988,-0.7988,-0.8038,-0.8038,0.0,0.0,0.0,0.0034,0.0,0.0,0.0,0.0,0.0,0.0,0.0,0.0,0.0,0.0,0.0,0.0,0.0,-0.157,-0.2131,-0.2931,-0.3568,-0.3961,-0.4481,-0.4836,-0.4958,-0.504,-0.5114,-0.5209,-0.5209,-0.5287,-0.5474,-0.5542,-0.5613,-0.5664,-0.5759,-0.583,-0.5874,-0.5823,-0.5888,-0.5973,-0.5759,-0.5633,-0.5572,-0.5453,-0.5081,-0.4658,0.0,-0.4606,-0.4355,-0.4227,-0.4254,-0.4301,-0.4375,0.0,0.0,-0.4769,-0.4914,-0.5093,0.0,0.0,-0.6143,-0.64,-0.6627,-0.6827,-0.698,-0.7024,-0.7011,-0.6967,-0.6957,-0.6927,-0.6868,-0.8127,-0.8949,-0.8231,-0.9047,-0.9541,-0.8803,-0.8238,-0.7894,-0.7892,-0.7884,0.0,0.0,0.0,0.0,-0.9316,-0.9312,-0.9509,-0.9998,-0.9167,-0.8927,-0.9485,-0.9094,-0.8914,-0.9068,-0.9068,-0.8893,-0.8482,-0.8482,-0.8459,-0.8408,-0.8258,-0.8194,-0.8187,-0.8032,-0.7988,-0.7988,-0.7988,-0.7988,-0.7988,-0.7988,-0.7988,-0.7988,-0.7988,-0.7988,-0.7988,0.0,0.0,0.0,0.0,0.0,0.0,0.0,0.0,0.0,0.0,0.0,0.0,0.0,0.0,0.0,0.0,0.0,0.0,-0.1506,-0.2184,-0.2731,-0.3083,-0.3838,-0.4289,-0.4352,-0.4607,-0.4826,-0.4941,-0.4941,-0.505,-0.5238,-0.5304,-0.5348,-0.5352,-0.5443,-0.5515,-0.5559,-0.5508,-0.5572,-0.5652,-0.5447,-0.5348,-0.5328,-0.5153,-0.4829,0.0,-0.4419,-0.4246,-0.4068,-0.4122,-0.415,-0.421,-0.4358,0.0,-0.4663,-0.486,-0.5066,-0.5382,-0.5776,-0.6105,-0.645,-0.6709,-0.6852,-0.6984,-0.7075,-0.7058,-0.698,-0.6836,-0.6803,-0.6719,-0.6569,-0.7394,-0.7944,-0.7368,-0.8176,-0.8619,-0.8093,-0.7941,-0.7891,-0.7896,-0.788,0.0,0.0,0.0,0.0,-0.9213,-0.8482,-0.8407,-0.9356,-0.8567,-0.8191,-0.834,-0.8347,-0.8418,-0.8564,-0.8564,-0.8591,-0.8645,-0.8587,-0.8564,-0.856,-0.8414,-0.8371,-0.8316,-0.8167,-0.8092,-0.7988,-0.7988,-0.7988,-0.7988,-0.7988,-0.7988,-0.7988,-0.7988,-0.7988,-0.7988,0.0,0.0,0.0,0.0,0.0,0.0,0.0,0.0,0.0,0.0,0.0,0.0,0.0,0.0,0.0,0.0,0.0,0.0,-0.099,-0.1082,-0.1406,-0.2103,-0.2918,-0.3347,-0.3353,-0.4064,-0.4486,-0.4638,-0.4667,-0.4752,-0.4877,-0.4877,-0.4881,-0.4887,-0.4887,-0.4961,-0.5079,-0.4945,-0.4968,-0.5083,-0.4928,-0.487,-0.4874,-0.4597,-0.4467,-0.4399,-0.3979,-0.3799,-0.3816,0.0,0.0,0.0,0.0,0.0,0.0,-0.4928,-0.5277,-0.5691,-0.5956,-0.6291,-0.659,-0.6878,-0.7007,-0.7102,-0.7088,-0.6974,-0.6825,-0.6702,-0.6542,-0.6433,0.0,0.0,-0.6487,-0.698,-0.7098,-0.7324,-0.7907,-0.7867,-0.7875,0.0,0.0,0.0,0.0,0.0,0.0,-0.8002,0.0,-0.8106,-0.8313,-0.8323,-0.834,-0.8489,-0.8492,-0.8567,-0.872,-0.8723,-0.8794,-0.8881,-0.8791,-0.8723,-0.8716,-0.8564,-0.8421,-0.8344,-0.833,-0.8187,-0.8002,-0.7992,-0.7988,-0.7988,-0.7988,-0.7988,-0.7988,-0.7988,-0.7988,-0.7988,0.0,0.0,0.0,0.0,0.0,0.0,0.0,0.0,0.0,0.0,0.0,0.0,0.0,0.0,0.0,0.0,0.0,0.0,0.0,-0.0804,-0.1176,-0.1382,-0.2097,-0.2502,-0.2497,-0.3136,-0.3519,-0.3668,-0.4112,-0.4466,-0.4748,-0.4748,-0.4809,-0.4887,-0.4887,-0.4908,-0.4938,-0.4904,-0.4968,-0.5066,-0.4728,-0.4675,-0.4718,-0.4388,-0.4161,-0.3986,-0.3961,0.0,0.0,0.0,0.0,0.0,0.0,0.0,-0.5324,0.0,0.0,-0.6218,-0.659,-0.6915,-0.7207,-0.7238,-0.7285,-0.7255,-0.6991,-0.6865,-0.6651,-0.6239,-0.6081,-0.5895,0.0,0.0,0.0,-0.6753,-0.719,0.0,-0.7938,-0.7958,0.0,0.0,0.0,-0.7948,-0.7985,-0.7988,0.0,0.0,-0.8106,-0.8106,-0.8313,-0.8323,-0.8387,-0.8645,-0.8652,-0.8726,-0.8824,-0.8824,-0.8844,-0.8885,-0.8844,-0.8824,-0.8821,-0.8723,-0.8632,-0.8584,-0.8367,-0.8248,-0.8204,-0.8039,-0.7988,-0.7988,-0.7988,-0.7988,-0.7988,-0.7988,-0.7988,-0.7988,0.0,0.0,0.0,0.0,0.0,0.0,0.0,0.0,0.0,0.0,0.0,0.0,0.0,0.0,0.0,0.0,0.0,0.0,0.0,-0.0387,-0.0622,-0.0615,-0.1266,-0.164,-0.1631,-0.2217,-0.2598,-0.2727,-0.3059,-0.3361,-0.3599,-0.3599,-0.3638,-0.3705,-0.3705,-0.3705,-0.3705,-0.3705,-0.3914,0.0,0.0,-0.4077,-0.4372,-0.4112,-0.3941,-0.3795,0.0,0.0,0.0,0.0,0.0,-0.4935,-0.5247,-0.5433,-0.5648,-0.5915,0.0,-0.6624,-0.6893,-0.7241,-0.7455,-0.7436,-0.7319,-0.7173,-0.681,-0.6559,-0.6278,-0.583,-0.5613,0.0,0.0,0.0,0.0,0.0,0.0,0.0,-0.783,-0.7948,-0.7988,0.0,-0.7988,0.0,-0.8133,-0.814,-0.8204,0.0,-0.8225,-0.8235,-0.8452,-0.8465,-0.857,-0.8804,-0.8811,-0.8797,-0.8885,-0.8885,-0.8885,-0.8885,-0.8885,-0.8885,-0.8878,-0.8849,-0.8774,-0.8703,0.0,-0.8391,-0.8313,-0.8177,-0.8102,-0.7988,-0.7988,-0.7988,-0.7988,-0.7988,-0.7988,-0.7988,0.0,0.0,0.0,0.0,0.0,0.0,0.0,0.0,0.0,0.0,0.0,0.0,0.0,0.0,0.0,0.0,0.0,0.0,0.0,0.0,0.0,0.0,-0.0494,-0.0788,-0.0775,-0.1375,-0.1732,-0.1861,0.0,0.0,-0.2173,-0.2173,-0.2178,-0.2189,-0.2189,-0.2189,-0.2189,-0.2189,-0.249,-0.2988,-0.2951,-0.3268,-0.3726,0.0,0.0,0.0,0.0,0.0,0.0,0.0,-0.4941,-0.5087,-0.5538,-0.5776,-0.5952,-0.6296,-0.6637,-0.695,-0.7112,-0.7411,-0.759,-0.7441,-0.7285,-0.7044,-0.6596,-0.6213,-0.5867,-0.5433,0.0,-0.4999,-0.4884,0.0,-0.5586,-0.6173,0.0,-0.7092,-0.7729,-0.7877,-0.7968,-0.7988,-0.7988,-0.8099,-0.8255,-0.8323,-0.8336,-0.8499,-0.8397,-0.8442,-0.8696,-0.871,-0.8781,-0.8878,-0.8885,-0.8885,-0.8885,-0.8885,-0.8885,-0.8885,-0.8885,-0.8885,-0.8885,-0.8885,-0.8811,-0.874,-0.872,-0.8554,-0.8347,-0.833,-0.818,-0.7988,-0.7988,-0.7988,-0.7988,-0.7988,-0.7988,-0.7988,0.0,0.0,0.0,0.0,0.0,0.0,0.0,0.0,0.0,0.0,0.0,0.0,0.0,0.0,0.0,0.0,0.0,0.0,0.0,0.0,0.0,0.0,-0.0093,-0.0155,-0.0147,0.0,0.0,0.0,0.0,0.0,-0.204,-0.204,-0.2099,-0.2189,-0.2189,-0.2189,-0.2189,-0.2189,-0.2265,-0.2359,-0.2235,-0.2253,-0.2386,0.0,0.0,0.0,0.0,0.0,0.0,0.0,-0.5264,-0.5552,-0.604,-0.6279,-0.6417,-0.6722,-0.6906,-0.7122,-0.7444,-0.7645,-0.774,-0.7597,-0.7444,-0.7149,-0.6494,-0.6061,0.0,0.0,0.0,-0.4721,-0.4597,-0.5023,0.0,-0.5993,0.0,0.0,0.0,0.0,-0.7896,0.0,0.0,0.0,0.0,0.0,0.0,0.0,0.0,-0.8655,-0.8706,-0.871,-0.8781,-0.8878,-0.8885,-0.8885,-0.8885,-0.8885,-0.8885,-0.8885,-0.8885,-0.8885,-0.8885,-0.8885,-0.8868,-0.8838,-0.8764,0.0,-0.8435,-0.8371,-0.818,-0.7988,-0.7988,-0.7988,-0.7988,-0.7988,-0.7988,-0.7988,0.0,0.0,0.0,0.0,0.0,0.0,0.0,0.0179,0.0,0.0,0.0,0.0,0.0,0.0,0.0,0.0,0.0,0.0,0.0,0.0,0.0,0.0,0.0,0.0,0.0,0.0,0.0,0.0,0.0,0.0,0.0,0.0,0.0,0.0,0.0,0.0,0.0,0.0,0.0,0.0,0.0,0.0,0.0,0.0,0.0,0.0,0.0,0.0,0.0,0.0,-0.522,-0.56,-0.6132,-0.6399,-0.6573,-0.6841,-0.7085,-0.7309,-0.7539,-0.776,-0.7875,-0.7655,-0.737,-0.6943,-0.6193,0.0,0.0,0.0,0.0,-0.458,-0.4505,0.0,0.0,0.0,0.0,0.0,0.0,0.0,0.0,0.0,0.0,0.0,0.0,0.0,0.0,0.0,0.0,-0.8828,-0.8828,-0.8828,-0.8807,-0.8881,-0.8885,-0.8885,-0.8885,-0.8885,-0.8885,-0.8885,-0.8885,-0.8885,-0.8885,-0.8885,-0.8885,-0.8875,-0.8777,-0.8625,-0.8472,-0.8381,-0.818,-0.7988,-0.7988,-0.7988,-0.7988,-0.7988,-0.7988,-0.7988,0.0,0.0,0.0,0.0,0.0,0.0,0.0,0.0357,0.0114,0.0188,0.008,0.0,0.0,0.0,0.0,0.0,0.0,0.0,0.0,0.0,0.0,0.0,0.0,0.0,0.0,0.0,0.0,0.0,0.0,0.0,0.0,0.0,0.0,0.0,0.0,0.0,0.0,0.0,0.0,0.0,0.0,0.0,0.0,0.0,0.0,0.0,0.0,0.0,0.0,0.0,-0.4825,-0.5186,-0.5821,-0.6245,-0.6525,-0.679,-0.7088,-0.7363,-0.755,-0.779,-0.7877,-0.7665,-0.7261,-0.6691,-0.5973,-0.5454,0.0,0.0,-0.4491,-0.4491,-0.4491,0.0,0.0,0.0,0.0,0.0,0.0,0.0,0.0,0.0,0.0,0.0,0.0,0.0,0.0,0.0,0.0,0.0,-0.8885,-0.8885,-0.8885,-0.8885,-0.8885,-0.8885,-0.8885,-0.8885,-0.8885,-0.8885,-0.8885,-0.8885,-0.8885,-0.8885,-0.8885,-0.8875,-0.8777,-0.8625,-0.8472,-0.8381,-0.818,-0.7988,-0.7988,-0.7988,-0.7988,-0.7988,-0.7988,-0.7988,0.0,0.0,0.0,0.0,0.0,0.0,0.0,0.0934,0.0475,0.0771,0.0331,0.0,0.0,0.0,0.0,0.0,0.0,0.0,0.0,0.0,0.0,0.0,0.0,0.0,0.0,0.0,0.0,0.0,0.0,0.0,0.0,0.0,0.0,0.0,0.0,0.0,0.0,0.0,0.0,0.0,0.0,0.0,0.0,0.0,0.0,0.0,0.0,0.0,0.0,0.0,0.0,-0.4086,-0.4948,-0.5715,-0.6378,-0.6634,0.0,0.0,-0.7519,-0.7712,-0.7794,-0.7638,-0.7261,-0.6691,-0.5973,0.0,0.0,-0.4583,-0.4491,-0.4491,-0.4491,-0.4627,0.0,0.0,0.0,0.0,0.0,0.0,0.0,0.0,0.0,0.0,0.0,0.0,0.0,0.0,0.0,0.0,-0.8885,-0.8885,-0.8885,-0.8885,-0.8885,-0.8885,-0.8885,-0.8885,-0.8885,-0.8885,-0.8885,-0.8885,-0.8885,-0.8885,-0.8885,-0.8875,-0.8777,0.0,0.0,-0.8381,-0.818,-0.7988,-0.7988,-0.7988,-0.7988,-0.7988,-0.7988,-0.7988,0.0,0.0,0.0,0.0,0.0,0.0,0.1641,0.1183,0.0946,0.128,0.1111,0.0995,0.107,0.0764,0.0389,0.0034,0.0,0.0,0.0,0.0,0.0,0.0,0.0,0.0,0.0,0.0,0.0,0.0,0.0,0.0,0.0,0.0,0.0,0.0,0.0,0.0,0.0,0.0,0.0,0.0,0.0,0.0,0.0,0.0,0.0,0.0,0.0,0.0,0.0,0.0,0.0,0.0,-0.3936,-0.4218,0.0,0.0,-0.6505,-0.6824,-0.7217,-0.7499,-0.7648,-0.7499,-0.7054,-0.6505,-0.5932,0.0,-0.4901,-0.4566,-0.4491,-0.4491,-0.4491,-0.4539,-0.4672,0.0,-0.5057,-0.5413,0.0,0.0,0.0,0.0,0.0,0.0,0.0,0.0,0.0,0.0,0.0,0.0,-0.8885,-0.8885,-0.8885,-0.8885,-0.8885,-0.8885,-0.8885,-0.8885,-0.8885,-0.8885,-0.8885,-0.8885,-0.8885,-0.8885,-0.8885,-0.8868,-0.8679,0.0,0.0,-0.8228,-0.8096,-0.7988,-0.7988,-0.7988,-0.7988,-0.7988,-0.7988,-0.7988,0.0,0.0,0.0,0.0,0.0,0.1537,0.1819,0.1522,0.1373,0.1741,0.1617,0.158,0.1719,0.1207,0.0677,0.0295,0.0102,0.0,0.0,0.0,0.0,0.0,0.0,0.0,0.0,0.0,0.0,0.0,0.0,0.0,0.0,0.0,0.0,0.0,0.0,0.0,0.0,0.0,0.0,0.0,0.0,0.0,0.0,0.0,0.0,0.0,0.0,0.0,0.0,0.0,0.0,0.0,0.0,0.0,0.0,0.0,-0.5957,-0.6155,-0.6803,-0.72,-0.7377,-0.7268,-0.6863,-0.633,0.0,0.0,-0.4833,-0.4552,-0.4491,-0.4491,-0.4491,-0.4491,-0.4542,-0.4667,-0.4765,-0.5067,-0.5769,0.0,0.0,0.0,0.0,0.0,0.0,0.0,0.0,0.0,0.0,0.0,-0.8885,-0.8885,-0.8885,-0.8885,-0.8885,-0.8885,-0.8885,-0.8885,-0.8885,-0.8885,-0.8885,-0.8885,-0.8881,-0.8838,-0.8817,-0.8801,-0.855,0.0,0.0,-0.8143,-0.7988,-0.7988,-0.7988,-0.7988,-0.7988,-0.7988,-0.7988,-0.7988,0.0,0.0,0.0,0.0,0.0,0.0,0.2414,0.1978,0.1736,0.2145,0.1672,0.1376,0.1588,0.1065,0.0747,0.0888,0.0346,0.0,0.0,0.0,0.0,0.0,0.0,0.0,0.0,0.0,0.0,0.0,0.0,0.0,0.0,0.0,0.0,0.0,0.0,0.0,0.0,0.0,0.0,0.0,0.0,0.0,0.0,0.0,0.0,0.0,0.0,0.0,0.0,0.0,0.0,0.0,0.0,0.0,0.0,0.0,-0.5294,-0.5173,-0.6376,-0.6817,-0.6893,-0.6893,-0.6593,-0.6184,0.0,-0.5243,-0.4833,-0.4552,-0.4491,-0.4491,-0.4491,-0.4491,-0.4542,-0.4667,-0.4935,-0.5302,-0.5905,0.0,0.0,0.0,0.0,0.0,0.0,0.0,0.0,0.0,0.0,0.0,-0.8885,-0.8885,-0.8885,-0.8885,-0.8885,-0.8885,-0.8885,-0.8885,-0.8885,-0.8885,-0.8885,-0.8885,-0.8878,-0.8781,-0.8713,-0.8696,0.0,0.0,0.0,-0.8102,-0.7988,-0.7988,-0.7988,-0.7988,-0.7988,-0.7988,-0.7988,-0.7988,0.0,0.0,0.0,0.0,0.0,0.0,0.0,0.2072,0.2142,0.2501,0.2464,0.2446,0.2601,0.2095,0.1739,0.1791,0.0692,0.0,0.0,0.0,0.0,0.0,0.0,0.0,0.0,0.0,0.0,0.0,0.0,0.0,0.0,0.0,0.0,0.0,0.0,0.0,0.0,0.0,0.0,0.0,0.0,0.0,0.0,0.0,0.0,0.0,0.0,0.0,0.0,0.0,0.0,0.0,0.0,0.0,0.0,-0.2924,0.0,0.0,-0.4879,-0.5278,-0.55,-0.603,-0.5901,-0.5617,-0.5332,-0.5009,-0.4707,-0.4532,-0.4491,-0.4491,-0.4491,-0.4491,-0.4607,-0.4935,-0.5036,0.0,0.0,0.0,0.0,0.0,0.0,0.0,0.0,0.0,0.0,0.0,0.0,0.0,-0.8625,-0.8625,-0.8723,-0.8875,-0.8885,-0.8885,-0.8885,-0.8885,-0.8885,-0.8881,-0.8832,-0.8781,-0.8777,-0.8625,-0.8554,0.0,0.0,-0.8323,-0.831,-0.8102,-0.7988,-0.7988,-0.7988,-0.7988,-0.7988,-0.7988,-0.7988,-0.7988,0.0,0.0,0.0,0.0,0.0,0.0,0.0,0.2063,0.2245,0.2589,0.2692,0.2815,0.3,0.2489,0.2076,0.199,0.0934,0.0,0.0,0.0,0.0,0.0,0.0,0.0,0.0,0.0,0.0,0.0,0.0,0.0,0.0,0.0,0.0,0.0,0.0,0.0,0.0,0.0,0.0,0.0,0.0,0.0,0.0,0.0,0.0,0.0,0.0,0.0,0.0,0.0,0.0,0.0,0.0,0.0,0.0,0.0,-0.1682,0.0,0.0,-0.3983,-0.4204,-0.4666,-0.4633,-0.4481,-0.4574,-0.4436,-0.4327,-0.4463,-0.4491,-0.4491,-0.4491,-0.4491,-0.4583,-0.4833,-0.4945,0.0,0.0,0.0,0.0,0.0,0.0,0.0,0.0,0.0,0.0,0.0,0.0,0.0,-0.8482,-0.8482,-0.857,-0.876,-0.8767,-0.8767,-0.8767,-0.8767,-0.8767,-0.8764,-0.8669,-0.8625,-0.8618,-0.8469,-0.8404,0.0,0.0,-0.8184,0.0,-0.8029,-0.7988,-0.7988,-0.7988,-0.7988,-0.7988,-0.7988,-0.7988,-0.7988,0.0,0.0,0.0,0.0,0.0,0.0,0.0,0.1992,0.2113,0.2442,0.2491,0.2596,0.2859,0.2353,0.1901,0.1655,0.0,0.0,0.0,0.0,0.0,0.0,0.0,0.0,0.0,0.0,0.0,0.0,0.0,0.0,0.0,0.0,0.0,0.0,0.0,0.0,0.0,0.0,0.0,0.0,0.0,0.0,0.0,0.0,0.0,0.0,0.0,0.0,0.0,0.0,0.0,0.0,0.0,0.0,0.0,0.0,0.0,0.0,0.0,-0.2821,0.0,0.0,-0.2952,-0.2998,-0.3564,-0.3582,0.0,-0.4293,-0.4405,-0.4439,-0.4518,-0.4505,-0.4511,-0.4576,-0.4789,0.0,0.0,0.0,0.0,0.0,0.0,0.0,0.0,0.0,0.0,0.0,0.0,0.0,-0.8448,-0.8448,-0.8448,-0.8448,-0.8448,-0.8462,-0.8482,-0.8482,-0.8482,-0.8482,-0.8472,-0.8465,-0.8462,-0.8319,-0.8255,0.0,-0.8102,-0.7988,-0.7988,-0.7988,-0.7988,-0.7988,-0.7988,-0.7988,-0.7988,-0.7988,-0.7988,-0.7988,0.0,0.0,0.0,0.0,0.0,0.0,0.0,0.0,0.0,0.0,0.2399,0.2555,0.273,0.2298,0.1974,0.0,0.0,0.0,0.0,0.0,0.0,0.0,0.0,0.0,0.0,0.0,0.0,0.0,0.0,0.0,0.0,0.0,0.0,0.0,0.0,0.0,0.0,0.0,0.0,0.0,0.0,0.0,0.0,0.0,0.0,0.0,0.0,0.0,0.0,0.0,0.0,0.0,0.0,0.0,0.0,0.0,0.0,-0.0105,-0.055,0.0,-0.1718,-0.2263,-0.238,-0.2391,0.0,-0.2554,-0.2757,-0.3489,0.0,0.0,-0.4647,-0.4648,-0.4716,0.0,0.0,0.0,0.0,0.0,0.0,0.0,0.0,0.0,0.0,0.0,0.0,0.0,0.0,-0.8093,-0.8093,-0.8093,-0.8093,-0.8093,-0.8093,-0.8252,-0.8479,-0.8482,-0.8482,-0.8479,-0.8374,-0.8371,-0.8368,-0.8163,-0.8096,-0.8092,-0.8005,-0.7988,-0.7988,-0.7988,-0.7988,-0.7988,-0.7988,-0.7988,-0.7988,-0.7988,-0.7988,-0.7988,0.0,0.0,0.0,0.0,0.0,0.0,0.0,0.0,0.0,0.0,0.0,0.2454,0.2672,0.2281,0.0,0.0,0.0,0.0,0.0,0.0,0.0,0.0,0.0,0.0,0.0,0.0,0.0,0.0,0.0,0.0,0.0,0.0,0.0,0.0,0.0,0.0,0.0,0.0,0.0,0.0,0.0,0.0,0.0,0.0,0.0,0.0,0.0,0.0,0.0,0.0,0.0,0.0,0.0,0.0,0.0,0.0,0.0,0.0,0.0,-0.0304,-0.0689,-0.1088,-0.12,-0.1286,-0.1627,0.0,0.0,0.0,0.0,0.0,0.0,0.0,0.0,0.0,0.0,0.0,0.0,0.0,0.0,0.0,0.0,0.0,0.0,0.0,0.0,0.0,0.0,-0.7988,-0.7988,-0.7988,-0.7988,-0.7988,-0.7988,-0.8066,-0.8275,-0.8279,-0.8279,-0.8279,-0.8201,-0.8163,-0.8163,-0.8029,-0.7988,-0.7988,-0.7988,-0.7988,-0.7988,-0.7988,-0.7988,-0.7988,-0.7988,-0.7988,-0.7988,-0.7988,-0.7988,-0.7988,0.0,0.0,0.0,0.0,0.0,0.0,0.0,0.0,0.0,0.0,0.0,0.0,0.0,0.0,0.0,0.0,0.0,0.0,0.0,0.0,0.0,0.0,0.0043,0.0,0.0,0.0,0.0,0.0,0.0,0.0,0.0,0.0,0.0,0.0,0.0,0.0,0.0,0.0,0.0,0.0,0.0,0.0,0.0,0.0,0.0,0.0,0.0,0.0,0.0,0.0,0.0,0.0,0.0,0.0,0.0,0.0,0.0,0.0,0.0,0.0,0.0,0.0,0.0,-0.0176,-0.0789,0.0,0.0,0.0,0.0,0.0,0.0,0.0,0.0,0.0,0.0,0.0,0.0,0.0,0.0,0.0,0.0,0.0,0.0,0.0,0.0,0.0,0.0,-0.7988,-0.7988,-0.7988,-0.7988,-0.7988,-0.7988,-0.7988,-0.7988,-0.7988,-0.7988,-0.7988,-0.7988,-0.7988,-0.7988,-0.7988,-0.7988,-0.7988,0.0,0.0,-0.7988,-0.7988,-0.7988,-0.7988,-0.7988,-0.7988,-0.7988,-0.7988,-0.7988,-0.7988,0.0,0.0,0.0,0.0,0.0,0.0,0.0,0.0,0.0,0.0,0.0,0.0,0.0,0.0,0.0,0.0,0.0,0.0,0.0,0.0,0.0,0.0729,0.0267,0.0,0.0,0.0,0.0,0.0,0.0,0.0,0.0,0.0,0.0,0.0,0.0,0.0,0.0,0.0,0.0,0.0,0.0,0.0,0.0,0.0,0.0,0.0,0.0,0.0,0.0,0.0,0.0,0.0,0.0,0.0,0.0,0.0,0.0,0.0,0.0,0.0,0.0,0.0,0.0,-0.0029,-0.0142,0.0,0.0,0.0,0.0,0.0,0.0,0.0,0.0,0.0,0.0,0.0,0.0,0.0,0.0,0.0,0.0,0.0,0.0,0.0,0.0,0.0,0.0,-0.7988,-0.7988,-0.7988,-0.7988,-0.7988,-0.7988,-0.7988,-0.7988,-0.7988,-0.7988,-0.7988,-0.7988,-0.7988,-0.7988,-0.7988,-0.7988,-0.7988,0.0,-0.7988,-0.7988,-0.7988,-0.7988,-0.7988,-0.7988,-0.7988,-0.7988,-0.7988,-0.7988,-0.7988,0.0,0.0,0.0,0.0,0.0,0.0,0.0,0.0,0.0,0.0,0.0,0.0,0.0,0.0,0.0,0.0,0.0,0.0,0.0,0.0,0.0531,0.0892,0.071,0.0398,0.0,0.0,0.0,0.0,0.0,0.0,0.0,0.0,0.0,0.0,0.0,0.0,0.0,0.0,0.0,0.0,0.0,0.0,0.0,0.0,0.0,0.0,0.0,0.0,0.0,0.0,0.0,0.0,0.0,0.0,0.0,0.0,0.0,0.0,0.0,0.0,0.0,0.0,0.0,0.0,0.0,0.0,0.0,0.0,0.0,0.0,0.0,0.0,0.0,0.0,0.0,0.0,0.0,0.0,0.0,0.0,0.0,0.0,0.0,0.0,0.0,0.0,0.0,0.0,-0.7988,-0.7988,-0.7988,-0.7988,-0.7988,-0.7988,-0.7988,-0.7988,-0.7988,-0.7988,-0.7988,-0.7988,-0.7988,-0.7988,-0.7988,-0.7988,0.0,-0.7988,-0.7988,-0.7988,-0.7988,-0.7988,-0.7988,-0.7988,-0.7988,-0.7988,-0.7988,-0.7889,0.0,0.0,0.0,0.0,0.0,0.0,0.0,0.0,0.0,0.0,0.0,0.0,0.0,0.0,0.0,0.0,0.0,0.0,0.0,0.1244,0.1039,0.1314,0.1326,0.0984,0.027,0.0483,0.0587,0.0595,0.0384,0.0213,0.0,0.0,0.0,0.0,0.0,0.0,0.0,0.0,0.0,0.0,0.0,0.0,0.0,0.0,0.0,0.0,0.0,0.0,0.0,0.0,0.0,0.0,0.0,0.0,0.0,0.0,0.0,0.0,0.0,0.0,0.0,0.0,0.0,0.0,0.0,0.0,0.0,0.0,0.0,0.0,0.0,0.0,0.0,0.0,0.0,0.0,0.0,0.0,0.0,0.0,0.0,0.0,0.0,0.0,0.0,0.0,0.0,0.0,-0.7988,-0.7988,-0.7988,-0.7988,-0.7988,-0.7988,-0.7988,-0.7988,-0.7988,-0.7988,-0.7988,-0.7988,-0.7988,-0.7988,-0.7988,-0.7988,-0.7988,-0.7988,-0.7988,-0.7988,-0.7988,-0.7988,-0.7637,-0.7335,-0.708,-0.708,-0.708,-0.6927,0.0,0.0,0.0,0.0,0.0,0.0,0.0,0.0,0.0,0.0,0.0,0.0,0.0,0.0,0.0,0.0,0.0,0.0,0.0,0.1874,0.1854,0.2529,0.216,0.1646,0.1026,0.188,0.2313,0.2308,0.1586,0.079,0.0,0.0,0.0,0.0,0.0,0.0,0.0,0.0,0.0,0.0,0.0,0.0,0.0,0.0,0.0,0.0,0.0,0.0,0.0,0.0,0.0,0.0,0.0,0.0,0.0,0.0,0.0,0.0,0.0,0.0,0.0,0.0,0.0,0.0,0.0,0.0,0.0,0.0,0.0,0.0,0.0,0.0,0.0,0.0,0.0,0.0,0.0,0.0,0.0,0.0,0.0,0.0,0.0,0.0,0.0,0.0,0.0,0.0,-0.7988,-0.7988,-0.7988,-0.7988,-0.7988,-0.7988,-0.7988,-0.7988,-0.7988,-0.7988,-0.7988,-0.7988,-0.7988,-0.7988,-0.7988,-0.7988,-0.7988,-0.7988,-0.7988,-0.7988,-0.7988,-0.7889,-0.6631,-0.5372,-0.4266,-0.4266,-0.4266,-0.4266,0.0,0.0,0.0,0.0,0.0,0.0,0.0,0.0,0.0,0.0,0.0,0.0,0.0,0.0,0.0,0.0,0.0,0.0,0.0,0.2266,0.2159,0.2559,0.264,0.2542,0.223,0.2414,0.2493,0.2506,0.2207,0.1569,0.0688,0.068,0.0452,0.0,0.0,0.0,0.0,0.0,0.0,0.0,0.0,0.0,0.0,0.0,0.0,0.0,0.0,0.0,0.0,0.0,0.0,0.0,0.0,0.0,0.0,0.0,0.0,0.0,0.0,0.0,0.0,0.0,0.0,0.0,0.0,0.0,0.0,0.0,0.0,0.0,0.0,0.0,0.0,0.0,0.0,0.0,0.0,0.0,0.0,0.0,0.0,0.0,0.0,0.0,0.0,0.0,0.0,0.0,-0.6731,-0.5974,-0.6274,-0.7939,-0.7185,-0.7132,-0.7988,-0.7988,-0.7587,-0.6731,-0.6731,-0.7185,-0.7988,-0.7135,-0.6731,-0.6731,-0.6731,-0.6276,-0.552,-0.552,-0.552,-0.547,-0.497,-0.4468,-0.4016,-0.4016,-0.4016,-0.3865,0.0,0.0,0.0,0.0,0.0,0.0,0.0,0.0,0.0,0.0,0.0,0.0,0.0,0.0,0.0,0.0,0.0,0.0,0.29,0.2608,0.2513,0.2748,0.3068,0.3244,0.318,0.3159,0.3138,0.3132,0.2954,0.2355,0.1437,0.1451,0.1066,0.0346,0.0346,0.0209,0.0,0.0,0.0,0.0,0.0,0.0,0.0,0.0,0.0,0.0,0.0,0.0,0.0,0.0,0.0,0.0,0.0,0.0,0.0,0.0,0.0,0.0,0.0,0.0,0.0,0.0,0.0,0.0,0.0,0.0,0.0,0.0,0.0,0.0,0.0,0.0,0.0,0.0,0.0,0.0,0.0,0.0,0.0,0.0,0.0,0.0,0.0,0.0,0.0,0.0,0.0,0.0,0.0,-0.4518,-0.4818,-0.6678,-0.5824,-0.5824,-0.6728,-0.6728,-0.6276,-0.5375,-0.4922,-0.5422,-0.6728,-0.5774,-0.5375,-0.5375,-0.5375,-0.487,-0.4016,-0.4016,-0.3765,-0.3364,-0.3364,-0.3115,-0.2715,-0.2715,-0.2715,-0.2614,0.0,0.0,0.0,0.0,0.0,0.0,0.0,0.0,0.0,0.0,0.0,0.0,0.0,0.0,0.0,0.0,0.0,0.0,0.2896,0.2892,0.302,0.3293,0.3497,0.3668,0.3785,0.4252,0.4487,0.4491,0.3892,0.3132,0.2224,0.2209,0.1808,0.1115,0.1115,0.0705,0.0,0.0,0.0,0.0,0.0,0.0,0.0,0.0,0.0,0.0,0.0,0.0,0.0,0.0,0.0,0.0,0.0,0.0,0.0,0.0,0.0,0.0,0.0,0.0,0.0,0.0,0.0,0.0,0.0,0.0,0.0,0.0,0.0,0.0,0.0,0.0,0.0,0.0,0.0,0.0,0.0,0.0,0.0,0.0,0.0,0.0,0.0,0.0,0.0,0.0,0.0,0.0,0.0,-0.3966,-0.3966,-0.4016,-0.3966,-0.3966,-0.4016,-0.4016,-0.4016,-0.3966,-0.2614,-0.2715,-0.4016,-0.3966,-0.3966,-0.3966,-0.3966,-0.3966,-0.3966,-0.3966,-0.3165,-0.1962,-0.1962,-0.1159,0.0,0.0,0.0,0.0,0.0,0.0,0.0,0.0,0.0,0.0,0.0,0.0,0.0,0.0,0.0,0.0,0.0,0.0,0.0,0.0,0.0,0.0,0.2764,0.2849,0.2973,0.3162,0.3439,0.3621,0.3665,0.3894,0.4225,0.4651,0.4361,0.3792,0.2969,0.2873,0.2497,0.1869,0.1869,0.1478,0.0785,0.0764,0.0479,0.0,0.0,0.0,0.0,0.0,0.0,0.0,0.0,0.0,0.0,0.0,0.0,0.0,0.0,0.0,0.0,0.0,0.0,0.0,0.0,0.0,0.0,0.0,0.0,0.0,0.0,0.0,0.0,0.0,0.0,0.0,0.0,0.0,0.0,0.0,0.0,0.0,0.0,0.0,0.0,0.0,0.0,0.0,0.0,0.0,0.0,0.0,0.0,0.0,0.0,-0.1711,-0.2063,-0.3915,-0.3065,-0.3065,-0.4016,-0.4016,-0.3516,-0.2564,-0.2213,-0.2715,-0.3966,-0.3015,-0.2614,-0.2614,-0.2614,-0.2063,-0.1209,-0.1209,-0.0958,-0.0605,-0.0605,-0.0353,0.0,0.0,0.0,0.0,0.0,0.0,0.0,0.0,0.0,0.0,0.0,0.0,0.0,0.0,0.2696,0.2696,0.0,0.0,0.0,0.0,0.0,0.0,0.0,0.2825,0.2953,0.3094,0.3337,0.3544,0.3682,0.3805,0.406,0.4423,0.4331,0.4074,0.3661,0.3563,0.3243,0.2676,0.2649,0.2077,0.1092,0.1101,0.0672,0.0,0.0,0.0,0.0,0.0,0.0,0.0,0.0,0.0,0.0,0.0,0.0,0.0,0.0,0.0,0.0,0.0,0.0,0.0,0.0,0.0,0.0,0.0,0.0,0.0,0.0,0.0,0.0,0.0,0.0,0.0,0.0,0.0,0.0,0.0,0.0,0.0,0.0,0.0,0.0,0.0,0.0,0.0,0.0,0.0,0.0,0.0,0.0,0.0,0.0,-0.0454,-0.0756,-0.2363,-0.1611,-0.1611,-0.2413,-0.2414,-0.2013,-0.1209,-0.1209,-0.1611,-0.2363,-0.1561,-0.1209,-0.1209,-0.1209,-0.0756,0.0,0.0,0.0,0.0,0.0,0.0,0.0,0.0,0.0,0.0,0.0,0.0,0.0,0.0,0.0,0.0,0.0,0.0,0.0,0.0,0.2696,0.2696,0.0,0.0,0.0,0.0,0.0,0.0,0.0,0.2825,0.2953,0.3094,0.3252,0.3502,0.3805,0.3934,0.3974,0.3974,0.3974,0.4058,0.4197,0.418,0.3907,0.34,0.3345,0.2489,0.1087,0.111,0.0675,0.0,0.0,0.0,0.0,0.0,0.0,0.0,0.0,0.0,0.0,0.0,0.0,0.0,0.0,0.0,0.0,0.0,0.0,0.0,0.0,0.0,0.0,0.0,0.0,0.0,0.0,0.0,0.0,0.0,0.0,0.0,0.0,0.0,0.0,0.0,0.0,0.0,0.0,0.0,0.0,0.0,0.0,0.0,0.0,0.0,0.0,0.0,0.0,0.0,0.0,0.0,0.0,0.0,0.0,0.0,0.0,0.0,0.0,0.0,0.0,0.0,0.0,0.0,0.0,0.0,0.0,0.0,0.0,0.0,0.0,0.0,0.0,0.0,0.0,0.0,0.0,0.0,0.0,0.0,0.0,0.0,0.0,0.0,0.0,0.0,0.0,0.0,0.0,0.0,0.0,0.0,0.0,0.0,0.0,0.0,0.0,0.2825,0.2953,0.3094,0.349,0.3782,0.3944,0.3883,0.3839,0.3839,0.3839,0.3957,0.4194,0.4099,0.3815,0.34,0.3345,0.2489,0.1112,0.1109,0.0686,0.0,0.0,0.0,0.0,0.0,0.0,0.0,0.0,0.0,0.0,0.0,0.0,0.0,0.0,0.0,0.0,0.0,0.0,0.0,0.0,0.0,0.0,0.0,0.0,0.0,0.0,0.0,0.0,0.0,0.0,0.0,0.0,0.0,0.0,0.0,0.0,0.0,0.0,0.0,0.0,0.0,0.0,0.0,0.0,0.0,0.0,0.0,0.0,0.0,0.0,0.0,0.0,0.0,0.0,0.0,0.0,0.0,0.0,0.0,0.0,0.0,0.0,0.0,0.0,0.0,0.0,0.0,0.0,0.0,0.0,0.0,0.0,0.0,0.0,0.0,0.0,0.0,0.0,0.0,0.0,0.0,0.0,0.0,0.0,0.0,0.0,0.0,0.0,0.0,0.0,0.0,0.0,0.0,0.0,0.0,0.0,0.289,0.3107,0.3331,0.3632,0.3795,0.3809,0.3799,0.3792,0.3792,0.3747,0.3843,0.4112,0.4105,0.3849,0.3398,0.3341,0.2482,0.1113,0.1093,0.0675,0.0,0.0,0.0,0.0,0.0,0.0,0.0,0.0,0.0,0.0,0.0,0.0,0.0,0.0,0.0,0.0,0.0,0.0,0.0,0.0,0.0,0.0,0.0,0.0,0.0,0.0,0.0,0.0,0.0,0.0,0.0,0.0,0.0,0.0,0.0,0.0,0.0,0.0,0.0,0.0,0.0,0.0,0.0,0.0,0.0,0.0,0.0,0.0,0.0,0.0,0.0,0.0,0.0,0.0,0.0,0.0,0.0,0.0,0.0,0.0,0.0,0.0,0.0,0.0,0.0,0.0,0.0,0.0,0.0,0.0,0.0,0.0,0.0,0.0,0.0,0.0,0.0,0.0,0.0,0.0,0.0,0.0,0.0,0.0,0.0,0.0,0.0,0.0,0.0,0.0,0.0,0.0,0.0,0.0,0.0,0.0,0.2957,0.3259,0.3587,0.374,0.3748,0.3679,0.3744,0.3792,0.3792,0.3696,0.3782,0.4097,0.4146,0.3895,0.3398,0.3192,0.2353,0.1084,0.0958,0.0566,0.0,0.0,0.0,0.0,0.0,0.0,0.0,0.0,0.0,0.0,0.0,0.0,0.0,0.0,0.0,0.0,0.0,0.0,0.0,0.0,0.0,0.0,0.0,0.0,0.0,0.0,0.0,0.0,0.0,0.0,0.0,0.0,0.0,0.0,0.0,0.0,0.0,0.0,0.0,0.0,0.0,0.0,0.0,0.0,0.0,0.0,0.0,0.0,0.0,0.0,0.0,0.0,0.0,0.0,0.0,0.0,0.0,0.0,0.0,0.0,0.0,0.0,0.0,0.0,0.0,0.0,0.0,0.0,0.0,0.0,0.0,0.0,0.0,0.0,0.0,0.0,0.0,0.0,0.0,0.0,0.0,0.0,0.0,0.0,0.0,0.0,0.0,0.2696,0.2696,0.2696,0.2696,0.0,0.0,0.0,0.0,0.2696,0.0,0.0,0.3587,0.374,0.3843,0.3933,0.3849,0.3792,0.3792,0.3771,0.4006,0.4426,0.4161,0.3802,0.3372,0.2664,0.1874,0.1059,0.0428,0.0097,0.0,0.0,0.0,0.0,0.0,0.0,0.0,0.0,0.0,0.0,0.0,0.0,0.0,0.0,0.0,0.0,0.0,0.0,0.0,0.0,0.0,0.0,0.0,0.0,0.0,0.0,0.0,0.0,0.0,0.0,0.0,0.0,0.0,0.0,0.0,0.0,0.0,0.0,0.0,0.0,0.0,0.0,0.0,0.0,0.0,0.0,0.0,0.0,0.0,0.0,0.0,0.0,0.0,0.0,0.0,0.0,0.0,0.0,0.0,0.0,0.0,0.0,0.0,0.0,0.0,0.0,0.0,0.0,0.0,0.0,0.0,0.0,0.0,0.0,0.0,0.0,0.0,0.0,0.0,0.0,0.0,0.0,0.0,0.0,0.0,0.0,0.0,0.0,0.2696,0.2696,0.2696,0.0,0.0,0.0,0.0,0.2805,0.2986,0.0,0.3485,0.3617,0.3663,0.3597,0.3556,0.3563,0.3696,0.3563,0.386,0.4487,0.4358,0.4079,0.371,0.3292,0.2404,0.1199,0.0777,0.0575,0.0463,0.0136,0.0206,0.0465,0.0133,0.0,0.0045,0.0388,0.0279,0.0044,0.0393,0.0287,0.0,0.0,0.0,0.0,0.0,0.0,0.0,0.0,0.0,0.0,0.0,0.0,0.0,0.0,0.0,0.0,0.0,0.0,0.0,0.0,0.0,0.0,0.0,0.0,0.0,0.0,0.0,0.0,0.0,0.0,0.0,0.0,0.0,0.0,0.0,0.0,0.0,0.0,0.0,0.0,0.0,0.0,0.0,0.0,0.0,0.0,0.0,0.0,0.0,0.0,0.0,0.0,0.0,0.0,0.0,0.0,0.0,0.0,0.0,0.0,0.0,0.0,0.0,0.0,0.0,0.0,0.0,0.0,0.0,0.0,0.0,0.0,0.0,0.0,0.0,0.0,0.0,0.2696,0.0,0.0,0.0,0.0,0.0,0.2846,0.0,0.0,0.0,0.346,0.3448,0.3309,0.3306,0.3363,0.352,0.3425,0.3788,0.4549,0.459,0.4564,0.4426,0.4022,0.2982,0.1528,0.1426,0.1095,0.0651,0.0352,0.0405,0.062,0.0169,0.0,0.005,0.0514,0.0478,0.0,0.0,0.0,0.0,0.0,0.0,0.0,0.0,0.0,0.0,0.0,0.0,0.0,0.0,0.0,0.0,0.0,0.0,0.0,0.0,0.0,0.0,0.0,0.0,0.0,0.0,0.0,0.0,0.0,0.0,0.0,0.0,0.0,0.0,0.0,0.0,0.0,0.0,0.0,0.0,0.0,0.0,0.0,0.0,0.0,0.0,0.0,0.0,0.0,0.0,0.0,0.0,0.0,0.0,0.0,0.0,0.0,0.0,0.0,0.0,0.0,0.0,0.0,0.0,0.0,0.0,0.0,0.0,0.0,0.0,0.0,0.0,0.0,0.0,0.0,0.0,0.0,0.0,0.0,0.0,0.2696,0.2696,0.2696,0.2696,0.0,0.0,0.0,0.0,0.0,0.0,0.0,0.0,0.3306,0.3306,0.3309,0.3319,0.35,0.3972,0.468,0.4826,0.5174,0.5639,0.4506,0.3313,0.2142,0.2141,0.1344,0.01,0.0627,0.0517,0.0048,0.0,0.0,0.0,0.0024,0.0,0.0,0.0,0.0,0.0,0.0,0.0,0.0,0.0,0.0,0.0,0.0,0.0,0.0,0.0,0.0,0.0,0.0,0.0,0.0,0.0,0.0,0.0,0.0,0.0,0.0,0.0,0.0,0.0,0.0,0.0,0.0,0.0,0.0,0.0,0.0,0.0,0.0,0.0,0.0,0.0,0.0,0.0,0.0,0.0,0.0,0.0,0.0,0.0,0.0,0.0,0.0,0.0,0.0,0.0,0.0,0.0,0.0,0.0,0.0,0.0,0.0,0.0,0.0,0.0,0.0,0.0,0.0,0.0,0.0,0.0,0.0,0.0,0.0,0.0,0.0,0.0,0.0,0.0,0.0,0.0,0.0,0.2825,0.2788,0.2706,0.2696,0.0,0.0,0.0,0.0,0.0,0.0,0.0,0.3372,0.3232,0.3162,0.3162,0.3239,0.3619,0.4267,0.4511,0.4792,0.5087,0.4829,0.419,0.3341,0.3067,0.0,0.0,0.1276,0.1132,0.1186,0.0337,0.0,0.0061,0.0,0.0,0.0,0.0,0.0,0.0,0.1789,0.1775,0.1566,0.1439,0.0,0.0,0.0,0.0,0.0,0.0,0.0,0.0,0.0,0.0,0.0,0.0,0.0,0.0,0.0,0.0,0.0,0.0,0.0,0.0,0.0,0.0,0.0,0.0,0.0,0.0,0.0,0.0,0.0,0.0,0.0,0.0,0.0,0.0,0.0,0.0,0.0,0.0,0.0,0.0,0.0,0.0,0.0,0.0,0.0,0.0,0.0,0.0,0.0,0.0,0.0,0.0,0.0,0.0,0.0,0.0,0.0,0.0,0.0,0.0,0.0,0.0,0.0,0.0,0.0,0.0,0.0,0.0,0.2795,0.2896,0.0,0.0,0.0,0.0,0.294,0.2839,0.2784,0.2774,0.2774,0.2805,0.0,0.0,0.0,0.0,0.0,0.3229,0.3151,0.3101,0.3171,0.3453,0.3948,0.4195,0.4477,0.4769,0.4786,0.44,0.0,0.0,0.0,0.2705,0.0,0.0,0.1579,0.044,0.0,0.0,0.0,0.0,0.0,0.0,0.0,0.0,0.2026,0.2182,0.2071,0.1896,0.2054,0.0,0.0,0.0,0.0,0.0,0.0,0.0,0.0,0.0,0.0,0.0,0.0,0.0,0.0,0.0,0.0,0.0,0.0,0.0,0.0,0.0,0.0,0.0,0.0,0.0,0.0,0.0,0.0,0.0,0.0,0.0,0.0,0.0,0.0,0.0,0.0,0.0,0.0,0.0,0.0,0.0,0.0,0.0,0.0,0.0,0.0,0.0,0.0,0.0,0.0,0.0,0.0,0.0,0.0,0.0,0.0,0.0,0.0,0.0,0.0,0.0,0.0,0.0,0.0,0.0,0.0,0.0,0.2899,0.2902,0.0,0.0,0.0,0.0,0.0,0.3108,0.2983,0.2917,0.291,0.2771,0.0,0.0,0.0,0.0,0.3309,0.3309,0.3232,0.3101,0.3293,0.3515,0.3782,0.3934,0.4297,0.4844,0.4412,0.3881,0.3382,0.0,0.3761,0.2249,0.0,0.1662,0.106,0.0,0.0,0.0,0.0,0.0389,0.0,0.0886,0.0,0.0,0.0,0.2887,0.3087,0.2946,0.3111,0.0,0.0,0.0,0.0,0.0,0.0,0.0,0.0,0.0,0.0,0.0,0.0,0.0,0.0,0.0,0.0,0.0,0.0,0.0,0.0,0.0,0.0,0.0,0.0,0.0,0.0,0.0,0.0,0.0,0.0,0.0,0.0,0.0,0.0,0.0,0.0,0.0,0.0,0.0,0.0,0.0,0.0,0.0,0.0,0.0,0.0,0.0,0.0,0.0,0.0,0.0,0.0,0.0,0.0,0.0,0.0,0.0,0.0,0.0,0.0,0.0,0.0,0.0,0.0,0.303,0.2986,0.3017,0.3081,0.0,0.0,0.0,0.3256,0.3246,0.3246,0.3246,0.3253,0.3157,0.2924,0.2869,0.2927,0.3091,0.3101,0.3222,0.351,0.3363,0.3232,0.3101,0.3164,0.3263,0.343,0.3629,0.3904,0.424,0.4227,0.4046,0.3835,0.4072,0.0,0.0,0.258,0.2101,0.0,0.0,0.0,0.0,0.0,0.0114,0.0337,0.0,0.1104,0.1333,0.0,0.0,0.3443,0.3293,0.346,0.3601,0.3365,0.0,0.0,0.0,0.0,0.0,0.0,0.0,0.0,0.0,0.0,0.0,0.0,0.0,0.0,0.0,0.0,0.0,0.0,0.0,0.0,0.0,0.0,0.0,0.0,0.0,0.0,0.0,0.0,0.0,0.0,0.0,0.0,0.0,0.0,0.0,0.0,0.0,0.0,0.0,0.0,0.0,0.0,0.0,0.0,0.0,0.0,0.0,0.0,0.0,0.0,0.0,0.0,0.0,0.0,0.0,0.0,0.0,0.0,0.0,0.0,0.331,0.331,0.331,0.331,0.3361,0.3411,0.0,0.0,0.0,0.3617,0.3641,0.3651,0.3591,0.3517,0.3395,0.3202,0.3069,0.3044,0.3169,0.3175,0.331,0.3597,0.349,0.335,0.3175,0.3175,0.3219,0.3309,0.3442,0.3665,0.3927,0.3933,0.3964,0.3987,0.3887,0.0,0.0,0.2637,0.0,0.0,0.0523,0.0,0.0,0.0,0.0,0.0201,0.1648,0.2168,0.0,0.0,0.0,0.0,0.3621,0.3748,0.3948,0.3802,0.0,0.0,0.0,0.0,0.0,0.0,0.0,0.0,0.0,0.0,0.0,0.0,0.0,0.0,0.0,0.0,0.0,0.0,0.0,0.0,0.0,0.0,0.0,0.0,0.0,0.0,0.0,0.0,0.0,0.0,0.0,0.0,0.0,0.0,0.0,0.0,0.0,0.0,0.0,0.0,0.0,0.0,0.0,0.0,0.0,0.0,0.0,0.0,0.0,0.0,0.0,0.0,0.0,0.0,0.0,0.0,0.0,0.0,0.0,0.3624,0.3624,0.3638,0.3651,0.3651,0.3734,0.3816,0.0,0.3948,0.4038,0.4089,0.4186,0.419,0.4055,0.3799,0.3638,0.3604,0.3307,0.3185,0.3303,0.3306,0.3401,0.36,0.3604,0.3503,0.3306,0.3306,0.3306,0.3306,0.3372,0.3522,0.3765,0.3658,0.3727,0.3933,0.0,0.0,0.3067,0.242,0.1817,0.0,0.0,0.0084,0.0331,0.1412,0.1202,0.0717,0.2871,0.3801,0.0,0.0,0.0,0.0,0.0,0.4072,0.0,0.4109,0.4169,0.0,0.0,0.0,0.0,0.2659,0.1847,0.0,0.0,0.0,0.0,0.0,0.0,0.0,0.0,0.0,0.0,0.0,0.0,0.0,0.0,0.0,0.0,0.0,0.0,0.0,0.0,0.0,0.0,0.0,0.0,0.0,0.0,0.0,0.0,0.0,0.0,0.0,0.0,0.0,0.0,0.0,0.0,0.0,0.0,0.0,0.0,0.0,0.0,0.0,0.0,0.0,0.0,0.0,0.0,0.0,0.0,0.0,0.3565,0.3751,0.3751,0.3853,0.3934,0.3934,0.3933,0.395,0.395,0.4085,0.4314,0.4675,0.4548,0.4436,0.4406,0.4104,0.3832,0.3617,0.343,0.332,0.3306,0.3306,0.3401,0.36,0.3604,0.3503,0.3306,0.3306,0.3306,0.3306,0.3306,0.3425,0.3645,0.3614,0.3634,0.3699,0.0,0.0,0.3166,0.2256,0.0,0.2215,0.0593,0.0584,0.1493,0.1696,0.2271,0.2982,0.346,0.3949,0.4372,0.0,0.0,0.0,0.4602,0.0,0.4726,0.4602,0.0,0.0,0.0,0.0,0.0,0.0,0.3034,0.0,0.0,0.0,0.0,0.0,0.0,0.0,0.0,0.0,0.0,0.0,0.0,0.0,0.0,0.0,0.0,0.0,0.0,0.0,0.0,0.0,0.0,0.0,0.0,0.0,0.0,0.0,0.0,0.0,0.0,0.0,0.0,0.0,0.0,0.0,0.0,0.0,0.0,0.0,0.0,0.0,0.0,0.0,0.0,0.0,0.0,0.0,0.0,0.0,0.0,0.348,0.3704,0.3907,0.3907,0.4008,0.4132,0.4229,0.4239,0.4294,0.4422,0.4663,0.4833,0.4881,0.4782,0.466,0.461,0.4304,0.4014,0.3816,0.3679,0.3563,0.3448,0.3441,0.3534,0.3706,0.3638,0.3575,0.3549,0.338,0.3306,0.3306,0.3306,0.3411,0.3607,0.3675,0.3727,0.3809,0.0,0.3917,0.369,0.313,0.0,0.2946,0.21,0.2153,0.2767,0.3398,0.4335,0.5222,0.4404,0.4746,0.0,0.0,0.5202,0.5406,0.0,0.5109,0.5091,0.4863,0.0,0.0,0.4796,0.0,0.0,0.0,0.0,0.0,0.0,0.0,0.0,0.0,0.0,0.0,0.0,0.0,0.0,0.0,0.0,0.0,0.0,0.0,0.0,0.0,0.0,0.0,0.0,0.0,0.0,0.0,0.0,0.0,0.0,0.0,0.0,0.0,0.0,0.0,0.0,0.0,0.0,0.0,0.0,0.0,0.0,0.0,0.0,0.0,0.0,0.0,0.0,0.0,0.0,0.0,0.0,0.0,0.0,0.3631,0.3819,0.3987,0.3957,0.4126,0.4294,0.4433,0.447,0.461,0.4884,0.5169,0.5257,0.5108,0.5064,0.5009,0.4911,0.4527,0.4267,0.4173,0.3941,0.3751,0.3692,0.3631,0.3668,0.3788,0.3675,0.3658,0.3751,0.3462,0.3306,0.3306,0.3306,0.3411,0.361,0.375,0.3894,0.0,0.0,0.0,0.4469,0.0,0.3944,0.3396,0.3423,0.3592,0.3993,0.5289,0.6337,0.6903,0.5563,0.5763,0.648,0.6023,0.5891,0.0,0.0,0.0,0.0,0.0,0.0,0.0,0.0,0.0,0.4621,0.0,0.0,0.0,0.2967,0.0,0.0,0.0,0.0,0.0,0.0,0.0,0.0,0.0,0.0,0.0,0.0,0.0,0.0,0.0,0.0202,0.0165,0.0,0.0334,0.0378,0.0,0.0216,0.0218,0.0,0.0,0.0,0.0,0.0,0.0,0.0,0.0,0.0,0.0,0.0,0.0,0.0,0.0,0.0,0.0,0.0,0.0,0.0,0.0,0.0,0.0,0.0,0.0,0.0,0.3631,0.3819,0.3954,0.3839,0.4187,0.4426,0.4264,0.4379,0.4644,0.5019,0.5103,0.5265,0.5661,0.5589,0.5559,0.5664,0.504,0.4691,0.4779,0.4175,0.3843,0.394,0.3721,0.3668,0.3788,0.3675,0.361,0.3628,0.3411,0.3306,0.3306,0.3306,0.3411,0.361,0.375,0.0,0.0,0.0,0.4665,0.0,0.556,0.4677,0.0,0.307,0.3641,0.4787,0.634,0.7007,0.7068,0.0,0.6657,0.662,0.0,0.6245,0.6187,0.0,0.0,0.0,0.0,0.0,0.0,0.0,0.5393,0.0,0.0,0.0,0.4624,0.4338,0.0,0.0,0.0,0.0,0.0,0.0,0.0,0.0,0.0,0.0,0.0,0.0,0.0,0.0,0.0,0.0985,0.0691,0.0042,0.1497,0.1692,0.0084,0.0885,0.0979,0.0044,0.0,0.0,0.0,0.0,0.0,0.0,0.0,0.0,0.0,0.0,0.0,0.0,0.0,0.0,0.0,0.0,0.0,0.0,0.0,0.0,0.0,0.0,0.0,0.0,0.3614,0.389,0.4051,0.3832,0.4191,0.444,0.4244,0.4741,0.5184,0.525,0.5569,0.5857,0.0,0.0,0.0,0.0,0.0,0.5128,0.0,0.0,0.4226,0.4004,0.39,0.3863,0.3924,0.3778,0.3726,0.3726,0.3445,0.333,0.3351,0.3309,0.3451,0.3714,0.3927,0.0,0.4608,0.0,0.0,0.0,0.0,0.0,0.0,0.5092,0.5656,0.6196,0.6853,0.7095,0.7061,0.0,0.6753,0.0,0.0,0.0,0.0,0.0,0.0,0.0,0.0,0.0,0.0,0.0,0.0,0.0,0.4853,0.0,0.4672,0.0,0.0,0.0,0.0,0.0,0.0,0.0,0.0,0.0,0.0,0.0,0.0,0.0,0.0,0.0,0.0,0.0,0.0,0.0,0.1858,0.2025,0.0711,0.1121,0.0985,0.0043,0.0,0.0,0.0,0.0,0.0,0.0,0.0,0.0,0.0,0.0,0.0,0.0,0.0,0.0,0.0,0.0,0.0,0.009,0.0777,0.0602,0.0,0.0,0.0,0.0095,0.3662,0.0,0.0,0.3829,0.4156,0.4395,0.4345,0.4925,0.5362,0.545,0.5842,0.0,0.6399,0.6183,0.0,0.0,0.6153,0.5694,0.0,0.0,0.4643,0.4399,0.4126,0.0,0.0,0.3931,0.3792,0.3792,0.3472,0.335,0.3454,0.3347,0.3509,0.3866,0.4105,0.4513,0.504,0.0,0.0,0.5423,0.5631,0.5674,0.5737,0.6589,0.6991,0.7095,0.7095,0.7095,0.7058,0.6848,0.6763,0.0,0.6715,0.0,0.0,0.0,0.0,0.0,0.5979,0.0,0.0,0.0,0.0,0.0,0.0,0.0,0.0,0.0,0.0,0.0,0.0,0.0,0.0,0.0,0.0,0.0,0.0,0.0,0.0,0.0,0.0,0.0,0.0,0.0,0.0,0.0,0.0,0.2669,0.1547,0.1855,0.157,0.0412,0.0425,0.0303,0.0,0.0,0.0,0.0,0.0,0.0,0.0,0.0,0.0,0.0,0.0,0.0,0.0,0.0,0.0,0.0135,0.1344,0.1266,0.0551,0.0885,0.0983,0.1121,0.3785,0.3795,0.0,0.0,0.0,0.4324,0.4633,0.4701,0.4928,0.0,0.0,0.0,0.0,0.0,0.0,0.0,0.0,0.6477,0.6463,0.0,0.5033,0.5341,0.4484,0.4222,0.0,0.0,0.3792,0.3792,0.3472,0.3404,0.359,0.3398,0.3541,0.3994,0.4127,0.4628,0.5382,0.5382,0.5887,0.663,0.6491,0.6695,0.6991,0.0,0.6763,0.7095,0.7095,0.0,0.0,0.6927,0.6879,0.0,0.0,0.0,0.0,0.0,0.0,0.0,0.0,0.0,0.0,0.5624,0.0,0.0,0.0,0.0,0.4999,0.0,0.0,0.0,0.0,0.0,0.4857,0.4707,0.4687,0.0,0.0,0.0,0.0,0.0,0.0,0.0,0.0,0.0,0.0,0.0,0.3827,0.0,0.254,0.3514,0.3241,0.1333,0.1436,0.1061,0.0,0.0,0.0,0.0,0.0,0.0,0.0,0.0,0.0,0.0,0.0,0.0,0.0,0.0,0.0,0.0135,0.1344,0.1791,0.1881,0.3041,0.3487,0.3487,0.0,0.0,0.0,0.0,0.0,0.4524,0.4921,0.5237,0.0,0.0,0.0,0.0,0.0,0.7204,0.7285,0.0,0.0,0.6983,0.6787,0.6166,0.0,0.0,0.0,0.4931,0.0,0.0,0.0,0.0,0.0,0.3795,0.387,0.3792,0.3903,0.4156,0.4402,0.4847,0.0,0.0,0.0,0.0,0.0,0.6742,0.7082,0.0,0.6964,0.7095,0.7095,0.7095,0.0,0.7041,0.6964,0.6893,0.6937,0.6858,0.6712,0.6759,0.6739,0.6678,0.0,0.0,0.6681,0.5979,0.0,0.0,0.0,0.0,0.0,0.0,0.0,0.0,0.0,0.0,0.4867,0.4714,0.4691,0.4568,0.0,0.0,0.0,0.0,0.0,0.0,0.0,0.0,0.0,0.0,0.4098,0.0,0.3296,0.3862,0.365,0.2405,0.2519,0.2426,0.2073,0.1378,0.1053,0.1053,0.0357,0.0,0.0,0.0,0.0449,0.1165,0.0359,0.0449,0.1121,0.0314,0.0,0.018,0.2191,0.2992,0.3037,0.3436,0.3614,0.3703,0.4085,0.0,0.0,0.0,0.0,0.0,0.0,0.0,0.0,0.0,0.6739,0.0,0.755,0.0,0.7573,0.0,0.7668,0.738,0.6984,0.6685,0.0,0.6274,0.5837,0.0,0.0,0.0,0.0,0.0,0.0,0.4151,0.4075,0.4021,0.4102,0.4308,0.0,0.5003,0.0,0.0,0.6112,0.0,0.0,0.6881,0.0,0.0,0.7095,0.7095,0.0,0.7095,0.7095,0.7095,0.7038,0.6977,0.7068,0.6967,0.6865,0.6873,0.6895,0.6834,0.6729,0.6814,0.0,0.6247,0.6037,0.0,0.5213,0.0,0.0,0.0,0.0,0.0,0.0,0.0,0.4979,0.4935,0.4796,0.4535,0.0,0.0,0.0,0.0,0.0,0.0,0.0,0.0,0.4202,0.3649,0.4204,0.0,0.0,0.4414,0.4234,0.3381,0.3579,0.348,0.3115,0.2541,0.2252,0.2253,0.1596,0.1299,0.1299,0.1299,0.1701,0.2413,0.1612,0.1701,0.237,0.1612,0.1299,0.1478,0.3484,0.4239,0.4283,0.4683,0.4861,0.4952,0.0,0.0,0.0,0.0,0.4611,0.0,0.0,0.0,0.6146,0.0,0.6773,0.7129,0.7573,0.7621,0.7736,0.7965,0.7906,0.0,0.7169,0.7001,0.0,0.0,0.6325,0.6149,0.633,0.0,0.0,0.0,0.0,0.0,0.4214,0.4089,0.4192,0.4498,0.4651,0.0,0.5606,0.6095,0.6515,0.691,0.7041,0.7095,0.7095,0.7105,0.7105,0.7105,0.7098,0.7095,0.7095,0.7095,0.7095,0.7095,0.7095,0.7095,0.7068,0.6933,0.6991,0.7034,0.68,0.6827,0.6834,0.6439,0.632,0.0,0.0,0.0,0.5932,0.0,0.0,0.0,0.0,0.0,0.0,0.5341,0.4989,0.4518,0.0,0.0,0.0,0.0,0.0,0.0,0.0,0.0,0.4141,0.4436,0.4189,0.0,0.0,0.5189,0.5039,0.4303,0.459,0.4277,0.3271,0.3379,0.3456,0.3459,0.3574,0.3611,0.3614,0.3614,0.3614,0.3703,0.3614,0.3614,0.3703,0.3614,0.3614,0.3703,0.4912,0.5447,0.5625,0.6694,0.7095,0.7095,0.4562,0.4782,0.4918,0.0,0.4881,0.5049,0.0,0.0,0.0,0.0,0.7238,0.7556,0.784,0.7877,0.7907,0.7982,0.7955,0.0,0.0,0.0,0.0,0.7522,0.7051,0.6782,0.6759,0.6054,0.0,0.5359,0.0,0.0,0.4575,0.4423,0.4416,0.0,0.0,0.0,0.5484,0.5898,0.6434,0.7045,0.7082,0.7095,0.7109,0.0,0.7312,0.7295,0.7136,0.7095,0.7095,0.7095,0.7095,0.7095,0.7095,0.7095,0.7088,0.7051,0.7068,0.7082,0.7004,0.7011,0.6991,0.6814,0.6586,0.6388,0.0,0.0,0.0,0.0,0.0,0.0,0.0,0.0,0.0,0.4928,0.4582,0.4294,0.0,0.0,0.0,0.0,0.0,0.0,0.0,0.0,0.4102,0.3999,0.4228,0.0,0.0,0.0,0.5196,0.5246,0.5522,0.5614,0.5481,0.4751,0.4405,0.4522,0.3802,0.3519,0.3614,0.3614,0.4105,0.4865,0.3972,0.4105,0.4865,0.3972,0.3614,0.3703,0.4912,0.5938,0.6694,0.7007,0.7095,0.7095,0.4772,0.0,0.0,0.5491,0.0,0.0,0.5959,0.0,0.0,0.7024,0.7407,0.0,0.7828,0.7914,0.7988,0.7988,0.7988,0.0,0.7855,0.0,0.0,0.7723,0.7536,0.7336,0.7126,0.658,0.0,0.5589,0.0,0.0,0.4617,0.0,0.0,0.0,0.0,0.4965,0.0,0.5949,0.658,0.7102,0.7214,0.7282,0.0,0.7438,0.7472,0.7458,0.7373,0.7299,0.7241,0.7241,0.7152,0.7095,0.7095,0.7095,0.7095,0.7095,0.7095,0.7095,0.7095,0.7095,0.7078,0.6997,0.6892,0.6709,0.6502,0.6515,0.6525,0.0,0.642,0.6441,0.0,0.0,0.0,0.0,0.0,0.0,0.0,0.0,0.0,0.0,0.0,0.0,0.0,0.0,0.0,0.0,0.0,0.0,0.0,0.0,0.5238,0.5579,0.5878,0.6105,0.6296,0.5759,0.5566,0.5696,0.5182,0.4986,0.5129,0.5129,0.5487,0.6115,0.5442,0.5531,0.6071,0.5398,0.5129,0.5218,0.5891,0.6517,0.7095,0.7095,0.7095,0.7095,0.0,0.0,0.0,0.0,0.0,0.0,0.0,0.6607,0.0,0.7119,0.0,0.7658,0.7658,0.7837,0.7988,0.7988,0.0,0.788,0.7675,0.7847,0.7877,0.7668,0.7777,0.7712,0.748,0.7102,0.0,0.0,0.0,0.0,0.4518,0.0,0.0,0.0,0.0,0.0,0.0,0.6115,0.6742,0.7139,0.7319,0.7461,0.76,0.7621,0.7628,0.7631,0.7651,0.7546,0.7446,0.7446,0.7299,0.7125,0.7125,0.7112,0.7095,0.7095,0.7095,0.7095,0.7095,0.7095,0.7095,0.7095,0.7095,0.7031,0.6817,0.6759,0.6759,0.6759,0.6556,0.6478,0.6807,0.0,0.0,0.0,0.0,0.0,0.0,0.0,0.0,0.0,0.0,0.0,0.0,0.0,0.0,0.0,0.0,0.0,0.0,0.0,0.5203,0.5549,0.5847,0.6084,0.6296,0.6422,0.6529,0.6702,0.6834,0.694,0.7095,0.7095,0.7095,0.7095,0.7095,0.7095,0.7095,0.7095,0.7095,0.7095,0.7095,0.7095,0.7095,0.7095,0.7095,0.7095,0.0,0.0,0.0,0.0,0.0,0.6922,0.7187,0.7112,0.7129,0.7478,0.7777,0.7914,0.7914,0.7958,0.7988,0.7988,0.7988,0.0,0.0,0.0,0.0,0.7914,0.7938,0.7867,0.7736,0.7207,0.6671,0.0,0.0,0.0,0.4679,0.4549,0.0,0.0,0.0,0.0,0.5718,0.6247,0.0,0.7333,0.7405,0.7461,0.7611,0.7729,0.7773,0.779,0.7867,0.779,0.756,0.756,0.7458,0.7329,0.7329,0.7244,0.7095,0.7095,0.7095,0.7095,0.7095,0.7095,0.7095,0.7095,0.7095,0.7082,0.7031,0.7018,0.7018,0.7018,0.6977,0.6898,0.6607,0.0,0.0,0.0,0.0,0.0,0.0,0.0,0.0,0.0,0.0,0.0,0.0,0.0,0.0,0.0,0.0,0.0,0.0,0.0,0.4863,0.0,0.5688,0.5976,0.0,0.0,0.6474,0.6702,0.6725,0.6881,0.7095,0.7095,0.7095,0.7095,0.7095,0.7095,0.7095,0.7095,0.7095,0.7095,0.7095,0.7095,0.7095,0.7095,0.7095,0.7095,0.0,0.0,0.0,0.0,0.0,0.0,0.0,0.7556,0.0,0.76,0.7723,0.7811,0.7811,0.7897,0.7988,0.7988,0.7988,0.7988,0.7988,0.7988,0.7988,0.7988,0.7988,0.0,0.7814,0.7383,0.6865,0.63,0.0,0.0,0.4687,0.4563,0.0,0.0,0.0,0.5223,0.0,0.0,0.0,0.7433,0.7539,0.7692,0.7834,0.7853,0.788,0.7891,0.7965,0.7897,0.7818,0.7736,0.7611,0.7489,0.7489,0.7438,0.7363,0.7285,0.7258,0.7244,0.7119,0.7095,0.7095,0.7095,0.7095,0.7095,0.7095,0.7095,0.7095,0.7095,0.7095,0.6937,0.6497,0.5975,0.0,0.0,0.0,0.0,0.0,0.0,0.0,0.0,0.0,0.0,0.0,0.0,0.0,0.0,0.0,0.0,0.0,0.0,0.473,0.0,0.0,0.0,0.6139,0.0,0.645,0.6702,0.6702,0.6854,0.7095,0.7095,0.7095,0.7095,0.7095,0.7095,0.7095,0.7095,0.7095,0.7095,0.7095,0.7095,0.7095,0.7095,0.7095,0.7095,0.0,0.722,0.0,0.0,0.7597,0.0,0.7743,0.7963,0.8028,0.7733,0.7692,0.7692,0.7692,0.785,0.7988,0.7988,0.7988,0.7988,0.7988,0.7988,0.7988,0.7988,0.7988,0.7934,0.7862,0.76,0.716,0.0,0.0,0.0,0.4779,0.4658,0.0,0.0,0.0,0.0,0.0,0.0,0.7027,0.7485,0.7719,0.7902,0.7988,0.7988,0.7988,0.7988,0.7988,0.7988,0.7971,0.7899,0.7763,0.7645,0.7645,0.7624,0.7577,0.7455,0.7421,0.7387,0.7231,0.7146,0.7136,0.7105,0.7095,0.7095,0.7095,0.7095,0.7095,0.7095,0.7095,0.6916,0.6409,0.6061,0.0,0.0,0.0,0.0,0.0,0.0,0.0,0.0,0.0,0.0,0.0,0.0,0.0,0.0,0.0,0.0,0.3984,0.4273,0.4623,0.0,0.0,0.5715,0.5942,0.0,0.645,0.6702,0.6702,0.6854,0.7095,0.7095,0.7095,0.7095,0.7095,0.7095,0.7095,0.7095,0.7095,0.7095,0.7095,0.7095,0.7095,0.7095,0.7095,0.7095,0.0,0.0,0.0,0.0,0.0,0.0,0.8258,0.834,0.8333,0.7988,0.7948,0.7948,0.7948,0.7975,0.7988,0.7988,0.7988,0.7988,0.7988,0.7988,0.7988,0.7988,0.7988,0.7982,0.7968,0.7855,0.7472,0.0,0.0,0.5817,0.0,0.4914,0.0,0.0,0.0,0.0,0.0,0.6773,0.7241,0.7773,0.7801,0.7902,0.7988,0.7988,0.7988,0.7988,0.7988,0.7988,0.7988,0.7975,0.7916,0.779,0.779,0.7702,0.7597,0.7584,0.758,0.7546,0.7394,0.735,0.7316,0.7132,0.7095,0.7095,0.7095,0.7095,0.7095,0.7095,0.7095,0.6916,0.6409,0.6444,0.6325,0.0,0.0,0.0,0.0,0.0,0.0,0.0,0.0,0.0,0.0,0.0,0.0,0.0,0.0,0.0,0.3981,0.4153,0.4446,0.4894,0.5362,0.5664,0.582,0.6153,0.645,0.6702,0.6702,0.6854,0.7095,0.7095,0.7095,0.7095,0.7095,0.7095,0.7095,0.7095,0.7095,0.7095,0.7095,0.7095,0.7095,0.7095,0.7095,0.7095,0.0,0.0,0.0,0.0,0.0,0.0,0.0,0.8445,0.8438,0.8319,0.8306,0.8306,0.8306,0.8228,0.8177,0.8177,0.8092,0.7988,0.7988,0.7988,0.7988,0.7988,0.7988,0.7988,0.7988,0.7889,0.7607,0.0,0.0,0.0,0.0,0.0,0.0,0.0,0.0,0.64,0.6892,0.72,0.7516,0.7821,0.7913,0.7934,0.7988,0.7988,0.7988,0.7988,0.7988,0.7988,0.7988,0.7988,0.7948,0.7897,0.7897,0.786,0.7845,0.7753,0.7726,0.7695,0.755,0.7441,0.7402,0.7295,0.721,0.7095,0.7095,0.7095,0.7095,0.7095,0.7095,0.697,0.66,0.6478,0.6358,0.5996,0.0,0.0,0.0,0.0,0.0,0.0,0.0,0.0,0.0,0.0,0.0,0.0,0.0,0.0,0.0,0.4051,0.4291,0.4769,0.0,0.5559,0.5674,0.6102,0.645,0.6702,0.6702,0.6854,0.7095,0.7095,0.7095,0.7095,0.7095,0.7095,0.7095,0.7095,0.7095,0.7095,0.7095,0.7095,0.7095,0.7095,0.7095,0.7095,0.8482,0.0,0.8303,0.0,0.8414,0.8322,0.8584,0.8615,0.8615,0.8615,0.8615,0.8581,0.8492,0.8391,0.8385,0.8385,0.8231,0.815,0.8109,0.8106,0.8039,0.7992,0.7988,0.0,0.7988,0.7884,0.7753,0.7502,0.703,0.0,0.0,0.0,0.0,0.0,0.6607,0.6895,0.7247,0.7553,0.7746,0.7889,0.7944,0.7988,0.7988,0.7988,0.7988,0.7988,0.7988,0.7988,0.7988,0.7988,0.7988,0.7988,0.7988,0.7988,0.7968,0.7909,0.7879,0.7845,0.7702,0.7584,0.7482,0.7439,0.7288,0.7152,0.7105,0.7095,0.7095,0.7095,0.7061,0.6957,0.6749,0.6491,0.632,0.6187,0.0,0.0,0.0,0.0,0.0,0.0,0.0,0.4494,0.4301,0.0,0.0,0.0,0.0,0.0,0.0,0.0,0.0,0.0,0.0,0.0,0.565,0.6136,0.6491,0.6702,0.6746,0.6898,0.7095,0.7095,0.7095,0.7095,0.7095,0.7095,0.7095,0.7095,0.7095,0.7095,0.7095,0.7095,0.7095,0.7095,0.7095,0.7095,0.8482,0.8601,0.8703,0.8706,0.8828,0.8875,0.8878,0.8878,0.8878,0.8878,0.8878,0.8818,0.8516,0.8479,0.8479,0.8479,0.8479,0.8418,0.833,0.832,0.8201,0.0,0.0,0.7988,0.7988,0.7988,0.7911,0.7804,0.0,0.0,0.6869,0.0,0.6624,0.6883,0.7024,0.726,0.7604,0.7746,0.7896,0.7988,0.7988,0.7988,0.7988,0.7988,0.7988,0.7988,0.7988,0.7988,0.7988,0.7988,0.7988,0.7988,0.7988,0.7988,0.7988,0.7988,0.7985,0.7955,0.7848,0.7807,0.7736,0.7444,0.7415,0.7329,0.7132,0.7095,0.7095,0.7095,0.6987,0.6842,0.6729,0.6573,0.6364,0.5878,0.0,0.0,0.0,0.0,0.0,0.0,0.4496,0.4281,0.4474,0.0,0.0,0.0,0.0,0.0,0.0,0.0,0.0,0.487,0.5352,0.0,0.5796,0.6244,0.6549,0.6702,0.6854,0.6957,0.7095,0.7095,0.7095,0.7095,0.7095,0.7095,0.7095,0.7095,0.7095,0.7095,0.7095,0.7095,0.7095,0.7095,0.7095,0.7095,0.8794,0.8832,0.8811,0.8811,0.8851,0.8885,0.8885,0.8885,0.8885,0.8885,0.8885,0.8848,0.8804,0.8699,0.8638,0.0,0.854,0.8462,0.0,0.8414,0.835,0.8204,0.8197,0.8147,0.7992,0.7988,0.7965,0.7917,0.0,0.0,0.0,0.7177,0.7244,0.7533,0.7577,0.7709,0.7853,0.7897,0.7944,0.7988,0.7988,0.7988,0.7988,0.7988,0.7988,0.7988,0.7988,0.7988,0.7988,0.7988,0.7988,0.7988,0.7988,0.7988,0.7988,0.7988,0.7988,0.7978,0.7931,0.7889,0.7787,0.7695,0.7519,0.7405,0.7309,0.7217,0.7095,0.7095,0.7061,0.6953,0.6746,0.6661,0.6515,0.6207,0.6108,0.0,0.5701,0.0,0.0,0.0,0.4763,0.464,0.0,0.4498,0.0,0.0,0.0,0.0,0.0,0.0,0.0,0.0,0.5447,0.0,0.5919,0.6298,0.6603,0.6858,0.6862,0.696,0.7095,0.7095,0.7095,0.7095,0.7095,0.7095,0.7095,0.7095,0.7095,0.7095,0.7095,0.7095,0.7095,0.7095,0.7095,0.7095,0.8885,0.8885,0.8885,0.8885,0.8885,0.8885,0.8885,0.8885,0.8885,0.8885,0.8885,0.8885,0.8885,0.8797,0.0,0.8798,0.871,0.8628,0.857,0.8567,0.8503,0.8357,0.835,0.8306,0.8208,0.8153,0.0,0.8126,0.7882,0.7716,0.7624,0.7624,0.7723,0.7896,0.7896,0.7901,0.7988,0.7988,0.7988,0.7988,0.7988,0.7988,0.7988,0.7988,0.7988,0.7988,0.7988,0.7988,0.7988,0.7988,0.7988,0.7988,0.7988,0.7988,0.7988,0.7988,0.7988,0.7988,0.7988,0.7921,0.7882,0.7824,0.7672,0.7506,0.7443,0.7251,0.7095,0.7095,0.7055,0.6943,0.6746,0.6654,0.6536,0.6337,0.6132,0.5939,0.5823,0.0,0.0,0.0,0.0,0.0,0.0,0.4853,0.4911,0.0,0.0,0.0,0.0,0.0,0.4965,0.5165,0.5694,0.6044,0.6193,0.6495,0.6739,0.6886,0.694,0.7011,0.7095,0.7095,0.7095,0.7095,0.7095,0.7095,0.7095,0.7095,0.7095,0.7095,0.7095,0.7095,0.7095,0.7095,0.7095,0.7095,0.9047,0.8992,0.8885,0.8885,0.8885,0.8885,0.8885,0.8885,0.8885,0.8885,0.8885,0.8885,0.8885,0.8885,0.8885,0.8885,0.0,0.0,0.8733,0.8726,0.8659,0.8506,0.8499,0.8492,0.8482,0.8353,0.8333,0.8323,0.8116,0.7988,0.7988,0.7988,0.7988,0.7988,0.7988,0.7988,0.7988,0.7988,0.7988,0.7988,0.7988,0.7988,0.7988,0.7988,0.7988,0.7988,0.7988,0.7988,0.7988,0.7988,0.7988,0.7988,0.7988,0.7988,0.7988,0.7988,0.7988,0.7988,0.7988,0.7988,0.7958,0.7862,0.7818,0.7733,0.7438,0.7258,0.7109,0.7098,0.6991,0.6856,0.6746,0.659,0.6477,0.6323,0.6122,0.5925,0.581,0.5583,0.0,0.0,0.0,0.0,0.4935,0.5209,0.5347,0.0,0.0,0.0,0.0,0.0,0.5176,0.5606,0.6085,0.6388,0.6542,0.6787,0.6889,0.6903,0.7034,0.7095,0.7095,0.7095,0.7095,0.7095,0.7095,0.7095,0.7095,0.7095,0.7095,0.7095,0.7095,0.7095,0.7095,0.7095,0.7095,0.7095,0.0,0.0,0.8885,0.8885,0.8885,0.8885,0.8885,0.8885,0.8885,0.8885,0.8885,0.8885,0.8885,0.8885,0.8885,0.8885,0.8885,0.8868,0.8834,0.8828,0.8815,0.8662,0.8655,0.8601,0.8482,0.8448,0.8381,0.8323,0.8116,0.7988,0.7988,0.7988,0.7988,0.7988,0.7988,0.7988,0.7988,0.7988,0.7988,0.7988,0.7988,0.7988,0.7988,0.7988,0.7988,0.7988,0.7988,0.7988,0.7988,0.7988,0.7988,0.7988,0.7988,0.7988,0.7988,0.7988,0.7988,0.7988,0.7988,0.7988,0.7982,0.7944,0.7896,0.7733,0.7438,0.7343,0.7282,0.7122,0.7068,0.7004,0.6859,0.6749,0.6563,0.634,0.6034,0.5803,0.5661,0.5579,0.5511,0.0,0.5504,0.5542,0.5313,0.546,0.5504,0.0,0.0,0.5484,0.5532,0.5572,0.5694,0.5882,0.6247,0.6552,0.6817,0.6849,0.694,0.7048,0.7082,0.7095,0.7095,0.7095,0.7095,0.7095,0.7095,0.7095,0.7095,0.7095,0.7095,0.7095,0.7095,0.7095,0.7095,0.7095,0.7095,0.7095,1.246,1.1857,1.1027,1.0366,1.0257,0.9976,0.9253,0.914,0.9117,0.9045,0.9035,0.9011,0.8892,0.8885,0.8885,0.8885,0.8885,0.8885,0.8885,0.8885,0.8848,0.8818,0.8815,0.8774,0.8693,0.8621,0.8516,0.8367,0.8282,0.8208,0.8143,0.8143,0.8106,0.7988,0.7988,0.7988,0.7988,0.7988,0.7988,0.7988,0.7988,0.7988,0.7988,0.7988,0.7988,0.7988,0.7988,0.7988,0.7988,0.7988,0.7988,0.7988,0.7988,0.7988,0.7988,0.7988,0.7988,0.7988,0.7988,0.7988,0.7988,0.7988,0.7923,0.777,0.7607,0.7468,0.735,0.7261,0.7146,0.7227,0.7629,0.7548,0.7448,0.7653,0.7355,0.6871,0.6291,0.6603,0.6703,0.6239,0.6424,0.6488,0.6299,0.6047,0.5839,0.5614,0.573,0.0,0.5789,0.5993,0.6118,0.6135,0.6424,0.6692,0.6883,0.695,0.7021,0.7095,0.7095,0.7095,0.7095,0.7095,0.7095,0.7095,0.7095,0.7095,0.7095,0.7095,0.7095,0.7095,0.7095,0.7095,0.7095,0.7095,0.7095,0.7095,1.4431,1.4261,1.37,1.2404,1.2179,1.1606,1.0012,0.9783,0.9622,0.9262,0.9245,0.914,0.9018,0.8949,0.8939,0.8974,0.8971,0.8905,0.8885,0.8885,0.8885,0.8885,0.8885,0.8885,0.8885,0.8791,0.8648,0.8516,0.8492,0.8421,0.8354,0.8354,0.8231,0.8056,0.8032,0.8025,0.8022,0.8002,0.7988,0.7988,0.7988,0.7988,0.7988,0.7988,0.7988,0.7988,0.7988,0.7988,0.7988,0.7988,0.7988,0.7988,0.7988,0.7988,0.7988,0.7988,0.7988,0.7988,0.7988,0.7988,0.7988,0.7988,0.7891,0.7838,0.7818,0.7617,0.7473,0.7426,0.7265,0.7478,0.8516,0.8434,0.8407,0.8985,0.8875,0.8259,0.7031,0.0,0.8211,0.7434,0.7623,0.777,0.7677,0.7149,0.6721,0.65,0.6533,0.6511,0.6359,0.6488,0.6501,0.6405,0.6603,0.6807,0.6916,0.7038,0.7095,0.7095,0.7095,0.7095,0.7095,0.7095,0.7095,0.7095,0.7095,0.7095,0.7095,0.7095,0.7095,0.7095,0.7095,0.7228,0.736,0.736,0.7489,0.7617,1.5956,1.4939,1.4035,1.3752,1.3752,1.3245,1.1663,1.1438,1.0916,0.9578,0.9347,0.9337,0.9317,0.9313,0.9262,0.9187,0.9176,0.9069,0.8892,0.8885,0.8885,0.8885,0.8885,0.8885,0.8885,0.8791,0.8699,0.8676,0.8547,0.8472,0.8448,0.8448,0.8435,0.8408,0.8289,0.8235,0.8225,0.8096,0.7988,0.7988,0.7988,0.7988,0.7988,0.7988,0.7988,0.7988,0.7988,0.7988,0.7988,0.7988,0.7988,0.7988,0.7988,0.7988,0.7988,0.7988,0.7988,0.7988,0.7988,0.7988,0.7988,0.7988,0.7971,0.7921,0.7841,0.7777,0.7672,0.7467,0.7398,0.7645,0.8663,0.8522,0.8205,0.8218,0.8667,0.8482,0.6934,0.0,0.8821,0.8423,0.8948,0.9354,0.9319,0.933,0.938,0.9503,0.8502,0.7947,0.8023,0.7163,0.6715,0.682,0.6825,0.692,0.7061,0.7085,0.7095,0.7095,0.7095,0.7095,0.7095,0.7095,0.7095,0.7095,0.7095,0.7095,0.7095,0.7095,0.7095,0.7095,0.7095,0.7709,0.8627,0.8627,0.9231,1.0048,1.7951,1.743,1.6673,1.5792,1.6379,1.6149,1.3654,1.3309,1.3033,1.2231,1.135,1.0794,1.0705,0.9896,0.9354,0.934,0.9258,0.918,0.9059,0.8981,0.8885,0.8885,0.8885,0.8885,0.8885,0.8814,0.8832,0.8832,0.8764,0.8686,0.8604,0.8604,0.856,0.8479,0.8414,0.8384,0.8381,0.8309,0.8279,0.8279,0.8279,0.8231,0.8163,0.8163,0.8113,0.7988,0.7988,0.7988,0.8088,0.8825,0.9069,0.9217,0.9899,1.0092,1.0092,1.0092,0.9118,0.7988,0.7988,0.7988,0.7988,0.7988,0.7988,0.7971,0.7901,0.7872,0.7773,0.7638,0.7482,0.7932,0.9629,0.9582,0.9615,1.0645,1.0808,1.0334,0.9005,0.998,1.0572,0.9983,1.0434,1.0761,1.0761,1.0359,1.0082,1.0191,0.9621,0.9285,0.9375,0.8954,0.8723,0.8768,0.7638,0.7031,0.7095,0.7095,0.7095,0.7095,0.7753,0.8057,0.8105,0.8707,0.8965,0.8965,0.8965,0.8965,0.8965,0.8965,0.8965,0.8965,0.8965,0.9314,0.9836,0.9836,1.0139,1.0611,1.9424,1.9424,1.9004,1.7747,1.8583,1.8409,1.5612,1.5133,1.5011,1.4483,1.3346,1.2588,1.2445,1.0988,1.0047,1.0011,0.9554,0.9396,0.9656,0.9545,0.9466,0.943,0.9754,0.9915,0.9915,0.9915,0.9915,0.9915,0.9915,0.9847,0.9777,0.9403,0.9176,0.9107,0.8705,0.8533,0.8533,0.8499,0.8482,0.8482,0.8482,0.8418,0.8371,0.8371,0.8245,0.8089,0.8106,0.8239,0.8674,0.9669,1.0194,1.0632,1.1604,1.1896,1.1896,1.1896,1.0485,0.892,0.892,0.8676,0.8531,0.8825,0.8676,0.8528,0.8825,0.8818,0.8761,0.8723,0.8562,0.8993,1.092,1.0971,1.1189,1.2649,0.0,1.2081,1.0846,1.1724,1.2254,1.1508,1.1868,1.2119,1.2119,1.152,1.11,1.11,1.0849,1.068,1.068,1.0512,1.0432,1.0432,0.8801,0.7921,0.7921,0.7921,0.7921,0.7921,0.8842,0.9279,0.9323,1.0183,1.0611,1.0611,1.0611,1.0611,1.0611,1.0611,1.0611,1.0611,1.0611,1.0783,1.0994,1.0994,1.1171,1.1391,1.9424,1.9424,1.9366,1.9243,1.9307,1.8823,1.7085,1.6844,1.6309,1.4757,1.446,1.4396,1.4381,1.2948,1.1924,1.1812,1.0454,1.0029,1.106,1.1135,1.1056,1.0954,1.224,1.2999,1.2999,1.2999,1.2999,1.2999,1.2999,1.2989,1.2916,1.157,1.0916,1.0841,0.9341,0.8693,0.8682,0.854,0.8482,0.8482,0.8482,0.8476,0.8465,0.8465,0.8459,0.8431,0.8299,0.9048,1.0016,1.0003,1.0779,1.1799,1.1853,1.1896,1.1896,1.1896,1.175,1.1604,1.1604,1.073,1.0145,1.1312,1.073,1.0145,1.1361,1.159,1.1574,1.1462,1.1397,1.1621,1.2493,1.2357,1.2098,1.2015,0.0,0.0,1.1185,1.2229,1.3033,1.2707,1.3121,1.3444,1.3444,1.3688,1.3805,1.3805,1.2796,1.2142,1.2142,1.1134,1.0585,1.0585,1.0428,1.0351,1.0351,1.0351,1.0351,1.0351,1.0438,1.0481,1.0481,1.0567,1.0611,1.0611,1.0611,1.0611,1.0611,1.0611,1.0611,1.0611,1.0611,1.1252,1.2157,1.2157,1.2899,1.3828,1.9424,1.9424,1.9424,1.9424,1.9424,1.9185,1.8583,1.8467,1.8286,1.7636,1.6738,1.6079,1.6079,1.4653,1.3672,1.3592,1.3003,1.2749,1.3217,1.3136,1.286,1.2472,1.2994,1.3318,1.3318,1.3318,1.3318,1.3318,1.3318,1.3318,1.3264,1.2729,1.2457,1.2453,1.1837,1.1531,1.1527,1.1505,1.1474,1.1474,1.1474,1.1398,1.1287,1.1287,1.1268,1.1052,1.011,1.0647,1.1781,1.1475,1.229,1.3498,1.413,1.4322,1.4322,1.4322,1.4322,1.4322,1.4322,1.277,1.1312,1.1799,1.156,1.1317,1.1799,1.1896,1.1876,1.1834,1.1755,1.1979,1.2997,1.2986,1.3017,1.3428,0.0,1.3485,1.2711,1.3087,1.3393,1.332,1.3667,1.3915,1.3915,1.4021,1.4088,1.4088,1.3688,1.3421,1.3421,1.2997,1.2778,1.2778,1.2778,1.2083,1.0611,1.0611,1.0611,1.0611,1.1338,1.1638,1.1681,1.2431,1.2778,1.2778,1.2778,1.2778,1.2778,1.2778,1.2778,1.2778,1.2778,1.3039,1.3421,1.3421,1.3688,1.4088,1.9424,1.9424,1.9424,1.9424,1.9424,1.9424,1.9424,1.9424,1.9424,1.9424,1.846,1.7741,1.7741,1.6321,1.537,1.537,1.481,1.4633,1.5024,1.5307,1.5049,1.4147,1.4516,1.4747,1.4669,1.4663,1.4663,1.4663,1.4663,1.4663,1.4615,1.418,1.3965,1.3965,1.348,1.3318,1.3318,1.3318,1.3318,1.3318,1.3318,1.3222,1.308,1.308,1.3046,1.2804,1.1793,1.2284,1.3445,1.3103,1.3929,1.514,1.5763,1.5905,1.5784,1.5784,1.5784,1.5784,1.5784,1.4465,1.3108,1.3108,1.2818,1.2619,1.3011,1.3108,1.3108,1.3108,1.307,1.3214,1.3888,1.3961,1.4076,1.4571,1.4416,1.4148,1.3906,1.38,1.374,1.374,1.3961,1.4088,1.4088,1.4088,1.4088,1.4088,1.4088,1.4088,1.4088,1.4088,1.4088,1.4088,1.4088,1.3343,1.1692,1.1692,1.1692,1.1692,1.251,1.2851,1.2899,1.373,1.4088,1.4088,1.4088,1.4088,1.4088,1.4088,1.4088,1.4088,1.4088,1.4088,1.4088,1.4088,1.4088,1.4088,1.9424,1.9424,1.9424,1.9424,1.9424,1.9424,1.9424,1.9424,1.9424,1.9424,1.9424,1.9424,1.9424,1.7987,1.7026,1.7026,1.5548,1.5151,1.6425,1.7784,1.7737,1.5992,1.7265,1.7903,1.7595,1.7589,1.7589,1.7582,1.7582,1.7582,1.7582,1.6121,1.5417,1.5364,1.3965,1.3318,1.3318,1.3318,1.3318,1.3318,1.3318,1.3318,1.3318,1.3318,1.3318,1.3288,1.3113,1.3876,1.5,1.4838,1.5626,1.666,1.6366,1.6072,1.5784,1.5784,1.5784,1.5784,1.5784,1.5784,1.5784,1.5784,1.4854,1.4268,1.5486,1.5784,1.5784,1.5784,1.5784,1.5745,1.5451,1.5398,1.5304,1.5062,1.4716,1.4522,1.4522,1.4269,1.4088,1.4088,1.4088,1.4088,1.4088,1.4088,1.4088,1.4088,1.4088,1.4088,1.4088,1.4088,1.4088,1.4088,1.4088,1.4088,1.4088,1.4088,1.4088,1.4088,1.4088,1.4088,1.4088,1.4088,1.4088,1.4088,1.4088,1.4088,1.4088,1.4088,1.4088,1.4088,1.4088,1.4088,1.4088,1.4088,1.4088,1.4088,1.9424,1.9424,1.9424,1.9424,1.9424,1.9424,1.9424,1.9424,1.9424,1.9424,1.9424,1.9424,1.9424,1.8946,1.8706,1.8706,1.8233,1.8137,1.8526,1.8915,1.8794,1.8035,1.8236,1.8217,1.7916,1.7856,1.7802,1.7582,1.7582,1.7582,1.7582,1.7147,1.6929,1.6929,1.6499,1.634,1.634,1.634,1.634,1.634,1.634,1.634,1.634,1.634,1.634,1.6162,1.5058,1.5623,1.6657,1.5375,1.5863,1.7018,1.6673,1.6373,1.6139,1.6139,1.5992,1.5784,1.5784,1.5784,1.5784,1.5784,1.5486,1.5337,1.573,1.5784,1.5784,1.5784,1.5784,1.5758,1.5718,1.5698,1.5605,1.5311,1.519,1.499,1.4576,1.4442,1.4315,1.4115,1.4088,1.4088,1.4088,1.4088,1.4088,1.4088,1.4088,1.4088,1.4088,1.4088,1.4088,1.4088,1.4088,1.4088,1.4088,1.4088,1.4088,1.4088,1.4088,1.4088,1.4088,1.4088,1.4088,1.4088,1.4088,1.4088,1.4088,1.4088,1.4088,1.4088,1.4088,1.4088,1.4088,1.4088,1.4088,1.4088,1.9424,1.9424,1.9424,1.9424,1.9424,1.9424,1.9424,1.9424,1.9424,1.9424,1.9424,1.9424,1.9424,1.9424,1.9424,1.9424,1.9424,1.9424,1.9424,1.9424,1.9285,1.9112,1.8931,1.8644,1.823,1.8223,1.813,1.7943,1.7943,1.7883,1.7762,1.7756,1.7689,1.7582,1.7582,1.7582,1.7582,1.7582,1.7582,1.7582,1.7582,1.7582,1.7582,1.7582,1.7582,1.747,1.6605,1.6823,1.7443,1.6363,1.6549,1.7172,1.6941,1.668,1.642,1.6355,1.6146,1.5979,1.5865,1.5784,1.5784,1.5784,1.5784,1.5784,1.5784,1.5784,1.5784,1.5784,1.5784,1.5784,1.5784,1.5784,1.5772,1.5591,1.5471,1.5271,1.4917,1.477,1.4589,1.4295,1.4255,1.4215,1.4095,1.4088,1.4088,1.4088,1.4088,1.4088,1.4088,1.4088,1.4088,1.4088,1.4088,1.4088,1.4088,1.4088,1.4088,1.4088,1.4088,1.4088,1.4088,1.4088,1.4088,1.4088,1.4088,1.4088,1.4088,1.4088,1.4088,1.4088,1.4088,1.4088,1.4088,1.4088,1.4088,1.4088,1.9424,1.9424,1.9424,1.9424,1.9424,1.9424,1.9424,1.9424,1.9424,1.9424,1.9424,1.9424,1.9424,1.9424,1.9424,1.9424,1.9424,1.9424,1.9424,1.9424,1.9424,1.9424,1.9424,1.9118,1.8584,1.8544,1.8517,1.849,1.849,1.835,1.8035,1.8063,1.7916,1.7662,1.7635,1.7622,1.7622,1.7595,1.7582,1.7582,1.7582,1.7582,1.7582,1.7582,1.7582,1.7582,1.7582,1.7582,1.7582,1.7582,1.746,1.7239,1.7239,1.6987,1.6693,1.6426,1.6362,1.6213,1.5945,1.5798,1.5784,1.5784,1.5784,1.5784,1.5784,1.5784,1.5784,1.5784,1.5784,1.5784,1.5784,1.5784,1.5784,1.5784,1.5611,1.5424,1.5398,1.517,1.489,1.4596,1.4563,1.4442,1.4155,1.4102,1.4088,1.4088,1.4088,1.4095,1.4122,1.4128,1.4135,1.4162,1.4135,1.4128,1.4128,1.4102,1.4088,1.4088,1.4088,1.4088,1.4088,1.4088,1.4088,1.4088,1.4088,1.4088,1.4088,1.4088,1.4088,1.4088,1.4088,1.4088,1.4088,1.4088,1.4088,1.4088,1.9424,1.9424,1.9424,1.9424,1.9424,1.9424,1.9424,1.9424,1.9424,1.9424,1.9424,1.9424,1.9424,1.9424,1.9424,1.9424,1.9424,1.9424,1.9424,1.9424,1.9424,1.9424,1.9424,1.937,1.9178,1.8951,1.8718,1.849,1.849,1.8457,1.8397,1.839,1.8357,1.8283,1.805,1.7896,1.7876,1.7689,1.7582,1.7582,1.7582,1.7582,1.7582,1.7582,1.7582,1.7582,1.7582,1.7582,1.7582,1.7582,1.7542,1.7488,1.7488,1.734,1.7092,1.7032,1.6683,1.6259,1.6192,1.6005,1.5784,1.5784,1.5784,1.5784,1.5784,1.5784,1.5784,1.5784,1.5784,1.5784,1.5784,1.5784,1.5784,1.5784,1.5724,1.5658,1.5431,1.5344,1.5197,1.4948,1.4914,1.475,1.4456,1.4222,1.4088,1.4088,1.4088,1.4188,1.4416,1.4429,1.4536,1.4814,1.4549,1.4429,1.4429,1.4202,1.4088,1.4088,1.4088,1.4088,1.4088,1.4088,1.4088,1.4088,1.4088,1.4088,1.4088,1.4088,1.4088,1.4088,1.4088,1.4088,1.4088,1.4088,1.4088,1.4088,1.9424,1.9424,1.9424,1.9424,1.9424,1.9424,1.9424,1.9424,1.9424,1.9424,1.9424,1.9424,1.9424,1.9424,1.9424,1.9424,1.9424,1.9424,1.9424,1.9424,1.9424,1.9424,1.9424,1.9424,1.9424,1.9219,1.9065,1.8905,1.8905,1.8838,1.8698,1.8698,1.8624,1.8484,1.833,1.8257,1.825,1.8083,1.8016,1.8003,1.7862,1.7802,1.7789,1.7642,1.7582,1.7582,1.7582,1.7582,1.7582,1.7582,1.7582,1.7582,1.7582,1.7475,1.738,1.7239,1.6985,1.6683,1.6402,1.6159,1.6005,1.5818,1.5784,1.5784,1.5784,1.5784,1.5784,1.5784,1.5784,1.5784,1.5784,1.5784,1.5784,1.5784,1.5784,1.5724,1.5625,1.5605,1.5491,1.5204,1.517,1.5057,1.4763,1.4596,1.4546,1.4546,1.4546,1.4569,1.4723,1.473,1.4803,1.5001,1.481,1.473,1.473,1.4583,1.4546,1.4546,1.4222,1.4088,1.4088,1.4088,1.4088,1.4088,1.4088,1.4088,1.4088,1.4088,1.4088,1.4088,1.4088,1.4088,1.4088,1.4088,1.4088,1.4088,1.9424,1.9424,1.9424,1.9424,1.9424,1.9424,1.9424,1.9424,1.9424,1.9424,1.9424,1.9424,1.9424,1.9424,1.9424,1.9424,1.9424,1.9424,1.9424,1.9424,1.9424,1.9424,1.9424,1.9424,1.9424,1.9424,1.9424,1.9424,1.9424,1.9239,1.8998,1.8998,1.8871,1.8637,1.8591,1.8564,1.8564,1.851,1.849,1.847,1.8223,1.8035,1.7962,1.7762,1.7629,1.7582,1.7582,1.7582,1.7582,1.7582,1.7582,1.7582,1.7582,1.7582,1.7535,1.7347,1.7239,1.7092,1.6603,1.6402,1.6213,1.5965,1.5818,1.5784,1.5784,1.5784,1.5784,1.5784,1.5784,1.5784,1.5784,1.5784,1.5784,1.5784,1.5784,1.5784,1.5784,1.5784,1.5738,1.5498,1.5424,1.5304,1.5109,1.5035,1.5008,1.5008,1.5008,1.5028,1.5082,1.5082,1.5109,1.5156,1.5109,1.5082,1.5082,1.5035,1.5008,1.5001,1.4469,1.4208,1.4162,1.4162,1.4135,1.4088,1.4088,1.4088,1.4088,1.4088,1.4088,1.4088,1.4088,1.4088,1.4088,1.4088,1.4088,1.4088,1.9424,1.9424,1.9424,1.9424,1.9424,1.9424,1.9424,1.9424,1.9424,1.9424,1.9424,1.9424,1.9424,1.9424,1.9424,1.9424,1.9424,1.9424,1.9424,1.9424,1.9424,1.9424,1.9424,1.9424,1.9424,1.9424,1.9424,1.9424,1.9424,1.9403,1.9305,1.9305,1.9285,1.9296,1.8978,1.8865,1.8844,1.8597,1.849,1.849,1.8444,1.8277,1.7989,1.7949,1.7816,1.7582,1.7582,1.7582,1.7582,1.7582,1.7582,1.7582,1.7582,1.7582,1.7575,1.7535,1.74,1.7186,1.7105,1.671,1.6308,1.6219,1.6019,1.5784,1.5784,1.5784,1.5784,1.5784,1.5784,1.5784,1.5784,1.5784,1.5784,1.5784,1.5784,1.5784,1.5784,1.5784,1.5764,1.5724,1.5545,1.5384,1.5344,1.5156,1.5008,1.5008,1.5008,1.5115,1.5324,1.5337,1.5451,1.5705,1.5471,1.5337,1.5337,1.5135,1.5008,1.5008,1.4928,1.471,1.4462,1.4462,1.4322,1.4088,1.4088,1.4088,1.4088,1.4088,1.4088,1.4088,1.4088,1.4088,1.4088,1.4088,1.4088,1.4088,1.9424,1.9424,1.9424,1.9424,1.9424,1.9424,1.9424,1.9424,1.9424,1.9424,1.9424,1.9424,1.9424,1.9424,1.9424,1.9424,1.9424,1.9424,1.9424,1.9424,1.9424,1.9424,1.9424,1.9424,1.9424,1.9424,1.9424,1.9424,1.9424,1.9424,1.9424,1.9424,1.9424,1.9417,1.9232,1.9172,1.9165,1.9032,1.8978,1.8965,1.8798,1.8651,1.8462,1.8357,1.821,1.807,1.7903,1.7729,1.7582,1.7582,1.7582,1.7582,1.7582,1.7582,1.7582,1.7582,1.7548,1.7407,1.7246,1.6891,1.6473,1.6362,1.6052,1.5784,1.5784,1.5784,1.5784,1.5784,1.5784,1.5784,1.5784,1.5784,1.5784,1.5784,1.5784,1.5784,1.5784,1.5784,1.5784,1.5784,1.5718,1.5638,1.5638,1.5524,1.5444,1.5444,1.5444,1.5504,1.5631,1.5638,1.5698,1.5778,1.5705,1.5638,1.5638,1.5511,1.5444,1.5444,1.5444,1.5204,1.4763,1.4596,1.4449,1.4322,1.4162,1.4088,1.4088,1.4088,1.4088,1.4088,1.4088,1.4088,1.4088,1.4088,1.4088,1.4088]}]]